[[{"header":{"parameterUnit":"m.s-1","parameterCategory":1,"la1":31.0,"la2":29.5877,"lo1":-88.7671,"lo2":-86.6584,"dy":0.0162,"dx":0.0185,"nx":115,"ny":88,"refTime":"2023-10-20T18:00:00:Z","depth":0,"parameterNumber":2,"parameterNumberName":"U-component_of_WINDS"},"data":[0.0,0.0,0.0,0.0,0.0,0.0,0.0,0.0,0.0,0.0,0.0,0.0,0.0,0.0,0.0,0.0,0.0,0.0,0.0,0.0,0.0,0.0,0.0,0.0,0.0,0.0,0.0,0.0,0.0,0.0,0.0,0.0,0.0,0.0,0.0,0.0,0.0,0.0,0.0,0.0,0.0,0.0,0.0,0.0,0.0,0.0,0.0,0.0,0.0,0.0,0.0,0.0,0.0,0.0,0.0,0.0,0.0,0.0,0.0,0.0,0.0,0.0,0.0,0.0,0.0,0.0,0.0,0.0,0.0,0.0,0.0,0.0,0.0,0.0,0.0,0.0,0.0,0.0,0.0,0.0,0.0,0.0,0.0,0.0,0.0,0.0,0.0,0.0,0.0,0.0,0.0,0.0,0.0,0.0,0.0,0.0,0.0,0.0,0.0,0.0,0.0,0.0,0.0,0.0,0.0,0.0,0.0,0.0,0.0,0.0,0.0,0.0,0.0,0.0,0.0,0.0,0.0,0.0,0.0,0.0,0.0,0.0,0.0,0.0,0.0,0.0,0.0,0.0,0.0,0.0,0.0,0.0,0.0,0.0,0.0,0.0,0.0,0.0,0.0,0.0,0.0,0.0,0.0,0.0,0.0,0.0,0.0,0.0,0.0,0.0,0.0,0.0,0.0,0.0,0.0,0.0,0.0,0.0,0.0,0.0,0.0,0.0,0.0,0.0,0.0,0.0,0.0,0.0,0.0,0.0,0.0,0.0,0.0,0.0,0.0,0.0,0.0,0.0,0.0,0.0,0.0,0.0,0.0,0.0,0.0,0.0,0.0,0.0,0.0,0.0,0.0,0.0,0.0,0.0,0.0,0.0,0.0,0.0,0.0,0.0,0.0,0.0,0.0,0.0,0.0,0.0,0.0,0.0,0.0,0.0,0.0,0.0,0.0,0.0,0.0,0.0,0.0,0.0,0.0,0.0,0.0,0.0,0.0,0.0,0.0,0.0,0.0,0.0,0.0,0.0,0.0,0.0,0.0,0.0,0.0,0.0,0.0,0.0,0.0,0.0,0.0,0.0,0.0,0.0,0.0,0.0,0.0,0.0,0.0,0.0,0.0,0.0,0.0,0.0,0.0,0.0,0.0,0.0,0.0,0.0,0.0,0.0,0.0,0.0,0.0,0.0,0.0,0.0,0.0,0.0,0.0,0.0,0.0,0.0,0.0,0.0,0.0,0.0,0.0,0.0,0.0,0.0,0.0,0.0,0.0,0.0,0.0,0.0,0.0,0.0,0.0,0.0,0.0,0.0,0.0,0.0,0.0,0.0,0.0,0.0,0.0,0.0,0.0,0.0,0.0,0.0,0.0,0.0,0.0,0.0,0.0,0.0,0.0,0.0,0.0,0.0,0.0,0.0,0.0,0.0,0.0,0.0,0.0,0.0,0.0,0.0,0.0,0.0,0.0,0.0,0.0,0.0,0.0,0.0,0.0,0.0,0.0,0.0,0.0,0.0,0.0,0.0,0.0,0.0,0.0,0.0,0.0,0.0,0.0,0.0,0.0,0.0,0.0,0.0,0.0,0.0,0.0,0.0,0.0,0.0,0.0,0.0,0.0,0.0,0.0,0.0,0.0,0.0,0.0,0.0,0.0,0.0,0.0,0.0,0.0,0.0,0.0,0.0,0.0,0.0,0.0,0.0,0.0,0.0,0.0,0.0,0.0,0.0,0.0,0.0,0.0,0.0,0.0,0.0,0.0,0.0,0.0,0.0,0.0,0.0,0.0,0.0,0.0,0.0,0.0,0.0,0.0,0.0,0.0,0.0,0.0,0.0,0.0,0.0,0.0,0.0,0.0,0.0,0.0,0.0,0.0,0.0,0.0,0.0,0.0,0.0,0.0,0.0,0.0,0.0,0.0,0.0,0.0,0.0,0.0,0.0,0.0,0.0,0.0,0.0,0.0,0.0,0.0,0.0,0.0,0.0,0.0,0.0,0.0,0.0,0.0,0.0,0.0,0.0,0.0,0.0,0.0,0.0,0.0,0.0,0.0,0.0,0.0,0.0,0.0,0.0,0.0,0.0,0.0,0.0,0.0,0.0,0.0,0.0,0.0,0.0,0.0,0.0,0.0,0.0,0.0,0.0,0.0,0.0,0.0,0.0,0.0,0.0,0.0,0.0,0.0,0.0,0.0,0.0,0.0,0.0,0.0,0.0,0.0,0.0,0.0,0.0,0.0,0.0,0.0,0.0,0.0,0.0,0.0,0.0,0.0,0.0,0.0,0.0,0.0,0.0,0.0,0.0,0.0,0.0,0.0,0.0,0.0,0.0,0.0,0.0,0.0,0.0,0.0,0.0,0.0,0.0,0.0,0.0,0.0,0.0,0.0,0.0,0.0,0.0,0.0,0.0,0.0,0.0,0.0,0.0,0.0,0.0,0.0,0.0,0.0,0.0,0.0,0.0,0.0,0.0,0.0,0.0,0.0,0.0,0.0,0.0,0.0,0.0,0.0,0.0,0.0,0.0,0.0,0.0,0.0,0.0,0.0,0.0,0.0,0.0,0.0,0.0,0.0,0.0,0.0,0.0,0.0,0.0,0.0,0.0,0.0,0.0,0.0,0.0,0.0,0.0,0.0,0.0,0.0,0.0,0.0,0.0,0.0,0.0,0.0,0.0,0.0,0.0,0.0,0.0,0.0,0.0,0.0,0.0,0.0,0.0,0.0,0.0,0.0,0.0,0.0,0.0,0.0,0.0,0.0,0.0,0.0,0.0,0.0,0.0,0.0,0.0,0.0,0.0,0.0,0.0,0.0,0.0,0.0,0.0,0.0,0.0,0.0,0.0,0.0,0.0,0.0,0.0,0.0,0.0,0.0,0.0,0.0,0.0,0.0,0.0,0.0,0.0,0.0,0.0,0.0,0.0,0.0,0.0,0.0,0.0,0.0,0.0,0.0,0.0,0.0,0.0,0.0,0.0,0.0,0.0,0.0,0.0,0.0,0.0,0.0,0.0,0.0,0.0,0.0,0.0,0.0,0.0,0.0,0.0,0.0,0.0,0.0,0.0,0.0,0.0,0.0,0.0,0.0,0.0,0.0,0.0,0.0,0.0,0.0,0.0,0.0,0.0,0.0,0.0,0.0,0.0,0.0,0.0,0.0,0.0,0.0,0.0,0.0,0.0,0.0,0.0,0.0,0.0,0.0,0.0,0.0,0.0,0.0,0.0,0.0,0.0,0.0,0.0,0.0,0.0,0.0,0.0,0.0,0.0,0.0,0.0,0.0,0.0,0.0,0.0,0.0,0.0,0.0,0.0,0.0,0.0,0.0,0.0,0.0,0.0,0.0,0.0,0.0,0.0,0.0,0.0,0.0,0.0,0.0,0.0,0.0,0.0,0.0,0.0,0.0,0.0,0.0,0.0,0.0,0.0,0.0,0.0,0.0,0.0,0.0,0.0,0.0,0.0,0.0,0.0,0.0,0.0,0.0,0.0,0.0,0.0,0.0,0.0,0.0,0.0,0.0,0.0,0.0,0.0,0.0,0.0,0.0,0.0,0.0,0.0,0.0,0.0,0.0,0.0,0.0,0.0,0.0,0.0,0.0,0.0,0.0,0.0,0.0,0.0,0.0,0.0,0.0,0.0,0.0,0.0,0.0,0.0,0.0,0.0,0.0,0.0,0.0,0.0,0.0,0.0,0.0,0.0,0.0,0.0,0.0,0.0,0.0,0.0,0.0,0.0,0.0,0.0,0.0,0.0,0.0,0.0,0.0,0.0,0.0,0.0,0.0,0.0,0.0,0.0,0.0,0.0,0.0,0.0,0.0,0.0,0.0,0.0,0.0,0.0,0.0,0.0,0.0,0.0,0.0,0.0,0.0,0.0,0.0,0.0,0.0,0.0,0.0,0.0,0.0,0.0,0.0,0.0,0.0,0.0,0.0,0.0,0.0,0.0,0.0,0.0,0.0,0.0,0.0,0.0,0.0,0.0,0.0,0.0,0.0,0.0,0.0,0.0,0.0,0.0,0.0,0.0,0.0,0.0,0.0,0.0,0.0,0.0,0.0,0.0,0.0,0.0,0.0,0.0,0.0,0.0,0.0,0.0,0.0,0.0,0.0,0.0,0.0,0.0,0.0,0.0,0.0,0.0,0.0,0.0,0.0,0.0,0.0,0.0,0.0,0.0,0.0,0.0,0.0,0.0,0.0,0.0,0.0,0.0,0.0,0.0,0.0,0.0,0.0,0.0,0.0,0.0,0.0,0.0,0.0,0.0,0.0,0.0,0.0,0.0,-0.9951,0.0,0.0,0.0,0.0,0.0,0.0,0.0,0.0,0.0,0.0,0.0,0.0,0.0,0.0,0.0,0.0,0.0,0.0,0.0,0.0,0.0,0.0,0.0,0.0,0.0,0.0,0.0,0.0,0.0,0.0,0.0,0.0,0.0,0.0,0.0,0.0,0.0,0.0,0.0,0.0,0.0,0.0,0.0,0.0,0.0,0.0,0.0,0.0,0.0,0.0,0.0,0.0,0.0,0.0,0.0,0.0,0.0,0.0,0.0,0.0,0.0,0.0,0.0,0.0,0.0,0.0,0.0,0.0,0.0,0.0,0.0,0.0,0.0,0.0,0.0,0.0,0.0,0.0,0.0,0.0,0.0,0.0,0.0,0.0,0.0,0.0,0.0,0.0,0.0,0.0,0.0,0.0,0.0,0.0,0.0,0.0,0.0,0.0,0.0,0.0,0.0,0.0,0.0,0.0,0.0,0.0,0.0,0.0,0.0,0.0,-0.9624,-0.9611,-0.9174,-0.9021,-0.9196,0.0,0.0,0.0,0.0,0.0,0.0,0.0,0.0,0.0,0.0,0.0,0.0,0.0,0.0,0.0,0.0,0.0,0.0,0.0,0.0,0.0,0.0,0.0,0.0,0.0,0.0,0.0,0.0,0.0,0.0,0.0,0.0,0.0,0.0,0.0,0.0,0.0,0.0,0.0,0.0,0.0,0.0,0.0,0.0,0.0,0.0,0.0,0.0,0.0,0.0,0.0,0.0,0.0,0.0,0.0,0.0,0.0,0.0,0.0,0.0,0.0,0.0,0.0,0.0,0.0,0.0,0.0,0.0,0.0,0.0,0.0,0.0,0.0,0.0,0.0,0.0,0.0,0.0,0.0,0.0,0.0,0.0,0.0,0.0,0.0,0.0,0.0,0.0,0.0,0.0,0.0,0.0,0.0,0.0,0.0,0.0,0.0,0.0,0.0,0.0,0.0,0.0,0.0,0.0,0.0,0.0,0.0,0.0,0.0,0.0,0.0,0.0,-0.878,-0.8546,-0.8384,0.0,0.0,0.0,0.0,0.0,0.0,0.0,0.0,0.0,0.0,0.0,0.0,0.0,0.0,0.0,0.0,0.0,0.0,0.0,0.0,0.0,0.0,0.0,0.0,0.0,0.0,0.0,0.0,0.0,0.0,0.0,0.0,0.0,0.0,0.0,0.0,0.0,0.0,0.0,0.0,0.0,0.0,0.0,0.0,0.0,0.0,0.0,0.0,0.0,0.0,0.0,0.0,0.0,0.0,0.0,0.0,0.0,0.0,0.0,0.0,0.0,0.0,0.0,0.0,0.0,0.0,0.0,0.0,0.0,0.0,0.0,0.0,0.0,0.0,0.0,0.0,0.0,0.0,0.0,0.0,0.0,0.0,0.0,0.0,0.0,0.0,0.0,0.0,0.0,0.0,0.0,0.0,0.0,0.0,0.0,0.0,0.0,0.0,0.0,0.0,0.0,0.0,0.0,0.0,0.0,0.0,0.0,0.0,0.0,0.0,-0.8656,-0.8656,-0.8634,0.0,-0.7871,0.0,0.0,0.0,0.0,0.0,0.0,0.0,0.0,0.0,0.0,0.0,0.0,0.0,0.0,0.0,0.0,0.0,0.0,0.0,0.0,0.0,0.0,0.0,0.0,0.0,0.0,0.0,0.0,0.0,0.0,0.0,0.0,0.0,0.0,0.0,0.0,0.0,0.0,0.0,0.0,0.0,0.0,0.0,0.0,0.0,0.0,0.0,0.0,0.0,0.0,0.0,0.0,0.0,0.0,0.0,0.0,0.0,0.0,0.0,0.0,0.0,0.0,0.0,0.0,0.0,0.0,0.0,0.0,0.0,0.0,0.0,0.0,0.0,0.0,0.0,0.0,0.0,0.0,0.0,0.0,0.0,0.0,0.0,0.0,0.0,0.0,0.0,0.0,0.0,0.0,0.0,0.0,0.0,0.0,0.0,0.0,0.0,0.0,0.0,0.0,0.0,0.0,0.0,0.0,0.0,0.0,0.0,0.0,0.0,0.0,-0.8612,-0.8612,-0.8612,-0.8502,0.0,0.0,0.0,0.0,0.0,0.0,0.0,0.0,0.0,0.0,0.0,0.0,0.0,0.0,0.0,0.0,0.0,0.0,0.0,0.0,0.0,0.0,0.0,0.0,0.0,0.0,0.0,0.0,0.0,0.0,0.0,0.0,0.0,0.0,0.0,0.0,0.0,0.0,0.0,0.0,0.0,0.0,0.0,0.0,0.0,0.0,0.0,0.0,0.0,0.0,0.0,0.0,0.0,0.0,0.0,0.0,0.0,0.0,0.0,0.0,0.0,0.0,0.0,0.0,0.0,0.0,0.0,0.0,0.0,0.0,0.0,0.0,0.0,0.0,0.0,0.0,0.0,0.0,0.0,0.0,0.0,0.0,0.0,0.0,0.0,0.0,0.0,0.0,0.0,0.0,0.0,0.0,0.0,0.0,0.0,0.0,0.0,0.0,0.0,0.0,0.0,0.0,0.0,0.0,0.0,0.0,0.0,0.0,0.0,0.0,-0.8723,-0.8639,-0.8612,-0.8612,-0.8612,-0.8612,0.0,0.0,0.0,0.0,0.0,0.0,0.0,0.0,0.0,0.0,0.0,0.0,0.0,0.0,0.0,0.0,0.0,0.0,0.0,0.0,0.0,0.0,0.0,0.0,0.0,0.0,0.0,0.0,0.0,0.0,0.0,0.0,0.0,0.0,0.0,0.0,0.0,0.0,0.0,0.0,0.0,0.0,0.0,0.0,0.0,0.0,0.0,0.0,0.0,0.0,0.0,0.0,0.0,0.0,0.0,0.0,0.0,0.0,0.0,0.0,0.0,0.0,0.0,0.0,0.0,0.0,0.0,0.0,0.0,0.0,0.0,0.0,0.0,0.0,0.0,0.0,0.0,0.0,0.0,0.0,0.0,0.0,0.0,0.0,0.0,0.0,0.0,0.0,0.0,0.0,0.0,0.0,0.0,0.0,0.0,0.0,0.0,0.0,0.0,0.0,0.0,0.0,0.0,0.0,0.0,0.0,0.0,0.0,-0.908,-0.8901,-0.8731,-0.8629,-0.8612,-0.8612,0.0,0.0,0.0,0.0,0.0,0.0,0.0,0.0,0.0,0.0,0.0,0.0,0.0,0.0,0.0,0.0,0.0,0.0,0.0,0.0,0.0,0.0,0.0,0.0,0.0,0.0,0.0,0.0,0.0,0.0,0.0,0.0,0.0,0.0,0.0,0.0,0.0,0.0,0.0,0.0,0.0,0.0,0.0,0.0,0.0,0.0,0.0,0.0,0.0,0.0,0.0,0.0,0.0,0.0,0.0,0.0,0.0,0.0,0.0,0.0,0.0,0.0,0.0,0.0,0.0,0.0,0.0,0.0,0.0,0.0,0.0,0.0,0.0,0.0,0.0,0.0,0.0,0.0,0.0,0.0,0.0,0.0,0.0,0.0,0.0,0.0,0.0,0.0,0.0,0.0,0.0,0.0,0.0,0.0,0.0,0.0,0.0,0.0,0.0,0.0,0.0,0.0,0.0,0.0,0.0,0.0,0.0,0.0,0.0,-0.9282,-0.9111,-0.8909,-0.8739,-0.8731,-0.8473,0.0,0.0,0.0,0.0,0.0,0.0,0.0,0.0,0.0,0.0,0.0,0.0,0.0,0.0,0.0,0.0,0.0,0.0,0.0,0.0,0.0,0.0,0.0,0.0,0.0,0.0,0.0,0.0,0.0,0.0,0.0,0.0,0.0,0.0,0.0,0.0,0.0,0.0,0.0,0.0,0.0,0.0,0.0,0.0,0.0,0.0,0.0,0.0,0.0,0.0,0.0,0.0,0.0,0.0,0.0,0.0,0.0,0.0,0.0,0.0,0.0,0.0,0.0,0.0,0.0,0.0,0.0,0.0,0.0,0.0,0.0,0.0,0.0,0.0,0.0,0.0,0.0,0.0,0.0,0.0,0.0,0.0,0.0,0.0,0.0,0.0,0.0,0.0,0.0,0.0,0.0,0.0,0.0,0.0,0.0,0.0,0.0,0.0,0.0,0.0,0.0,0.0,0.0,0.0,0.0,0.0,0.0,0.0,0.0,-0.9404,0.0,-0.9096,-0.8895,-0.8886,-0.8601,0.0,0.0,0.0,0.0,0.0,0.0,0.0,0.0,0.0,0.0,0.0,0.0,0.0,0.0,0.0,0.0,0.0,0.0,0.0,0.0,0.0,0.0,0.0,0.0,0.0,0.0,0.0,0.0,0.0,0.0,0.0,0.0,0.0,0.0,0.0,0.0,0.0,0.0,0.0,0.0,0.0,0.0,0.0,0.0,0.0,0.0,0.0,0.0,0.0,0.0,0.0,0.0,0.0,0.0,0.0,0.0,0.0,0.0,0.0,0.0,0.0,0.0,0.0,0.0,0.0,0.0,0.0,0.0,0.0,0.0,0.0,0.0,0.0,0.0,0.0,0.0,0.0,0.0,0.0,0.0,0.0,0.0,0.0,0.0,0.0,0.0,0.0,0.0,0.0,0.0,0.0,0.0,0.0,0.0,0.0,0.0,0.0,0.0,0.0,0.0,0.0,0.0,0.0,0.0,0.0,0.0,0.0,0.0,-0.9543,-0.942,-0.9404,-0.9299,-0.9104,-0.9096,-0.9015,0.0,0.0,0.0,0.0,0.0,0.0,0.0,0.0,0.0,0.0,0.0,0.0,0.0,0.0,0.0,0.0,0.0,0.0,0.0,0.0,0.0,0.0,0.0,0.0,0.0,0.0,0.0,0.0,0.0,0.0,0.0,0.0,0.0,0.0,0.0,0.0,0.0,0.0,0.0,0.0,0.0,0.0,0.0,0.0,0.0,0.0,0.0,0.0,0.0,0.0,0.0,0.0,0.0,0.0,0.0,0.0,0.0,0.0,0.0,0.0,0.0,0.0,0.0,0.0,0.0,0.0,0.0,0.0,0.0,0.0,0.0,0.0,0.0,0.0,0.0,0.0,0.0,0.0,0.0,0.0,0.0,0.0,0.0,0.0,0.0,0.0,0.0,0.0,0.0,0.0,0.0,0.0,0.0,0.0,0.0,0.0,0.0,0.0,0.0,0.0,0.0,0.0,0.0,0.0,0.0,0.0,0.0,0.0,0.0,-0.9543,-0.9543,-0.9453,-0.9331,-0.9322,-0.8973,0.0,0.0,0.0,0.0,0.0,0.0,0.0,0.0,0.0,0.0,0.0,0.0,0.0,0.0,0.0,0.0,0.0,0.0,0.0,0.0,0.0,0.0,0.0,0.0,0.0,0.0,0.0,0.0,0.0,0.0,0.0,0.0,0.0,0.0,0.0,0.0,0.0,0.0,0.0,0.0,0.0,0.0,0.0,0.0,0.0,0.0,0.0,0.0,0.0,0.0,0.0,0.0,0.0,0.0,0.0,0.0,0.0,0.0,0.0,0.0,0.0,0.0,0.0,0.0,0.0,0.0,0.0,0.0,0.0,0.0,0.0,0.0,0.0,0.0,0.0,0.0,0.0,0.0,0.0,0.0,0.0,0.0,0.0,0.0,0.0,0.0,0.0,0.0,0.0,0.0,0.0,0.0,0.0,0.0,0.0,0.0,0.0,0.0,0.0,0.0,0.0,0.0,0.0,0.0,0.0,0.0,0.0,0.0,0.0,-0.9599,-0.9599,-0.9551,-0.9462,-0.9462,-0.918,-0.8548,0.0,0.0,0.0,0.0,0.0,0.0,0.0,0.0,0.0,0.0,0.0,0.0,0.0,0.0,0.0,0.0,0.0,0.0,0.0,0.0,0.0,0.0,0.0,0.0,0.0,0.0,0.0,0.0,0.0,0.0,0.0,0.0,0.0,0.0,0.0,0.0,0.0,0.0,0.0,0.0,0.0,0.0,0.0,0.0,0.0,0.0,0.0,0.0,0.0,0.0,0.0,0.0,0.0,0.0,0.0,0.0,0.0,0.0,0.0,0.0,0.0,0.0,0.0,0.0,0.0,0.0,0.0,0.0,0.0,0.0,0.0,0.0,0.0,0.0,0.0,0.0,0.0,0.0,0.0,0.0,0.0,0.0,0.0,0.0,0.0,0.0,0.0,0.0,0.0,0.0,0.0,0.0,0.0,0.0,0.0,0.0,0.0,0.0,0.0,0.0,0.0,0.0,0.0,0.0,0.0,0.0,0.0,0.0,-0.9599,-0.9599,-0.9599,-0.9599,-0.9599,-0.9543,0.0,0.0,0.0,0.0,0.0,0.0,0.0,0.0,0.0,0.0,0.0,0.0,0.0,0.0,0.0,0.0,0.0,0.0,0.0,0.0,0.0,0.0,0.0,0.0,0.0,0.0,0.0,0.0,0.0,0.0,0.0,0.0,0.0,0.0,0.0,0.0,0.0,0.0,0.0,0.0,0.0,0.0,0.0,0.0,0.0,0.0,0.0,0.0,0.0,0.0,0.0,0.0,0.0,0.0,0.0,0.0,0.0,0.0,0.0,0.0,0.0,0.0,0.0,0.0,0.0,0.0,0.0,0.0,0.0,0.0,0.0,0.0,0.0,0.0,0.0,0.0,0.0,0.0,0.0,0.0,0.0,0.0,0.0,0.0,0.0,0.0,0.0,0.0,0.0,0.0,0.0,0.0,0.0,0.0,0.0,0.0,0.0,0.0,0.0,0.0,0.0,0.0,0.0,0.0,0.0,0.0,0.0,0.0,0.0,-0.9599,-0.9599,-0.9599,-0.9599,-0.9599,-0.9575,0.0,0.0,0.0,0.0,0.0,0.0,0.0,0.0,0.0,0.0,0.0,0.0,0.0,0.0,0.0,0.0,0.0,0.0,0.0,0.0,0.0,0.0,0.0,0.0,0.0,0.0,0.0,0.0,0.0,0.0,0.0,0.0,0.0,0.0,0.0,0.0,0.0,0.0,0.0,0.0,0.0,0.0,0.0,0.0,0.0,0.0,0.0,0.0,0.0,0.0,0.0,0.0,0.0,0.0,0.0,0.0,0.0,0.0,0.0,0.0,0.0,0.0,0.0,0.0,0.0,0.0,0.0,0.0,0.0,0.0,0.0,0.0,0.0,0.0,0.0,0.0,0.0,0.0,0.0,0.0,0.0,0.0,0.0,0.0,0.0,0.0,0.0,0.0,0.0,0.0,0.0,0.0,0.0,0.0,0.0,0.0,0.0,0.0,0.0,0.0,0.0,0.0,0.0,0.0,0.0,0.0,0.0,0.0,-0.9599,-0.9599,-0.9599,-0.9599,-0.9599,-0.9599,-0.9599,0.0,0.0,0.0,0.0,0.0,0.0,0.0,0.0,0.0,0.0,0.0,0.0,0.0,0.0,0.0,0.0,0.0,0.0,0.0,0.0,0.0,0.0,0.0,0.0,0.0,0.0,0.0,0.0,0.0,0.0,0.0,0.0,0.0,0.0,0.0,0.0,0.0,0.0,0.0,0.0,0.0,0.0,0.0,0.0,0.0,0.0,0.0,0.0,0.0,0.0,0.0,0.0,0.0,0.0,0.0,0.0,0.0,0.0,0.0,0.0,0.0,0.0,0.0,0.0,0.0,0.0,0.0,0.0,0.0,0.0,0.0,0.0,0.0,0.0,0.0,0.0,0.0,0.0,0.0,0.0,0.0,0.0,0.0,0.0,0.0,0.0,0.0,0.0,0.0,0.0,0.0,0.0,0.0,0.0,0.0,0.0,0.0,0.0,0.0,0.0,0.0,0.0,0.0,0.0,0.0,0.0,0.0,0.0,-0.9599,-0.9599,-0.9599,-0.9599,-0.9599,-0.9599,-0.9599,0.0,0.0,0.0,0.0,0.0,0.0,0.0,0.0,0.0,0.0,0.0,0.0,0.0,0.0,0.0,0.0,0.0,0.0,0.0,0.0,0.0,0.0,0.0,0.0,0.0,0.0,0.0,0.0,0.0,0.0,0.0,0.0,0.0,0.0,0.0,0.0,0.0,0.0,0.0,0.0,0.0,0.0,0.0,0.0,0.0,0.0,0.0,0.0,0.0,0.0,0.0,0.0,0.0,0.0,0.0,0.0,0.0,0.0,0.0,0.0,0.0,0.0,0.0,0.0,0.0,0.0,0.0,0.0,0.0,0.0,0.0,0.0,0.0,0.0,0.0,0.0,0.0,0.0,0.0,0.0,0.0,0.0,0.0,0.0,0.0,0.0,0.0,0.0,0.0,0.0,0.0,0.0,0.0,0.0,0.0,0.0,0.0,0.0,0.0,0.0,0.0,0.0,0.0,0.0,0.0,0.0,0.0,0.0,-0.9599,-0.9599,-0.9599,-0.9599,-0.9599,-0.9599,-0.9599,0.0,0.0,0.0,0.0,0.0,0.0,0.0,0.0,0.0,0.0,0.0,0.0,0.0,0.0,0.0,0.0,0.0,0.0,0.0,0.0,0.0,0.0,0.0,0.0,0.0,0.0,0.0,0.0,0.0,0.0,0.0,0.0,0.0,0.0,0.0,0.0,0.0,0.0,0.0,0.0,0.0,0.0,0.0,0.0,0.0,0.0,0.0,0.0,0.1404,0.0,0.0,0.0,0.0,0.0,0.0,0.0,0.0,0.0,0.0,0.0,0.0,0.0,0.0,0.0,0.0,0.0,0.0,0.0,0.0,0.0,0.0,0.0,0.0,0.0,0.0,0.0,0.0,0.0,0.0,0.0,0.0,0.0,0.0,0.0,0.0,0.0,0.0,0.0,0.0,0.0,0.0,0.0,0.0,0.0,0.0,0.0,0.0,0.0,0.0,0.0,0.0,0.0,0.0,0.0,0.0,0.0,0.0,0.0,-0.9599,-0.9599,-0.9599,-0.9599,-0.9599,-0.9599,-0.9599,0.0,0.0,0.0,0.0,0.0,0.0,0.0,0.0,0.0,0.0,0.0,0.0,0.0,0.0,0.0,0.0,0.0,0.0,0.0,0.0,0.0,0.0,0.0,0.0,0.0,0.0,0.0,0.0,0.0,0.0,0.0,0.0,0.0,0.0,0.0,0.0,0.0,0.0,0.0,0.0,0.0,0.0,0.0,0.0,0.0,0.0,0.0,0.0,0.0,0.0,0.0,0.0,0.0,0.0,0.0,0.0,0.0,0.0,0.0,0.0,0.0,0.0,0.0,0.0,0.0,0.0,0.0,0.0,0.0,0.0,0.0,0.0,0.0,0.0,0.0,0.0,0.0,0.0,0.0,0.0,0.0,0.0,0.0,0.0,0.0,0.0,0.0,0.0,0.0,0.0,0.0,0.0,0.0,0.0,0.0,0.0,0.0,0.0,0.0,0.0,0.0,0.0,0.0,0.0,0.0,0.0,0.0,-0.9599,-0.9599,-0.9599,-0.9599,-0.9599,-0.9599,-0.9599,-0.9599,-0.9599,0.0,0.0,0.0,0.0,0.0,0.0,0.0,0.0,0.0,0.0,0.0,0.0,0.0,0.0,0.0,0.0,0.0,0.0,0.0,0.0,0.0,0.0,0.0,0.0,0.0,0.0,0.0,0.0,0.0,0.0,0.0,0.0,0.0,0.0,0.0,0.0,0.0,0.0,0.1404,0.1404,0.0,0.0,0.0,0.0,0.0,0.0,0.0,0.0,0.1485,0.0,0.0,0.0,0.0,0.0,0.0,0.0,0.0,0.0,0.0,0.0,0.0,0.0,0.0,0.0,0.0,0.0,0.0,0.0,0.0,0.0,0.0,0.0,0.0,0.0,0.0,0.0,0.0,0.0,0.0,0.0,0.0,0.0,0.0,0.0,0.0,0.0,0.0,0.0,0.0,0.0,0.0,0.0,0.0,0.0,0.0,0.0,0.0,0.0,0.0,0.0,0.0,0.0,0.0,0.0,0.0,-0.9599,-0.9599,-0.9599,-0.9599,-0.9599,-0.9599,-0.9599,-0.9599,-0.9599,-0.9575,0.0,0.0,0.0,0.0,0.0,0.0,0.0,0.0,0.0,0.0,0.0,0.0,0.0,0.0,0.0,0.0,0.0,0.0,0.0,0.0,0.0,0.0,0.0,0.0,0.0,0.0,0.0,0.0,0.0,0.0,0.0,0.0,0.0,0.0,0.0,0.0,0.0,0.0,0.0,0.1465,0.1487,0.0,0.0,0.0,0.0,0.0,0.0,0.0,0.0,0.188,0.0,0.0,0.0,0.0,0.0,0.0,0.0,0.0,0.0,0.0,0.0,0.0,0.0,0.0,0.0,0.0,0.0,0.0,0.0,0.0,0.0,0.0,0.0,0.0,0.0,0.0,0.0,0.0,0.0,0.0,0.0,0.0,0.0,0.0,0.0,0.0,0.0,0.0,0.0,0.0,0.0,0.0,0.0,0.0,0.0,0.0,0.0,0.0,0.0,0.0,0.0,0.0,0.0,0.0,0.0,-0.9599,-0.9599,-0.9599,-0.9599,-0.9599,-0.9599,-0.9599,-0.9599,-0.9599,0.0,0.0,0.0,0.0,0.0,0.0,0.0,0.0,0.0,0.0,0.0,0.0,0.0,0.0,0.0,0.0,0.0,0.0,0.0,0.0,0.0,0.0,0.0,0.0,0.0,0.0,0.0,0.0,0.0,0.0,0.0,0.0,0.0,0.0,0.0,0.0,0.0,0.0,0.0,0.0,0.0786,0.0619,-0.0071,0.0,0.0,0.0,0.0,0.0,0.0,0.1562,0.173,0.0,0.0,0.0,0.0,0.0,0.0,0.0,0.0,0.0,0.0,0.0,0.0,0.0,0.0,0.0,0.0,0.0,0.0,0.0,0.0,0.0,0.0,0.0,0.0,0.0,0.0,0.0,0.0,0.0,0.0,0.0,0.0,0.0,0.0,0.0,0.0,0.0,0.0,0.0,0.0,0.0,0.0,0.0,0.0,0.0,0.0,0.0,0.0,0.0,0.0,0.0,0.0,0.0,0.0,0.0,-0.9713,-0.9738,-0.9713,-0.9713,-0.9672,-0.9656,-0.9656,-0.9624,-0.9599,0.0,0.0,0.0,0.0,0.0,0.0,0.0,0.0,0.0,0.0,0.0,0.0,0.0,0.0,0.0,0.0,0.0,0.0,0.0,0.0,0.0,0.0,0.0,0.0,0.0,0.0,0.0,0.0,0.0,0.0,0.0,0.0,0.0,0.0,0.0,0.0,0.0,0.0,0.0,0.0,0.0,-0.0144,-0.1204,-0.0625,0.0,0.0,0.0,0.0,0.1576,0.158,0.0,0.0,0.0,0.0,0.0,0.0,0.0,0.0,0.0,0.0,0.0,0.0,0.0,0.0,0.0,0.0,0.0,0.0,0.0,0.0,0.0,0.0,0.0,0.0,0.0,0.0,0.0,0.0,0.0,0.0,0.0,0.0,0.0,0.0,0.0,0.0,0.0,0.0,0.0,0.0,0.0,0.0,0.0,0.0,0.0,0.0,0.0,0.0,0.0,0.0,0.0,0.0,0.0,0.0,0.0,0.0,-1.0129,-1.0121,-1.0121,-1.0121,-0.9966,-0.9877,-0.9877,-0.968,-0.9599,0.0,0.0,0.0,0.0,0.0,0.0,0.0,0.0,0.0,0.0,0.0,0.0,0.0,0.0,0.0,0.0,0.0,0.0,0.0,0.0,0.0,0.0,0.0,0.0,0.0,0.0,0.0,0.0,0.0,0.0,0.0,0.0,0.0,0.0,0.0,0.0,0.0,0.0,0.0,0.0,0.0,-0.0025,-0.0175,-0.0075,0.0,0.0,0.0,0.1582,0.1586,0.1586,0.0,0.0,0.0,0.0,0.0,0.0,0.0,0.0,0.0,0.0,0.0,0.0,0.0,0.0,0.0,0.0,0.0,0.0,0.0,0.0,0.0,0.0,0.0,0.0,0.0,0.0,0.0,0.0,0.0,0.0,0.0,0.0,0.0,0.0,0.0,0.0,0.0,0.0,0.0,0.0,0.0,0.0,0.0,0.0,0.0,0.0,0.0,0.0,0.0,0.0,0.0,0.0,0.0,0.0,0.0,-1.0186,-1.0186,-1.0186,-1.0186,-1.0186,-1.0113,-1.0064,-1.0072,-0.9999,-0.9884,0.0,0.0,0.0,0.0,0.0,0.0,0.0,0.0,0.0,0.0,0.0,0.0,0.0,0.0,0.0,0.0,0.0,0.0,0.0,0.0,0.0,0.0,0.0,0.0,0.0,0.0,0.0,0.0,0.0,0.0,0.0,0.0,0.0,0.0,0.0,0.0,0.0,0.0,0.0,0.0,0.0,0.0,-0.2618,-0.1687,0.0,0.0,0.0,0.1416,0.0728,0.0,0.0,0.0,0.0,0.0,0.0,0.0,0.0,0.0,0.0,0.0,0.0,0.0,0.0,0.0,0.0,0.0,0.0,0.0,0.0,0.0,0.0,0.0,0.0,0.0,0.0,0.0,0.0,0.0,0.0,0.0,0.0,0.0,0.0,0.0,0.0,0.0,0.0,0.0,0.0,0.0,0.0,0.0,0.0,0.0,0.0,0.0,0.0,0.0,0.0,0.0,0.0,0.0,0.0,0.0,0.0,0.0,-1.0536,-1.0404,-1.0396,-1.0536,-1.0328,-1.0259,-1.0251,-1.0211,0.0,0.0,0.0,0.0,0.0,0.0,0.0,0.0,0.0,0.0,0.0,0.0,0.0,0.0,0.0,0.0,0.0,0.0,0.0,0.0,0.0,0.0,0.0,0.0,0.0,0.0,0.0,-0.4784,0.0,0.0,0.0,0.0,0.0,0.0,0.0,0.0,0.0,0.0,0.0,0.0,0.0,0.0,-0.3327,-0.4336,-0.3089,-0.2286,0.0,0.0,0.105,0.0452,0.1122,0.1712,0.0,0.0,0.0,0.0,0.0,0.0,0.0,0.0,0.0,0.0,0.0,0.0,0.0,0.0,0.0,0.0,0.0,0.0,0.0,0.0,0.0,0.0,0.0,0.0,0.0,0.0,0.0,0.0,0.0,0.0,0.0,0.0,0.0,0.0,0.0,0.0,0.0,0.0,0.0,0.0,0.0,0.0,0.0,0.0,0.0,0.0,0.0,0.0,0.0,0.0,0.0,0.0,0.0,0.0,0.0,-1.1501,-1.0956,-1.0948,-1.1465,-1.077,-1.0393,-1.0385,-1.0249,-1.0212,0.0,0.0,0.0,0.0,0.0,0.0,0.0,0.0,0.0,0.0,0.0,0.0,0.0,0.0,0.0,0.0,0.0,0.0,0.0,0.0,0.0,0.0,0.0,0.0,0.0,0.0,0.0,0.0,0.0,0.0,0.0,0.0,0.0,0.0,0.0,0.0,0.0,0.0,0.0,0.0,0.0,-0.3434,-0.3572,-0.3475,-0.2995,0.0,0.0,0.0372,0.1411,0.1673,0.1764,0.171,0.0,0.0,0.0,0.0,0.0,0.0,0.0,0.0,0.0,0.0,0.0,0.0,0.0,0.0,0.0,0.0,0.0,0.0,0.0,0.0,0.0,0.0,0.0,0.0,0.0,0.0,0.0,0.0,0.0,0.0,0.0,0.0,0.0,0.0,0.0,0.0,0.0,0.0,0.0,0.0,0.0,0.0,0.0,0.0,0.0,0.0,0.0,0.0,0.0,0.0,0.0,0.0,0.0,-1.2082,-1.2082,-1.1864,-1.1864,-1.2055,-1.1466,-1.1133,-1.1142,-1.0741,-1.0436,0.0,0.0,0.0,0.0,0.0,0.0,0.0,0.0,0.0,0.0,0.0,0.0,0.0,0.0,0.0,0.0,0.0,0.0,0.0,0.0,0.0,0.0,0.0,0.0,0.0,0.0,0.0,0.0,-0.4784,-0.4784,-0.4784,0.0,0.0,0.0,0.0,0.0,0.0,0.0,0.0,0.0,0.0,-0.4286,-0.4292,-0.3731,0.0,0.0,-0.2221,-0.1129,-0.1354,-0.0187,0.0727,0.073,0.1306,0.0,0.0,0.0,0.0,0.0,0.0,0.0,0.0,0.0,0.0,0.0,0.0,0.0,0.0,0.0,0.0,0.0,0.0,0.0,0.0,0.0,0.0,0.0,0.0,0.0,0.0,0.0,0.0,0.0,0.0,0.0,0.0,0.0,0.0,0.0,0.0,0.0,0.0,0.0,0.0,0.0,0.0,0.0,0.0,0.0,0.0,0.0,0.0,0.0,0.0,0.0,0.0,-1.2864,-1.2864,-1.2708,-1.2708,-1.2874,-1.2349,-1.2044,-1.2017,-1.1568,-1.1179,0.0,0.0,0.0,0.0,0.0,0.0,0.0,0.0,0.0,0.0,0.0,0.0,0.0,0.0,0.0,0.0,0.0,0.0,0.0,0.0,0.0,0.0,0.0,0.0,0.0,0.0,0.0,0.0,-0.4874,-0.4891,-0.4891,0.0,0.0,0.0,0.0,0.0,0.0,0.0,0.0,0.0,0.0,-0.4926,-0.5,-0.4381,-0.4093,-0.4595,-0.331,-0.2432,-0.2873,-0.1557,-0.052,-0.0498,0.0,0.0,0.0,0.0,0.0,0.0,0.0,0.0,0.0,0.0,0.0,0.0,0.0,0.0,0.0,0.0,0.0,0.0,0.0,0.0,0.0,0.0,0.0,0.0,0.0,0.0,0.0,0.0,0.0,0.0,-1.6214,0.0,0.0,0.0,0.0,0.0,0.0,0.0,0.0,0.0,0.0,0.0,0.0,0.0,0.0,0.0,0.0,0.0,0.0,0.0,0.0,0.0,0.0,-1.397,-1.397,-1.3402,-1.3383,-1.3913,-1.3383,-1.307,-1.3041,-1.2843,-1.2478,-1.1883,0.0,0.0,0.0,0.0,0.0,0.0,0.0,0.0,0.0,0.0,0.0,0.0,0.0,0.0,0.0,0.0,0.0,0.0,0.0,0.0,0.0,0.0,0.0,0.0,0.0,0.0,-0.4995,-0.5047,-0.5096,0.0,0.0,0.0,0.0,0.0,0.0,0.0,0.0,0.0,0.0,-0.518,-0.5268,-0.5459,-0.5459,-0.5043,-0.4111,-0.3919,-0.3452,-0.2396,-0.2022,-0.1862,0.0,0.0,0.0,0.0,0.0,0.0,0.0,0.0,0.0,0.0,0.0,0.0,0.0,0.0,0.0,0.0,0.0,0.0,0.0,0.0,0.0,0.0,0.0,0.0,0.0,0.0,0.0,-1.4151,-1.4264,0.0,0.0,0.0,0.0,0.0,0.0,0.0,0.0,0.0,0.0,0.0,-1.5943,-1.6073,0.0,0.0,0.0,0.0,0.0,0.0,0.0,0.0,0.0,0.0,0.0,0.0,-1.4597,-1.4597,-1.4398,-1.4398,-1.4568,-1.4001,-1.3716,-1.3688,-1.3249,-1.2899,-1.2701,0.0,0.0,0.0,0.0,0.0,0.0,0.0,0.0,0.0,0.0,0.0,0.0,0.0,0.0,0.0,0.0,0.0,0.0,0.0,0.0,0.0,0.0,0.0,0.0,0.0,-0.5063,0.0,0.0,0.0,0.0,0.0,0.0,0.0,0.0,0.0,0.0,0.0,-0.5207,-0.5324,-0.5337,-0.5357,-0.5414,-0.5422,-0.5294,0.0,0.0,0.0,0.0,0.0,0.0,0.0,0.0,0.0,0.0,0.0,0.0,0.0,0.0,0.179,0.18,0.213,0.2632,0.3441,0.0,0.0,0.0,0.0,0.0,0.0,0.0,0.0,0.0,0.0,0.0,0.0,0.0,0.0,-1.4798,0.0,-1.5657,0.0,0.0,0.0,0.0,0.0,0.0,0.0,0.0,-1.6874,-1.6867,-1.6778,-1.6899,-1.6811,0.0,-1.6391,-1.6135,0.0,0.0,0.0,0.0,0.0,0.0,0.0,0.0,-1.5156,-1.5128,-1.5128,-1.5128,-1.5138,-1.4753,-1.458,-1.4541,-1.3904,-1.3595,-1.3726,-1.3317,-1.2975,0.0,0.0,0.0,0.0,0.0,0.0,0.0,0.0,0.0,0.0,0.0,0.0,0.0,0.0,0.0,0.0,0.0,0.0,0.0,0.0,0.0,0.0,0.0,-0.5621,0.0,0.0,0.0,0.0,0.0,0.0,0.0,0.0,0.0,-0.5349,-0.5333,-0.5378,-0.5435,-0.5475,-0.5484,-0.5516,0.0,0.0,0.0,0.0,0.0,0.0,0.0,-0.4469,-0.4457,-0.3833,-0.3195,-0.2786,-0.1645,-0.079,-0.0782,0.0,0.0,0.1718,0.1794,0.2046,0.2828,0.2916,0.3123,0.399,0.4046,0.3975,0.0,0.0,0.0,0.0,0.0,0.0,0.0,0.0,-1.7957,-1.7883,0.0,-1.8037,0.0,0.0,0.0,0.0,0.0,-1.8263,0.0,0.0,-1.8263,-1.8134,-1.7803,-1.7803,-1.763,-1.7302,-1.6971,-1.6971,-1.7195,-1.6169,0.0,0.0,0.0,0.0,0.0,0.0,-1.5623,-1.5623,-1.5623,-1.5623,-1.5601,-1.5601,-1.5572,-1.555,-1.4819,-1.4572,-1.4866,-1.3803,-1.345,-1.3972,-1.3441,0.0,0.0,0.0,0.0,0.0,0.0,0.0,0.0,0.0,0.0,0.0,0.0,0.0,0.0,0.0,0.0,0.0,0.0,0.0,0.0,-0.7141,0.0,0.0,0.0,0.0,0.0,0.0,0.0,0.0,0.0,0.0,-0.5627,-0.5565,-0.5622,-0.5592,0.0,0.0,0.0,0.0,-0.5823,-0.5908,-0.5925,-0.589,-0.5921,-0.5847,-0.5794,-0.5794,0.0,0.0,-0.4159,-0.2977,-0.2122,-0.2088,-0.0942,0.0291,0.1556,0.1801,0.1829,0.1856,0.1885,0.1826,0.1826,0.2056,0.197,-1.2377,0.0,0.0,0.0,0.0,-1.3064,-1.2595,-1.2658,-1.3653,-1.4092,-1.4217,-1.6114,0.0,0.0,0.0,0.0,0.0,0.0,-1.83,-1.83,-1.83,-1.8257,-1.8165,-1.8165,-1.798,-1.7642,-1.7568,-1.7445,-1.7291,-1.697,-1.6689,-1.6433,0.0,0.0,0.0,0.0,-1.6108,-1.6108,-1.6077,-1.6032,-1.5879,-1.5879,-1.5793,-1.5601,-1.5389,-1.5314,-1.5397,-1.5074,-1.4698,-1.4312,-1.4128,0.0,0.0,0.0,0.0,0.0,0.0,0.0,0.0,0.0,0.0,0.0,0.0,0.0,0.0,0.0,0.0,0.0,0.0,0.0,-0.8439,-0.8726,-0.8736,0.0,0.0,0.0,0.0,0.0,0.0,0.0,0.0,0.0,-0.588,-0.5772,-0.5735,0.0,0.0,-0.5914,-0.5943,-0.6027,-0.6076,-0.61,-0.6104,0.0,0.0,-0.6084,-0.6099,-0.6068,-0.6074,-0.5902,-0.5616,-0.4486,-0.3271,-0.2318,-0.1034,0.0271,0.1551,0.1859,0.1859,0.1889,0.1859,0.1859,0.1859,0.1859,0.1859,-1.2004,-1.2509,-1.1742,-1.2231,-1.3382,-1.2516,-1.2114,-1.2178,-1.3003,-1.3697,-1.4293,-1.5918,-1.6969,-1.7502,-1.8277,0.0,0.0,0.0,-1.8601,-1.8601,-1.8601,-1.8601,-1.8601,-1.8601,-1.8508,-1.8308,-1.8183,-1.807,-1.8007,-1.7713,-1.7557,-1.7494,0.0,0.0,-1.6529,-1.6498,-1.6436,-1.6312,-1.6312,-1.6237,-1.6127,-1.6127,-1.6052,-1.5892,-1.5881,-1.5881,-1.5881,-1.5795,-1.5547,-1.5053,-1.493,-1.4494,0.0,0.0,0.0,0.0,0.0,0.0,0.0,0.0,0.0,0.0,0.0,-1.107,0.0,0.0,0.0,0.0,-1.0726,-1.0207,-0.9693,-0.957,0.0,0.0,0.0,0.0,0.0,0.0,0.0,-0.645,-0.6464,-0.6522,-0.6616,-0.6256,-0.5992,-0.6014,-0.604,-0.6104,-0.6073,0.0,-0.6182,-0.6182,-0.6182,-0.6182,-0.6182,-0.6182,-0.6182,-0.6182,-0.6182,-0.6182,-0.6182,-0.5504,-0.4699,-0.3779,-0.2225,-0.0686,0.0153,0.1161,0.1967,0.1895,0.1885,0.1885,0.1885,0.1885,0.1885,-1.2375,-1.2345,-1.2675,-1.3508,-1.4665,-1.4665,-1.4632,-1.4632,-1.4712,-1.5551,-1.6839,-1.6958,-1.7797,-1.9104,-1.9104,0.0,-1.9104,-1.9104,-1.9092,-1.9104,-1.9104,-1.9104,-1.9104,-1.9104,-1.9104,-1.9104,-1.8796,-1.8796,-1.904,-1.8419,-1.827,-1.8591,-1.7839,-1.7267,-1.6914,-1.6852,-1.6708,-1.6397,-1.6377,-1.6355,-1.6344,-1.6323,-1.6312,-1.6301,-1.6312,-1.6312,-1.6301,-1.6127,-1.6039,-1.5998,-1.5774,-1.5387,-1.4769,0.0,0.0,0.0,0.0,0.0,0.0,0.0,0.0,0.0,0.0,0.0,0.0,0.0,0.0,0.0,-1.1409,0.0,-1.1409,-1.0128,0.0,0.0,0.0,-0.6665,-0.6369,-0.718,-0.7747,-0.7822,0.0,0.0,-0.7916,-0.7071,-0.6472,-0.6509,-0.6331,-0.619,-0.6194,-0.6234,-0.6234,-0.6247,-0.6215,-0.6219,-0.6243,-0.6235,-0.6235,-0.6223,-0.6234,-0.6243,-0.6247,-0.621,-0.6206,-0.5801,-0.3932,-0.2092,-0.1996,0.0257,0.1935,0.1894,0.1904,0.1903,0.1938,0.191,0.1941,-1.296,-1.2705,-1.2763,-1.2858,-1.289,-1.2584,-1.2482,-1.2535,-1.3168,-1.4234,-1.5616,-1.6568,-1.7797,-1.9104,-1.9104,-1.9104,-1.9104,-1.9104,-1.9104,-1.9104,-1.9104,-1.9104,-1.9104,-1.9104,-1.9104,-1.9104,-1.9008,-1.902,-1.9104,-1.8912,-1.888,-1.8976,-1.8792,-1.8339,-1.7735,-1.7447,-1.7299,-1.7203,-1.6979,-1.6754,-1.6613,-1.6409,-1.6312,-1.6312,-1.6312,-1.6312,-1.6312,-1.6258,-1.6226,-1.6226,-1.6172,-1.6048,-1.5894,-1.5894,0.0,0.0,0.0,0.0,0.0,0.0,0.0,0.0,0.0,-1.2372,-1.2859,0.0,-1.2056,0.0,-1.3118,-1.3127,-1.3118,-1.2761,0.0,0.0,-1.1647,-1.1073,-1.1012,-1.0721,-1.0548,-1.0552,-1.0689,-1.0823,-1.0946,-0.9618,-0.8784,-0.9143,-0.7502,-0.6284,-0.6284,-0.6378,-0.6423,-0.6427,-0.6481,-0.6492,-0.6484,-0.6526,-0.6468,-0.6436,-0.6423,-0.6423,-0.6456,-0.6423,-0.6068,-0.5021,-0.4286,-0.2998,-0.1034,0.0032,0.0835,0.1774,0.2053,0.2053,0.2053,0.2052,0.2052,-1.3859,-1.3696,-1.4337,-1.4504,-1.4302,-1.3424,-1.3417,-1.4002,-1.4474,-1.5462,-1.6832,-1.8016,-1.8953,-1.965,-1.9532,-1.9467,-1.9467,-1.9467,-1.9434,-1.9467,-1.9434,-1.9467,-1.9434,-1.9467,-1.9467,-1.9434,-1.9467,-1.9467,-1.9434,-1.9467,-1.9467,-1.9467,-1.9467,-1.9238,-1.8867,-1.8256,-1.7916,-1.7723,-1.74,-1.7173,-1.7053,-1.6752,-1.6624,-1.6624,-1.6624,-1.6624,-1.6614,-1.6517,-1.6474,-1.6463,-1.6366,-1.6312,-1.6312,-1.6312,-1.6312,0.0,0.0,0.0,0.0,0.0,0.0,0.0,0.0,0.0,0.0,0.0,-1.3254,-1.3958,-1.4019,-1.4019,-1.4019,-1.3744,-1.349,-1.3368,-1.2749,-1.2297,-1.2246,-1.1893,-1.1436,-1.0904,-1.093,-1.081,-1.0227,-0.937,-0.8822,-0.9129,-0.7917,-0.7002,-0.7006,-0.7084,-0.7051,-0.6881,-0.6893,-0.6824,-0.6686,-0.6651,-0.6635,-0.659,-0.6574,-0.6574,-0.6574,-0.6574,-0.6319,-0.5525,-0.487,-0.3712,-0.1507,-0.0466,0.0365,0.1658,0.2146,0.2128,0.2102,0.2096,0.2096,-1.4814,-1.4949,-1.6414,-1.7165,-1.7198,-1.6211,-1.6287,-1.7059,-1.695,-1.772,-1.9091,-2.0121,-2.0613,-2.058,-2.0291,-2.0157,-2.0157,-2.0157,-2.0124,-2.009,-2.009,-2.0057,-2.0023,-2.0023,-2.0023,-2.0023,-2.0023,-1.9977,-1.9989,-1.9989,-2.0023,-1.9989,-1.9989,-1.9989,-1.9965,-1.9256,-1.8594,-1.8104,-1.7812,-1.7661,-1.7661,-1.7358,-1.7228,-1.7228,-1.7196,-1.7163,-1.7152,-1.6904,-1.6785,-1.6785,-1.6527,-1.6378,-1.6409,-1.6409,-1.6367,0.0,-1.6398,0.0,0.0,0.0,0.0,0.0,0.0,0.0,0.0,-1.4504,-1.4601,-1.4548,-1.4601,-1.4642,-1.4642,-1.4101,-1.3672,-1.3407,-1.296,-1.2592,-1.2524,-1.254,-1.2179,-1.1103,-1.1016,-1.0504,-0.9417,-0.8761,-0.8603,-0.8618,-0.8263,-0.8004,-0.8044,-0.7945,-0.7713,-0.7422,-0.7397,-0.7301,-0.6986,-0.692,-0.6877,-0.6795,-0.6782,-0.676,-0.6717,-0.6717,-0.6686,-0.6542,-0.5688,-0.4396,-0.2798,-0.1384,0.0069,0.1478,0.1977,0.2182,0.2129,0.2114,0.2109,-1.5366,-1.5515,-1.718,-1.8482,-1.9561,-2.0714,-2.0102,-1.8309,-1.7897,-1.8412,-1.9715,-2.1046,-2.162,-2.162,-2.1551,-2.1517,-2.1517,-2.1517,-2.1346,-2.1037,-2.1037,-2.0865,-2.0555,-2.0555,-2.0555,-2.0555,-2.0555,-2.0555,-2.0555,-2.0555,-2.0555,-2.0555,-2.0555,-2.0555,-2.0555,0.0,0.0,0.0,-1.8584,-1.8562,-1.8562,-1.8495,-1.845,-1.8462,-1.8184,0.0,-1.8039,-1.7554,-1.7271,-1.7271,-1.7001,0.0,0.0,0.0,0.0,0.0,0.0,0.0,0.0,0.0,0.0,0.0,-1.6541,-1.6339,-1.5918,-1.5908,-1.5711,-1.5203,-1.5618,-1.5939,-1.5939,-1.5846,-1.5815,-1.596,-1.6009,-1.615,-1.63,-1.6451,-1.6469,-1.6304,-1.6406,-1.5906,-1.4172,-1.3169,-1.1839,-1.0737,-0.9512,-0.877,-0.8975,-0.8404,-0.7915,-0.7806,-0.7811,-0.7823,-0.7752,-0.7717,-0.7548,-0.7305,-0.7178,-0.7078,-0.6807,-0.6733,-0.6729,-0.6698,-0.6481,-0.5813,-0.4375,-0.2896,-0.1359,0.007,0.1324,0.221,0.2185,0.2171,0.2171,-1.574,0.0,-1.8285,-1.9696,0.0,-2.3005,-2.3304,-2.2013,-2.1304,-2.1305,-2.1815,-2.232,-2.2543,-2.2508,-2.232,-2.225,-2.225,-2.225,-2.2144,-2.1933,-2.1792,-2.1581,-2.1405,-2.117,-2.1111,-2.1099,-2.1099,-2.1099,-2.1099,-2.1099,-2.1099,-2.1099,-2.1099,-2.1099,-2.1099,-2.1099,-2.0659,-1.9722,-1.9457,-1.9286,-1.9286,-1.8968,-1.8799,-1.8799,-1.8631,0.0,0.0,0.0,0.0,0.0,0.0,0.0,0.0,0.0,0.0,-1.7356,-1.7249,-1.7195,-1.7217,-1.7077,-1.6947,-1.685,-1.7044,-1.7033,-1.6678,-1.6657,-1.6488,-1.617,-1.6573,-1.684,-1.684,-1.6904,-1.7055,-1.7173,-1.7281,-1.7453,-1.769,-1.783,-1.7641,-1.6979,-1.6395,-1.5429,-1.3901,-1.2308,-1.1191,-1.0551,-0.9663,-0.9054,-0.9224,-0.8918,-0.852,-0.8343,-0.8138,-0.8033,-0.8074,-0.8033,-0.7988,-0.7754,-0.7673,-0.7602,-0.7425,-0.7247,-0.714,-0.714,-0.6998,-0.6389,-0.4956,-0.394,-0.2756,-0.0636,0.0528,0.1363,0.1963,0.22,0.2199,-1.6303,-1.6848,-1.9604,-2.0917,-2.1508,-2.4506,-2.5758,-2.5611,0.0,0.0,0.0,-2.375,-2.3605,-2.3569,-2.3267,-2.3109,-2.3109,-2.3109,-2.3073,-2.3,-2.271,-2.2529,-2.2347,-2.2044,-2.1825,-2.1788,-2.1788,-2.1788,-2.1788,-2.1788,-2.1788,-2.1788,-2.1788,-2.1788,-2.1788,-2.1788,-2.1571,-2.1123,-2.0434,-2.0094,-2.0094,-1.9551,-1.9277,-1.9277,-1.9197,-1.9163,-1.9163,-1.9061,-1.888,-1.8552,-1.8474,-1.8306,-1.7925,-1.7891,-1.7891,-1.7813,-1.764,-1.7509,-1.7465,-1.7249,-1.713,-1.713,-1.7357,-1.7335,-1.7087,-1.7109,-1.713,-1.713,-1.7324,-1.7432,-1.7443,-1.7647,-1.7775,-1.7841,-1.7884,-1.8003,-1.8239,-1.8282,-1.7809,-1.6484,-1.5631,-1.3977,-1.2071,-1.1102,-0.9906,-0.9518,-0.9425,-0.9372,-0.9362,-0.9293,-0.91,-0.8853,-0.8564,-0.8326,-0.8331,-0.8362,-0.8259,-0.8208,-0.8213,-0.8191,-0.8078,-0.786,-0.7711,-0.7661,-0.7385,-0.6725,-0.5634,-0.5081,-0.394,-0.1182,-0.0391,0.0176,0.1589,0.2014,0.2045,-1.7425,-1.8997,-2.089,-2.2636,-2.426,-2.619,-2.6774,-2.6213,-2.5598,-2.5304,-2.5264,-2.5202,-2.515,-2.5188,-2.5113,-2.5075,-2.5113,-2.5113,-2.491,-2.4581,-2.4543,-2.4125,-2.3464,-2.3388,-2.3209,-2.2903,-2.2852,-2.2903,-2.2864,-2.2852,-2.2864,-2.2852,-2.2864,-2.2852,-2.2864,-2.2903,-2.2828,-2.2731,-2.1776,-2.1234,-2.1269,-2.1162,-2.1102,-2.1114,-2.0757,-2.059,-2.0626,-2.0096,-1.9713,-1.945,-1.9198,-1.8959,-1.8653,-1.8653,-1.853,-1.825,-1.8183,-1.8038,-1.7702,-1.7636,-1.7615,-1.7626,-1.7614,-1.7572,-1.7356,-1.7507,-1.7581,-1.7581,-1.7658,-1.7669,-1.769,-1.7916,-1.8142,-1.828,-1.8509,-1.8724,-1.8903,-1.8925,-1.8347,-1.6942,-1.7719,-1.6415,-1.2831,-1.2727,-1.2137,-1.0277,-0.9616,-0.9643,-0.9568,-0.9438,-0.9282,-0.923,-0.9157,-0.9121,-0.9081,-0.9127,-0.8967,-0.8657,-0.8636,-0.8537,-0.8288,-0.8142,-0.8065,-0.8046,-0.7942,-0.7792,-0.7425,-0.6503,-0.4963,-0.3041,-0.1841,-0.0506,0.1085,0.1412,0.1548,-2.0226,-2.1136,-2.2738,-2.3898,-2.4807,-2.6559,-2.7148,-2.6881,-2.6587,-2.6092,-2.5531,-2.5518,-2.5518,-2.5518,-2.5518,-2.5518,-2.5518,-2.5518,-2.539,-2.5198,-2.5007,-2.47,-2.4355,-2.4124,-2.3931,-2.3777,-2.3507,-2.343,-2.3391,-2.3237,-2.3121,-2.3121,-2.3121,-2.3121,-2.3121,-2.3121,-2.3121,-2.307,-2.2332,-2.1933,-2.1933,-2.1667,-2.1474,-2.1474,-2.133,-2.121,-2.121,-2.0959,-2.0662,-2.0308,-2.0203,-1.9981,-1.9621,-1.9621,-1.9539,-1.9388,-1.9055,-1.8815,-1.8641,-1.8278,-1.8076,-1.8076,-1.8229,-1.8261,-1.8142,-1.7873,-1.7743,-1.7882,-1.8035,-1.8129,-1.8282,-1.8519,-1.8678,-1.8774,-1.8892,-1.8989,-1.9086,-1.9118,-1.8779,-1.8039,-1.7067,-1.5708,-1.3556,-1.2449,-1.1487,-0.9891,-0.9709,-0.9709,-0.9709,-0.9579,-0.9503,-0.9503,-0.9503,-0.9503,-0.9497,-0.954,-0.9429,-0.9282,-0.9245,-0.9171,-0.8949,-0.8834,-0.8624,-0.8538,-0.8382,-0.8212,-0.8101,-0.6837,-0.5307,-0.3782,-0.2256,-0.0692,0.0693,0.1204,0.138,-2.2363,-2.3201,-2.4353,-2.5073,-2.5625,-2.692,-2.7469,-2.7403,-2.7362,-2.6814,-2.5985,-2.5905,-2.5905,-2.5905,-2.5905,-2.5905,-2.5905,-2.5905,-2.5905,-2.5866,-2.5594,-2.54,-2.5244,-2.4971,-2.4764,-2.4659,-2.4346,-2.4151,-2.4021,-2.3759,-2.3551,-2.3433,-2.3433,-2.3409,-2.3348,-2.3348,-2.3324,-2.3239,-2.2804,-2.2538,-2.2465,-2.2079,-2.1873,-2.1861,-2.1873,-2.1873,-2.1873,-2.1873,-2.1666,-2.1243,-2.1195,-2.1039,-2.0596,-2.056,-2.0523,-2.0392,-2.0004,-1.9712,-1.9594,-1.9118,-1.8771,-1.8701,-1.8899,-1.8972,-1.8857,-1.8334,-1.8121,-1.8315,-1.8463,-1.8635,-1.8832,-1.9068,-1.9193,-1.9193,-1.9247,-1.929,-1.9269,-1.9279,-1.9085,-1.8559,-1.6842,-1.5469,-1.3932,-1.2179,-1.0812,-1.0061,-0.9748,-0.9748,-0.9748,-0.9748,-0.9785,-0.9774,-0.9747,-0.9693,-0.9703,-0.9698,-0.9693,-0.9703,-0.9698,-0.9607,-0.9575,-0.9393,-0.9259,-0.9065,-0.8859,-0.8686,-0.8392,-0.7235,-0.5693,-0.4192,-0.2652,-0.1031,0.0479,0.0959,0.1174,-2.2159,-2.4911,-2.5343,-2.6343,-2.7735,-2.8001,-2.7938,-2.7669,-2.7655,-2.7455,-2.7122,-2.7148,-2.7122,-2.7148,-2.7108,-2.7081,-2.7095,-2.7135,-2.7108,-2.7095,-2.7108,-2.6851,-2.6419,-2.6364,-2.6199,-2.5847,-2.5753,-2.5498,-2.5172,-2.5087,-2.4878,-2.4521,-2.4439,-2.4294,-2.4101,-2.4077,-2.3969,-2.374,-2.3451,-2.3225,-2.3022,-2.3,-2.2937,-2.2937,-2.2925,-2.2975,-2.2877,-2.2937,-2.2707,-2.2235,-2.2149,-2.1944,-2.1462,-2.1378,-2.1234,-2.0908,-2.0801,-2.0585,-2.0272,-2.0177,-1.9971,-1.9623,-1.9631,-1.9519,-1.918,-1.9032,-1.8989,-1.9032,-1.9043,-1.9054,-1.9086,-1.9338,-1.9467,-1.9478,-1.9666,-1.9817,-1.9795,-1.9827,-1.9252,-1.7682,-1.8192,-1.7748,-1.3739,-1.3209,-1.2825,-1.0258,-0.9992,-0.9992,-0.9987,-0.9992,-0.9992,-0.9954,-0.9829,-0.9747,-0.9736,-0.9709,-0.9742,-0.9731,-0.9714,-0.9736,-0.9709,-0.9699,-0.9623,-0.9516,-0.9537,-0.9414,-0.9132,-0.8239,-0.653,-0.4753,-0.3149,-0.1619,-0.0264,0.0415,0.0786,-2.5641,-2.7012,-2.7054,-2.749,-2.8136,-2.8192,-2.8112,-2.8005,-2.8005,-2.7938,-2.7844,-2.7831,-2.7643,-2.7309,-2.7309,-2.7309,-2.7309,-2.7309,-2.7309,-2.7309,-2.7309,-2.7173,-2.7009,-2.7009,-2.69,-2.6736,-2.649,-2.6231,-2.6067,-2.5833,-2.5462,-2.505,-2.5009,-2.4824,-2.4468,-2.4427,-2.4366,-2.427,-2.4162,-2.4094,-2.3925,-2.3409,-2.3121,-2.3121,-2.3121,-2.3121,-2.3121,-2.3121,-2.3012,-2.278,-2.2756,-2.2671,-2.2453,-2.2441,-2.2404,-2.2204,-2.194,-2.1601,-2.1223,-2.1185,-2.111,-2.0921,-2.0921,-2.0845,-2.0705,-2.0694,-2.0629,-2.032,-1.9719,-1.9402,-1.9542,-1.965,-1.9741,-1.9752,-1.9827,-1.9881,-1.9881,-1.9881,-1.9281,-1.7779,-1.7192,-1.6117,-1.3347,-1.2391,-1.1732,-1.0396,-1.0231,-1.0221,-1.0231,-1.0237,-1.0237,-1.0226,-1.0144,-1.0036,-0.9916,-0.9873,-0.9878,-0.9878,-0.9878,-0.9878,-0.9878,-0.9878,-0.9862,-0.9791,-0.9791,-0.9758,-0.9666,-0.8342,-0.6751,-0.4955,-0.2572,-0.0682,-0.0076,0.0114,0.0342,-2.7757,-2.8179,-2.8192,-2.8192,-2.8192,-2.8192,-2.8192,-2.8192,-2.8192,-2.8192,-2.8192,-2.8192,-2.7951,-2.759,-2.755,-2.755,-2.755,-2.755,-2.755,-2.755,-2.755,-2.755,-2.7536,-2.755,-2.755,-2.7509,-2.722,-2.7013,-2.6835,-2.6434,-2.6019,-2.5729,-2.5562,-2.5305,-2.4912,-2.4787,-2.4656,-2.4583,-2.4583,-2.4583,-2.4475,-2.3876,-2.3517,-2.3517,-2.3517,-2.3517,-2.3505,-2.3445,-2.3372,-2.33,-2.3188,-2.3155,-2.3082,-2.3121,-2.3121,-2.3082,-2.2773,-2.2462,-2.2179,-2.2152,-2.2113,-2.1997,-2.1958,-2.1907,-2.1802,-2.1791,-2.1674,-2.1357,-2.0615,-2.0216,-2.0043,-2.0022,-2.0011,-2.0065,-2.0032,-2.0,-2.0086,-2.0076,-1.9692,-1.8504,-1.7279,-1.5011,-1.3094,-1.1567,-1.0488,-1.0408,-1.0373,-1.0424,-1.0424,-1.0378,-1.0378,-1.0424,-1.0378,-1.0307,-1.0155,-1.0123,-1.0083,-1.0123,-1.0123,-1.0123,-1.0123,-1.0123,-1.0117,-1.0063,-1.0008,-0.9909,-0.9826,-0.8597,-0.6577,-0.4427,-0.2079,0.0,0.0,0.0,0.0,-2.6546,-2.8094,-2.8192,-2.8192,-2.8192,-2.8192,-2.8192,-2.8192,-2.8192,-2.8192,-2.8192,-2.8192,-2.8165,-2.8112,-2.8085,-2.8125,-2.8125,-2.8098,-2.8085,-2.8098,-2.8112,-2.8138,-2.8138,-2.8152,-2.8125,-2.8072,-2.8016,-2.7833,-2.7438,-2.7028,-2.6758,-2.669,-2.6326,-2.596,-2.5635,-2.5275,-2.489,-2.4751,-2.4727,-2.4661,-2.4607,-2.4535,-2.4487,-2.4475,-2.4487,-2.4439,-2.4439,-2.4258,-2.4017,-2.3776,-2.3559,-2.3306,-2.3143,-2.3169,-2.3155,-2.3143,-2.313,-2.308,-2.3065,-2.3038,-2.2871,-2.2498,-2.2455,-2.2253,-2.2027,-2.1988,-2.1949,-2.1786,-2.1713,-2.1396,-2.0734,-2.0444,-2.0324,-2.0475,-2.0307,-2.0307,-2.0518,-2.0291,-2.0522,-1.9985,-1.8258,-1.5799,-1.3069,-1.1378,-1.0589,-1.0438,-1.0457,-1.0457,-1.0438,-1.0416,-1.0411,-1.0416,-1.0411,-1.0384,-1.0373,-1.0313,-1.0329,-1.0318,-1.0286,-1.034,-1.0362,-1.0413,-1.0391,-1.0375,-1.0286,-1.0201,-1.0008,-0.867,-0.6381,-0.4119,-0.1749,0.0,0.0,0.0,0.0,-2.7588,-2.8192,-2.8192,-2.8192,-2.8192,-2.8192,-2.8192,-2.8192,-2.8192,-2.8192,-2.8192,-2.8192,-2.8192,-2.8192,-2.8192,-2.8192,-2.8192,-2.8192,-2.8192,-2.8192,-2.8192,-2.8192,-2.8192,-2.8192,-2.8192,-2.8192,-2.8192,-2.8136,-2.7926,-2.777,-2.7558,-2.7262,-2.7093,-2.6817,-2.6445,-2.6221,-2.5947,-2.5608,-2.5553,-2.5439,-2.5174,-2.5102,-2.5102,-2.5077,-2.4764,-2.4583,-2.4583,-2.4487,-2.4403,-2.4306,-2.421,-2.4113,-2.4069,-2.4057,-2.4057,-2.4057,-2.4057,-2.4057,-2.4033,-2.3888,-2.3764,-2.3552,-2.3369,-2.3234,-2.3115,-2.3076,-2.2957,-2.2758,-2.2679,-2.2413,-2.1896,-2.1262,-2.0779,-2.0611,-2.0529,-2.0518,-2.0337,-1.9604,-1.8937,-1.8678,-1.6788,-1.4066,-1.2332,-1.1053,-1.0759,-1.0819,-1.0775,-1.0726,-1.071,-1.0625,-1.0612,-1.0612,-1.0612,-1.0612,-1.0612,-1.0465,-1.0384,-1.0424,-1.0378,-1.0378,-1.0394,-1.0411,-1.0394,-1.0411,-1.0422,-1.0422,-1.0138,-0.8261,-0.6066,-0.4715,-0.2306,0.0,0.0,0.0,0.0,-2.8473,-2.843,-2.8473,-2.8473,-2.8473,-2.8473,-2.8473,-2.846,-2.8379,-2.8339,-2.8326,-2.8232,-2.8192,-2.8192,-2.8192,-2.8192,-2.8192,-2.8192,-2.8192,-2.8192,-2.8192,-2.8192,-2.8192,-2.8192,-2.8192,-2.8192,-2.8192,-2.8192,-2.8192,-2.8192,-2.8023,-2.7728,-2.7601,-2.7347,-2.705,-2.6881,-2.6613,-2.6358,-2.6316,-2.6146,-2.586,-2.569,-2.5647,-2.5556,-2.5113,-2.4849,-2.4849,-2.4764,-2.4716,-2.4716,-2.4644,-2.4583,-2.4583,-2.4583,-2.4583,-2.4583,-2.4571,-2.4583,-2.4571,-2.4456,-2.4318,-2.4318,-2.4162,-2.4053,-2.4053,-2.4053,-2.3891,-2.3689,-2.3648,-2.3486,-2.3063,-2.2487,-2.1828,-2.118,-2.0845,-2.0788,-2.0838,-1.9863,-1.88,-1.7588,-1.541,-1.3027,-1.1379,-1.1056,-1.1009,-1.1096,-1.0982,-1.0982,-1.0965,-1.0874,-1.0814,-1.0857,-1.0857,-1.0857,-1.0857,-1.0764,-1.0606,-1.0574,-1.0547,-1.0514,-1.0498,-1.0498,-1.0498,-1.0498,-1.0498,-1.0498,-0.9555,-0.7746,-0.6434,-0.5371,-0.3353,0.0,0.0,0.0,0.0,-2.8975,-2.8948,-2.8988,-2.8935,-2.8921,-2.8908,-2.8961,-2.8881,-2.8711,-2.8604,-2.8577,-2.8366,-2.8286,-2.8245,-2.8299,-2.8245,-2.8272,-2.8286,-2.8245,-2.8192,-2.8192,-2.8192,-2.8192,-2.8192,-2.8192,-2.8192,-2.8192,-2.8192,-2.8192,-2.8192,-2.8192,-2.8108,-2.7728,-2.7558,-2.7474,-2.7135,-2.6868,-2.6783,-2.6783,-2.6796,-2.6741,-2.6273,-2.6018,-2.6018,-2.5598,-2.5331,-2.5343,-2.5126,-2.5005,-2.4981,-2.4776,-2.4607,-2.4656,-2.4656,-2.462,-2.4656,-2.4632,-2.462,-2.462,-2.462,-2.4595,-2.4583,-2.4571,-2.4499,-2.4487,-2.4499,-2.4511,-2.4458,-2.4458,-2.437,-2.4028,-2.3804,-2.3236,-2.211,-2.1475,-2.1249,-2.1295,-2.1393,-2.0134,-1.6817,-1.4529,-1.3004,-1.1655,-1.1101,-1.1118,-1.1139,-1.1123,-1.1101,-1.1096,-1.1069,-1.1085,-1.1079,-1.1041,-1.1009,-1.1058,-1.1079,-1.0933,-1.0771,-1.0775,-1.0742,-1.0742,-1.0742,-1.0742,-1.0742,-1.0742,-1.0701,-1.045,-0.8683,-0.7007,-0.5658,-0.3666,0.0,0.0,0.0,0.0,-2.9001,-2.9001,-2.9001,-2.9001,-2.9001,-2.9001,-2.9001,-2.8988,-2.8895,-2.8868,-2.8841,-2.8804,-2.8751,-2.8751,-2.8764,-2.8751,-2.8764,-2.8751,-2.8551,-2.8259,-2.8192,-2.8205,-2.8205,-2.8192,-2.8192,-2.8192,-2.8192,-2.8192,-2.8205,-2.8205,-2.8192,-2.8136,-2.8065,-2.7981,-2.7939,-2.7812,-2.7643,-2.7304,-2.7262,-2.7135,-2.6796,-2.6358,-2.6103,-2.6061,-2.5647,-2.5391,-2.5391,-2.5306,-2.527,-2.5258,-2.5186,-2.5138,-2.5138,-2.515,-2.5138,-2.5138,-2.5138,-2.515,-2.5114,-2.4969,-2.4873,-2.4836,-2.4745,-2.4595,-2.4583,-2.4607,-2.4607,-2.4595,-2.4583,-2.4542,-2.4418,-2.4128,-2.3738,-2.301,-2.2467,-2.1601,-2.0536,-1.9155,-1.6479,-1.3682,-1.3268,-1.2884,-1.1715,-1.1221,-1.1292,-1.1357,-1.1275,-1.1221,-1.1215,-1.1172,-1.1107,-1.1107,-1.1107,-1.1134,-1.1161,-1.1177,-1.1101,-1.1003,-1.096,-1.0911,-1.0927,-1.0933,-1.0901,-1.0906,-1.0954,-1.0832,-1.0577,-0.9715,-0.8033,-0.6078,-0.4182,0.0,0.0,0.0,0.0,-2.9322,-2.9322,-2.9366,-2.9322,-2.9322,-2.9322,-2.9322,-2.9339,-2.9259,-2.9205,-2.9192,-2.9041,-2.9001,-2.9001,-2.9001,-2.9001,-2.9001,-2.9001,-2.8845,-2.8524,-2.8513,-2.8513,-2.847,-2.8484,-2.8484,-2.847,-2.8484,-2.847,-2.8513,-2.847,-2.8473,-2.8379,-2.8353,-2.8286,-2.8205,-2.8192,-2.8023,-2.777,-2.777,-2.7643,-2.7304,-2.6868,-2.6613,-2.6528,-2.6018,-2.569,-2.5647,-2.5476,-2.5391,-2.5391,-2.5391,-2.5391,-2.5391,-2.5391,-2.5391,-2.5391,-2.5391,-2.5391,-2.5379,-2.5234,-2.515,-2.5114,-2.4981,-2.4885,-2.4885,-2.4885,-2.4885,-2.4885,-2.4897,-2.4885,-2.4855,-2.4729,-2.4382,-2.4172,-2.339,-2.2133,-2.0222,-1.8186,-1.5835,-1.3574,-1.2749,-1.2307,-1.1708,-1.139,-1.1434,-1.1471,-1.1417,-1.1373,-1.1362,-1.1313,-1.1264,-1.1237,-1.1259,-1.127,-1.1248,-1.1248,-1.1248,-1.1188,-1.1139,-1.1079,-1.1047,-1.1047,-1.1047,-1.1041,-1.1047,-1.1036,-1.0827,-1.0409,-0.9153,-0.7021,-0.4997,0.0,0.0,0.0,0.0,-2.9967,-2.9967,-2.9967,-2.9967,-2.9967,-2.9967,-2.9967,-2.9927,-2.9713,-2.9619,-2.9553,-2.9419,-2.9202,-2.9148,-2.9242,-2.9215,-2.9095,-2.9121,-2.9121,-2.9055,-2.9041,-2.9045,-2.8908,-2.8881,-2.8881,-2.8908,-2.8921,-2.8948,-2.8895,-2.8895,-2.8855,-2.8644,-2.8617,-2.8497,-2.8366,-2.8259,-2.8299,-2.8283,-2.8257,-2.8214,-2.8172,-2.7777,-2.7497,-2.7454,-2.6676,-2.614,-2.5976,-2.5647,-2.5391,-2.5391,-2.5391,-2.5391,-2.5391,-2.5391,-2.5391,-2.5391,-2.5391,-2.5391,-2.5391,-2.5367,-2.5355,-2.5343,-2.5331,-2.5391,-2.5318,-2.5282,-2.5282,-2.5294,-2.5318,-2.5343,-2.5331,-2.5288,-2.5245,-2.5215,-2.394,-2.2254,-2.0502,-1.8651,-1.6243,-1.439,-1.2781,-1.1521,-1.1537,-1.1537,-1.1542,-1.159,-1.1558,-1.1558,-1.1574,-1.1542,-1.1532,-1.1521,-1.1476,-1.1476,-1.1476,-1.1417,-1.1411,-1.1378,-1.1313,-1.1243,-1.1194,-1.1183,-1.1188,-1.1177,-1.1156,-1.1139,-1.1064,-1.0705,-0.9923,-0.8137,-0.6423,-0.4956,-0.3136,-0.1268,0.0,-3.0568,-3.0568,-3.0568,-3.0568,-3.0555,-3.0555,-3.0555,-3.0555,-3.0474,-3.0381,-3.0408,-3.0381,-3.0261,-3.0301,-3.0074,-3.002,-2.994,-2.978,-2.9642,-2.9686,-2.9686,-2.9419,-2.9068,-2.9001,-2.9015,-2.9028,-2.9055,-2.9001,-2.9001,-2.9041,-2.8975,-2.8895,-2.8881,-2.8885,-2.8804,-2.8764,-2.8804,-2.8804,-2.8791,-2.8778,-2.8691,-2.8389,-2.8038,-2.777,-2.723,-2.6644,-2.6128,-2.5647,-2.5391,-2.5391,-2.5391,-2.5391,-2.5391,-2.5391,-2.5391,-2.5391,-2.5391,-2.5391,-2.5391,-2.5391,-2.5391,-2.5391,-2.5391,-2.5391,-2.5391,-2.5391,-2.5391,-2.5391,-2.5391,-2.5403,-2.5403,-2.5415,-2.5487,-2.5392,-2.3761,-2.2096,-2.0759,-1.7936,-1.549,-1.4785,-1.2999,-1.2006,-1.1699,-1.1705,-1.1721,-1.1748,-1.1737,-1.1721,-1.1743,-1.1732,-1.1661,-1.1705,-1.1721,-1.1721,-1.1699,-1.1629,-1.158,-1.1552,-1.1493,-1.145,-1.1417,-1.1406,-1.1412,-1.1417,-1.1368,-1.1346,-1.1384,-1.1246,-1.0072,-0.8877,-0.6986,-0.5078,-0.3193,0.0,0.0,-3.0795,-3.0795,-3.0795,-3.0795,-3.0795,-3.0795,-3.0795,-3.0795,-3.0795,-3.0795,-3.0795,-3.0795,-3.0795,-3.0768,-3.0654,-3.0541,-3.056,-3.0368,-3.0287,-3.0287,-3.0287,-2.9953,-2.9495,-2.9362,-2.9362,-2.9362,-2.9362,-2.9375,-2.9375,-2.9362,-2.9339,-2.9245,-2.9188,-2.9121,-2.8975,-2.9001,-2.9001,-2.8988,-2.9001,-2.9001,-2.8958,-2.877,-2.8617,-2.8286,-2.7901,-2.7335,-2.6561,-2.6204,-2.5902,-2.5549,-2.5391,-2.5391,-2.5391,-2.5391,-2.5391,-2.5391,-2.5391,-2.5391,-2.5391,-2.5391,-2.5391,-2.5391,-2.5391,-2.5391,-2.5391,-2.5391,-2.5391,-2.5391,-2.5391,-2.5451,-2.556,-2.5644,-2.5386,-2.4663,-2.337,-2.2322,-2.1918,-1.9151,-1.6757,-1.5274,-1.353,-1.1997,-1.1865,-1.1824,-1.1846,-1.1862,-1.183,-1.1846,-1.1873,-1.1851,-1.1835,-1.1851,-1.1846,-1.1824,-1.1808,-1.1748,-1.1699,-1.1677,-1.165,-1.1563,-1.1554,-1.1537,-1.1515,-1.151,-1.1504,-1.1504,-1.1515,-1.1293,-1.0357,-0.8958,-0.7019,-0.5191,-0.3359,0.0,0.0,-3.0889,-3.0889,-3.0889,-3.0889,-3.0915,-3.0889,-3.0942,-3.0902,-3.0942,-3.0942,-3.0942,-3.0902,-3.0969,-3.0889,-3.0889,-3.0835,-3.0835,-3.0742,-3.0742,-3.0715,-3.0688,-3.0434,-3.006,-2.9927,-2.9913,-2.99,-2.994,-2.9873,-2.982,-2.9847,-2.9766,-2.9579,-2.9526,-2.9406,-2.9242,-2.9148,-2.9095,-2.9148,-2.9188,-2.9188,-2.9188,-2.9144,-2.9061,-2.8924,-2.847,-2.7933,-2.7353,-2.6959,-2.6524,-2.564,-2.5506,-2.5439,-2.5427,-2.5391,-2.5391,-2.5391,-2.5391,-2.5391,-2.5391,-2.5391,-2.5391,-2.5391,-2.5391,-2.5391,-2.5391,-2.5391,-2.5415,-2.5487,-2.5439,-2.5584,-2.5801,-2.6085,-2.5325,-2.4119,-2.3408,-2.3151,-2.2327,-2.074,-1.8482,-1.6,-1.3925,-1.2581,-1.2081,-1.1862,-1.1895,-1.1998,-1.1966,-1.1971,-1.1987,-1.1971,-1.1944,-1.1928,-1.1911,-1.1884,-1.1873,-1.1857,-1.1819,-1.1792,-1.1775,-1.171,-1.1652,-1.1619,-1.1581,-1.1575,-1.163,-1.1569,-1.1509,-1.1091,-1.0501,-0.9304,-0.7602,-0.5638,-0.3583,-0.1435,0.0,-3.149,-3.1537,-3.149,-3.1524,-3.1524,-3.1524,-3.1524,-3.151,-3.1463,-3.1436,-3.1463,-3.1524,-3.151,-3.1497,-3.1223,-3.1129,-3.1102,-3.0942,-3.0795,-3.0795,-3.0795,-3.0755,-3.0555,-3.0408,-3.0319,-3.0234,-3.002,-2.994,-2.994,-2.998,-2.99,-2.986,-2.9833,-2.9793,-2.9726,-2.9615,-2.9682,-2.9726,-2.97,-2.9673,-2.9673,-2.9615,-2.9579,-2.9362,-2.8798,-2.836,-2.7998,-2.7372,-2.6928,-2.6573,-2.6085,-2.5656,-2.5499,-2.5439,-2.5439,-2.5427,-2.5415,-2.5403,-2.5391,-2.5391,-2.5391,-2.5391,-2.5391,-2.5391,-2.5391,-2.5391,-2.5499,-2.5632,-2.5747,-2.5844,-2.6066,-2.6343,-2.5515,-2.4217,-2.3593,-2.3098,-2.1491,-1.9221,-1.7552,-1.6421,-1.4474,-1.2794,-1.2648,-1.2256,-1.2184,-1.217,-1.2159,-1.2107,-1.2091,-1.208,-1.2053,-1.202,-1.2025,-1.2009,-1.1998,-1.1982,-1.1944,-1.1917,-1.19,-1.1884,-1.1781,-1.1726,-1.1721,-1.1726,-1.1748,-1.1699,-1.1607,-1.1551,-1.1101,-0.9635,-0.8112,-0.6156,-0.4099,-0.18,0.0,-3.0843,-3.1677,-3.1724,-3.1724,-3.1724,-3.1724,-3.1724,-3.1724,-3.1724,-3.1724,-3.1724,-3.1724,-3.1724,-3.1711,-3.1517,-3.1436,-3.141,-3.1289,-3.1209,-3.1223,-3.1223,-3.1209,-3.1142,-3.0902,-3.0715,-3.0614,-3.0421,-3.0327,-3.0327,-3.0314,-3.0354,-3.0301,-3.0194,-3.0127,-3.0087,-3.0007,-2.99,-2.9887,-2.9913,-2.9913,-2.9913,-2.9913,-2.9873,-2.9713,-2.926,-2.896,-2.8397,-2.7998,-2.7389,-2.6866,-2.6411,-2.6042,-2.5868,-2.5752,-2.5704,-2.5596,-2.5572,-2.5499,-2.5439,-2.5391,-2.5391,-2.5403,-2.5403,-2.5391,-2.5391,-2.5391,-2.5451,-2.5596,-2.5728,-2.5921,-2.6319,-2.662,-2.5828,-2.4266,-2.31,-2.1886,-1.9983,-1.8387,-1.7404,-1.6771,-1.4879,-1.3563,-1.288,-1.255,-1.2261,-1.2192,-1.2192,-1.2187,-1.2192,-1.2181,-1.2187,-1.2176,-1.2192,-1.2192,-1.2134,-1.2107,-1.2069,-1.2053,-1.2042,-1.2036,-1.1998,-1.196,-1.1938,-1.1906,-1.1851,-1.1803,-1.1726,-1.1675,-1.1255,-0.9676,-0.8103,-0.6498,-0.4771,-0.2643,-0.1001,-2.9816,-3.1724,-3.1724,-3.1724,-3.1724,-3.1724,-3.1724,-3.1724,-3.1724,-3.1724,-3.1724,-3.1724,-3.1724,-3.1711,-3.1711,-3.1711,-3.1698,-3.1684,-3.1617,-3.1617,-3.1617,-3.1617,-3.1517,-3.1343,-3.1156,-3.0929,-3.0768,-3.0742,-3.0728,-3.0782,-3.0675,-3.0728,-3.0555,-3.0434,-3.0413,-3.0207,-3.0127,-3.014,-3.014,-3.0127,-3.0087,-3.006,-2.9993,-2.9828,-2.9802,-2.9475,-2.8924,-2.8475,-2.7988,-2.6982,-2.6746,-2.6568,-2.6399,-2.6218,-2.6134,-2.5861,-2.5849,-2.5776,-2.5644,-2.5572,-2.5547,-2.5475,-2.5463,-2.5427,-2.5415,-2.5403,-2.5451,-2.556,-2.574,-2.6029,-2.6487,-2.662,-2.5863,-2.4195,-2.224,-2.0243,-1.8609,-1.7919,-1.7204,-1.6737,-1.5153,-1.3817,-1.3163,-1.2739,-1.2456,-1.2219,-1.2219,-1.2219,-1.2219,-1.2219,-1.2219,-1.2219,-1.2219,-1.2219,-1.2214,-1.2209,-1.2129,-1.2123,-1.2181,-1.2181,-1.2181,-1.2102,-1.2042,-1.1971,-1.1911,-1.1879,-1.1857,-1.1841,-1.1049,-0.9567,-0.8431,-0.7288,-0.5511,-0.3509,-0.1978,-2.9829,-3.1724,-3.1724,-3.1724,-3.1724,-3.1724,-3.1724,-3.1724,-3.1724,-3.1724,-3.1724,-3.1724,-3.1724,-3.1724,-3.1724,-3.1724,-3.1724,-3.1724,-3.1724,-3.1724,-3.1724,-3.1724,-3.1698,-3.1644,-3.1517,-3.1396,-3.1116,-3.0875,-3.0849,-3.0795,-3.0902,-3.0822,-3.0755,-3.0728,-3.0715,-3.0662,-3.0568,-3.0528,-3.0541,-3.0555,-3.0515,-3.0381,-3.0194,-3.0034,-3.002,-2.9827,-2.9517,-2.8906,-2.8404,-2.8141,-2.7374,-2.693,-2.6459,-2.6148,-2.5946,-2.6182,-2.6158,-2.6066,-2.5969,-2.5993,-2.5953,-2.5788,-2.5716,-2.5608,-2.5487,-2.5396,-2.5431,-2.55,-2.5703,-2.6062,-2.6222,-2.5822,-2.5403,-2.3788,-2.1995,-2.0171,-1.8496,-1.711,-1.613,-1.5795,-1.4832,-1.4099,-1.3582,-1.3069,-1.2644,-1.2361,-1.2267,-1.2219,-1.2219,-1.2219,-1.2219,-1.2219,-1.2219,-1.2219,-1.2219,-1.2219,-1.2203,-1.2203,-1.2203,-1.2203,-1.2209,-1.2214,-1.217,-1.2053,-1.2036,-1.2036,-1.2009,-1.1971,-1.1655,-1.0801,-0.9552,-0.827,-0.6539,-0.4748,-0.2552,-2.7262,-3.002,-3.0115,-3.0747,-3.1569,-3.1724,-3.1724,-3.1724,-3.1724,-3.1724,-3.1724,-3.1724,-3.1724,-3.1724,-3.1724,-3.1724,-3.1724,-3.1724,-3.1724,-3.1724,-3.1724,-3.1724,-3.1677,-3.1677,-3.1724,-3.1644,-3.137,-3.1176,-3.1249,-3.131,-3.1069,-3.1209,-3.1116,-3.1009,-3.0969,-3.0849,-3.0729,-3.0716,-3.067,-3.0716,-3.0749,-3.0635,-3.0442,-3.0408,-3.0309,-3.0231,-2.9958,-2.9684,-2.9013,-2.8215,-2.6888,-2.604,-2.5286,-2.4618,-2.4486,-2.5837,-2.6302,-2.6319,-2.621,-2.6174,-2.6146,-2.6017,-2.5981,-2.5933,-2.588,-2.5781,-2.5477,-2.4797,-2.4569,-2.4329,-2.3365,-2.3487,-2.3363,-2.3304,-2.1766,-2.0288,-1.9195,-1.7558,-1.6322,-1.534,-1.4725,-1.4322,-1.4052,-1.3487,-1.2928,-1.2597,-1.2361,-1.2267,-1.2219,-1.2219,-1.2219,-1.2219,-1.2219,-1.2219,-1.2219,-1.2219,-1.2219,-1.2219,-1.2219,-1.2219,-1.2219,-1.2219,-1.2219,-1.2192,-1.2192,-1.2181,-1.2176,-1.208,-1.2042,-1.2009,-1.1066,-0.9797,-0.7968,-0.5997,-0.3925,-2.5416,-2.9243,-2.9243,-3.0163,-3.1569,-3.1724,-3.1724,-3.1724,-3.1791,-3.1818,-3.1757,-3.177,-3.177,-3.1744,-3.1751,-3.1724,-3.1724,-3.1724,-3.1724,-3.1569,-3.1093,-3.1093,-3.1569,-3.1189,-3.089,-3.0687,-3.0756,-3.108,-3.0764,-3.0717,-3.0721,-2.9953,-2.9942,-3.0067,-2.9686,-2.9243,-2.9746,-2.9733,-2.9733,-2.9814,-3.018,-3.026,-3.0512,-3.0795,-3.0795,-3.0571,-3.03,-3.0057,-2.9031,-2.7753,-2.6237,-2.4816,-2.3591,-2.2069,-2.2616,-2.5003,-2.5838,-2.5955,-2.5893,-2.6367,-2.6423,-2.6283,-2.6303,-2.6278,-2.6194,-2.5958,-2.5422,-2.3886,-2.3443,-2.2765,-2.1517,-2.0801,-2.1428,-2.184,-2.1044,-1.986,-1.9599,-1.8483,-1.6726,-1.5757,-1.4979,-1.4503,-1.4281,-1.377,-1.3211,-1.2692,-1.2456,-1.2267,-1.2219,-1.2219,-1.2219,-1.2219,-1.2219,-1.2219,-1.2219,-1.2219,-1.2219,-1.2219,-1.2219,-1.2219,-1.2219,-1.2219,-1.2219,-1.2219,-1.2219,-1.2209,-1.2219,-1.2219,-1.217,-1.2107,-1.2203,-1.1107,-0.8884,-0.7319,-0.5706,-2.7551,-3.1284,-3.1223,-3.1474,-3.1677,-3.1738,-3.1738,-3.1778,-3.1957,-3.2051,-3.2051,-3.2051,-3.2051,-3.2011,-3.181,-3.1764,-3.1764,-3.1805,-3.1831,-3.1641,-3.0226,-3.0166,-3.1046,-2.9673,-2.9099,-2.8943,-2.8943,-2.8955,-2.8752,-2.8752,-2.808,-2.7035,-2.688,-2.6375,-2.7003,-2.6994,-2.6112,-2.6234,-2.632,-2.6996,-2.8162,-2.8396,-2.919,-3.01,-3.0419,-3.026,-2.9995,-2.9762,-2.8883,-2.6619,-2.5789,-2.4219,-2.236,-2.1754,-2.1546,-2.2383,-2.3276,-2.4376,-2.4492,-2.5592,-2.639,-2.6214,-2.6268,-2.6371,-2.5754,-2.5495,-2.483,-2.3542,-2.3108,-2.1884,-2.0174,-2.0084,-2.0488,-2.0157,-1.9419,-1.9454,-1.9643,-1.8647,-1.6987,-1.6219,-1.5422,-1.4899,-1.4523,-1.3964,-1.3446,-1.2975,-1.255,-1.2361,-1.2219,-1.2219,-1.2219,-1.2219,-1.2219,-1.2219,-1.2219,-1.2219,-1.2219,-1.2219,-1.2219,-1.2219,-1.2219,-1.2219,-1.2219,-1.2219,-1.2219,-1.2219,-1.2219,-1.2219,-1.2219,-1.2219,-1.2219,-1.1075,-0.9453,-0.8218,-0.7169,-2.5464,-2.8176,-2.8224,-2.9677,-3.1808,-3.1917,-3.2011,-3.2219,-3.234,-3.2407,-3.2407,-3.2407,-3.2407,-3.2305,-3.2246,-3.2219,-3.2219,-3.2096,-3.2219,-3.1487,-2.9938,-2.9272,-2.938,-2.8007,-2.6865,-2.6851,-2.6684,-2.59,-2.5851,-2.6249,-2.6238,-2.5561,-2.5416,-2.5695,-2.5076,-2.5416,-2.5561,-2.5599,-2.5647,-2.5893,-2.6441,-2.6695,-2.6984,-2.7783,-2.7914,-2.7961,-2.8103,-2.8884,-2.7795,-2.5666,-2.4652,-2.3154,-2.0667,-1.9111,-1.8112,-1.8256,-1.9914,-2.1301,-2.2442,-2.4223,-2.507,-2.5286,-2.515,-2.4551,-2.3774,-2.3369,-2.2573,-2.0396,-2.0206,-1.9355,-1.7883,-1.7171,-1.7907,-1.8048,-1.7931,-1.848,-1.8836,-1.8097,-1.7069,-1.6466,-1.5901,-1.5302,-1.4783,-1.444,-1.3907,-1.3352,-1.288,-1.2503,-1.2314,-1.2219,-1.2219,-1.2219,-1.2219,-1.2219,-1.2219,-1.2219,-1.2219,-1.2219,-1.2219,-1.2219,-1.2219,-1.2219,-1.2219,-1.2219,-1.2219,-1.2219,-1.2219,-1.2219,-1.2219,-1.2219,-1.2219,-1.1264,-1.0361,-0.9169,-0.7646,-2.3219,-2.5599,-2.6133,-2.8668,-3.215,-3.2211,-3.238,-3.2532,-3.1976,-3.2149,-3.2443,-3.2149,-3.2025,-3.2301,-3.1969,-3.1428,-3.1676,-3.18,-3.1346,-3.0363,-2.8931,-2.7784,-2.7346,-2.6076,-2.4887,-2.4855,-2.4879,-2.3798,-2.2856,-2.2984,-2.3747,-2.3969,-2.3336,-2.3579,-2.3823,-2.3579,-2.3433,-2.3433,-2.3482,-2.391,-2.4581,-2.4716,-2.5104,-2.5443,-2.5513,-2.5513,-2.5755,-2.6795,-2.6334,-2.3891,-2.306,-2.1507,-1.8786,-1.7239,-1.6376,-1.6528,-1.7677,-1.8511,-1.9997,-2.1691,-2.3276,-2.3991,-2.4075,-2.3838,-2.2602,-2.1527,-2.0289,-1.8593,-1.8401,-1.7164,-1.553,-1.5114,-1.5917,-1.6771,-1.6987,-1.7468,-1.7733,-1.72,-1.7197,-1.7259,-1.6554,-1.5595,-1.5153,-1.4909,-1.4431,-1.3795,-1.3258,-1.2739,-1.2456,-1.2219,-1.2219,-1.2219,-1.2219,-1.2219,-1.2219,-1.2219,-1.2219,-1.2219,-1.2219,-1.2219,-1.2219,-1.2219,-1.2219,-1.2219,-1.2219,-1.2219,-1.2219,-1.2219,-1.2219,-1.2219,-1.2219,-1.2219,-1.1458,-1.0172,-0.8364,-2.2106,-2.6043,-2.7912,-3.0127,-3.2505,-3.2554,-3.2532,-3.2541,-3.0851,-3.1286,-3.2303,-3.0976,-3.08,-3.1511,-3.0403,-2.9589,-2.9541,-2.9516,-2.8675,-2.6827,-2.4657,-2.5047,-2.4966,-2.4347,-2.3038,-2.3038,-2.3,-2.1768,-2.0425,-2.0582,-2.0388,-1.9824,-2.0843,-2.0145,-2.0235,-2.0817,-2.0718,-2.0669,-2.0669,-2.1348,-2.2172,-2.275,-2.3384,-2.4737,-2.527,-2.5464,-2.5416,-2.5561,-2.4425,-2.1502,-2.1445,-2.0124,-1.7686,-1.6468,-1.5976,-1.6055,-1.6174,-1.6765,-1.7583,-1.9763,-2.2153,-2.3535,-2.3765,-2.3005,-2.1816,-2.1371,-2.0085,-1.805,-1.7554,-1.6968,-1.5849,-1.5404,-1.56,-1.5879,-1.6423,-1.6847,-1.6939,-1.6421,-1.6596,-1.7537,-1.7161,-1.5952,-1.5479,-1.5233,-1.4603,-1.3916,-1.3069,-1.255,-1.2408,-1.2219,-1.2219,-1.2219,-1.2219,-1.2219,-1.2219,-1.2219,-1.2219,-1.2219,-1.2219,-1.2219,-1.2219,-1.2219,-1.2219,-1.2219,-1.2219,-1.2219,-1.2219,-1.2219,-1.2219,-1.2219,-1.2219,-1.2219,-1.1647,-1.0361,-0.8696,-2.138,-2.4498,-2.6649,-2.96,-3.2763,-3.1406,-3.1707,-3.2868,-3.229,-3.1528,-3.1064,-2.9116,-2.8363,-2.8735,-2.8523,-2.7818,-2.7818,-2.7818,-2.7089,-2.6086,-2.4719,-2.389,-2.3548,-2.2411,-2.0983,-2.1102,-2.0992,-2.0773,-1.9889,-1.9687,-1.9662,-1.9607,-1.9436,-1.9379,-1.9314,-1.9314,-1.9314,-1.9314,-1.9314,-1.9898,-2.0087,-2.0522,-2.0866,-2.1496,-2.1692,-2.1692,-2.1781,-2.2994,-2.1879,-2.075,-2.0545,-1.9026,-1.731,-1.6523,-1.6148,-1.6037,-1.6024,-1.594,-1.6202,-1.8175,-1.9954,-2.0336,-2.0541,-2.0321,-1.9806,-1.8173,-1.7475,-1.6608,-1.662,-1.6175,-1.5849,-1.5499,-1.5609,-1.5642,-1.5932,-1.6334,-1.6355,-1.5959,-1.5953,-1.6918,-1.6661,-1.5862,-1.5669,-1.5566,-1.4815,-1.4031,-1.3133,-1.2414,-1.23,-1.2241,-1.2247,-1.2236,-1.2236,-1.2219,-1.2219,-1.2219,-1.2219,-1.2219,-1.2219,-1.2219,-1.2219,-1.2219,-1.2219,-1.2219,-1.2219,-1.2219,-1.2219,-1.2219,-1.2219,-1.2219,-1.2219,-1.2219,-1.1411,-1.0503,-0.9173,-2.1077,-2.3336,-2.432,-2.7638,-3.1688,-3.1189,-3.134,-3.2158,-3.1554,-3.0242,-2.8161,-2.6568,-2.6363,-2.6619,-2.6096,-2.5881,-2.586,-2.582,-2.5379,-2.4292,-2.2984,-2.2476,-2.1816,-2.1106,-2.0303,-1.9946,-1.9938,-1.9946,-1.9873,-1.9916,-1.9859,-1.9703,-1.9615,-1.9443,-1.9337,-1.933,-1.9314,-1.9314,-1.9314,-1.9314,-1.9363,-1.9404,-1.9404,-1.9602,-1.9701,-1.975,-2.0038,-2.0817,-2.066,-1.9832,-1.9429,-1.9034,-1.7855,-1.6821,-1.6325,-1.6182,-1.6133,-1.6133,-1.6553,-1.7565,-1.86,-1.9077,-1.8916,-1.8034,-1.6708,-1.5855,-1.5903,-1.5718,-1.567,-1.5607,-1.5683,-1.571,-1.5771,-1.5888,-1.5928,-1.6251,-1.6236,-1.6003,-1.5983,-1.6222,-1.5906,-1.5886,-1.5594,-1.5436,-1.4722,-1.3945,-1.3116,-1.2532,-1.2383,-1.2314,-1.2301,-1.2279,-1.2252,-1.2236,-1.2219,-1.2225,-1.223,-1.2219,-1.2219,-1.2219,-1.2219,-1.2219,-1.2219,-1.2219,-1.2219,-1.2219,-1.2219,-1.2219,-1.2219,-1.2219,-1.2219,-1.2219,-1.203,-1.1169,-1.0172,-2.1311,-2.2956,-2.1414,-2.4454,-2.9965,-3.2321,-3.1869,-3.0052,-2.815,-2.6209,-2.4535,-2.3864,-2.4679,-2.5594,-2.4267,-2.3709,-2.3658,-2.3606,-2.2944,-2.1535,-2.1259,-2.0652,-2.054,-2.0299,-2.0198,-2.0288,-2.0239,-2.0141,-2.006,-2.0104,-2.0014,-1.9873,-1.9784,-1.9662,-1.9508,-1.9387,-1.9322,-1.9314,-1.9322,-1.9314,-1.9314,-1.9314,-1.9314,-1.9314,-1.9314,-1.9314,-1.9454,-1.9602,-1.9544,-1.9149,-1.8853,-1.835,-1.731,-1.697,-1.6573,-1.6133,-1.6133,-1.6133,-1.6261,-1.7822,-1.8276,-1.8198,-1.7966,-1.7776,-1.772,-1.6869,-1.5635,-1.5635,-1.5634,-1.5744,-1.5798,-1.5908,-1.599,-1.6037,-1.6071,-1.6092,-1.6119,-1.6133,-1.6085,-1.6064,-1.6098,-1.6006,-1.5661,-1.525,-1.4581,-1.3854,-1.3077,-1.2655,-1.2471,-1.2428,-1.2357,-1.2335,-1.2303,-1.2259,-1.2296,-1.2252,-1.2236,-1.2225,-1.2219,-1.2219,-1.2219,-1.2219,-1.2219,-1.2219,-1.2219,-1.2219,-1.2219,-1.2219,-1.2219,-1.2219,-1.2219,-1.2172,-1.2125,-1.1883,-1.0933,-2.0538,-2.1354,-2.2149,-2.3761,-2.581,-2.6568,-2.7232,-2.7538,-2.5758,-2.4277,-2.34,-2.2218,-2.1656,-2.2063,-2.2115,-2.1552,-2.15,-2.1397,-2.0572,-2.0476,-2.0268,-2.032,-2.0268,-2.0268,-2.0268,-2.0268,-2.0312,-2.0304,-2.0239,-2.0214,-2.0206,-2.0133,-1.9995,-1.9924,-1.9695,-1.9532,-1.9435,-1.9402,-1.9337,-1.9314,-1.9314,-1.9322,-1.933,-1.933,-1.9338,-1.9338,-1.933,-1.933,-1.9173,-1.896,-1.8754,-1.821,-1.7466,-1.7218,-1.6672,-1.6232,-1.6133,-1.6133,-1.6175,-1.68,-1.6919,-1.6973,-1.704,-1.7037,-1.6648,-1.6307,-1.5882,-1.5805,-1.5852,-1.5927,-1.5995,-1.6051,-1.6092,-1.6098,-1.6112,-1.6119,-1.6133,-1.6133,-1.6112,-1.6112,-1.6126,-1.6133,-1.585,-1.5185,-1.4539,-1.398,-1.3239,-1.2781,-1.2542,-1.252,-1.2477,-1.2471,-1.2444,-1.2379,-1.233,-1.2303,-1.2259,-1.2237,-1.2252,-1.2219,-1.2219,-1.223,-1.2219,-1.2219,-1.2219,-1.2219,-1.2219,-1.2219,-1.2219,-1.2219,-1.2219,-1.2219,-1.2172,-1.2172,-1.1936,-2.0223,-2.0468,-2.1864,-2.2477,-2.2736,-2.4071,-2.5286,-2.5338,-2.3451,-2.2477,-2.2072,-2.0885,-2.0424,-2.0372,-2.0268,-2.0268,-2.0268,-2.032,-2.032,-2.0268,-2.0268,-2.0268,-2.0268,-2.0268,-2.0268,-2.0268,-2.0268,-2.026,-2.0252,-2.0268,-2.0304,-2.0263,-2.0206,-2.0109,-1.9938,-1.9784,-1.9613,-1.9581,-1.9524,-1.9534,-1.9525,-1.9517,-1.9459,-1.9517,-1.9501,-1.9485,-1.9428,-1.9387,-1.9371,-1.9239,-1.8968,-1.8514,-1.8019,-1.7474,-1.6921,-1.6523,-1.6182,-1.6182,-1.6126,-1.6175,-1.6347,-1.629,-1.6024,-1.599,-1.5983,-1.6032,-1.5983,-1.5967,-1.6035,-1.6056,-1.6076,-1.6133,-1.6133,-1.6133,-1.6133,-1.6133,-1.6133,-1.6133,-1.6133,-1.6133,-1.6133,-1.6133,-1.5977,-1.5224,-1.4489,-1.3988,-1.3452,-1.3033,-1.2629,-1.2613,-1.2596,-1.2542,-1.2509,-1.2487,-1.2444,-1.2428,-1.2373,-1.2308,-1.227,-1.2285,-1.2258,-1.2274,-1.2247,-1.2219,-1.2219,-1.2219,-1.2219,-1.2219,-1.2219,-1.2219,-1.2219,-1.2219,-1.2219,-1.2219,-1.2219,-2.0268,-2.0268,-2.032,-2.0424,-2.1041,-2.437,-2.5142,-2.3348,-2.1301,-2.0476,-2.0372,-2.0424,-2.0268,-2.0268,-2.0268,-2.0268,-2.0268,-2.0268,-2.0268,-2.0268,-2.0268,-2.0268,-2.0268,-2.0268,-2.0268,-2.0268,-2.0268,-2.0268,-2.0268,-2.0268,-2.0268,-2.0268,-2.0296,-2.0247,-2.0141,-2.0011,-1.9841,-1.9792,-1.9719,-1.9687,-1.967,-1.9719,-1.9695,-1.9687,-1.9687,-1.963,-1.9573,-1.9524,-1.9451,-1.9378,-1.9263,-1.8942,-1.853,-1.7977,-1.7474,-1.6871,-1.6331,-1.6182,-1.6133,-1.6133,-1.6133,-1.6133,-1.6119,-1.6069,-1.6062,-1.6085,-1.6078,-1.6085,-1.6119,-1.6126,-1.6133,-1.6133,-1.6133,-1.6133,-1.6133,-1.6133,-1.6133,-1.6133,-1.6133,-1.6133,-1.6133,-1.6083,-1.5977,-1.533,-1.4626,-1.4209,-1.372,-1.3173,-1.2814,-1.2732,-1.2716,-1.2705,-1.2656,-1.2531,-1.2499,-1.2536,-1.2487,-1.2422,-1.239,-1.2405,-1.2367,-1.2339,-1.2275,-1.2254,-1.2241,-1.2219,-1.2219,-1.2219,-1.2219,-1.2219,-1.2219,-1.2219,-1.2219,-1.2219,-1.2125,-2.0268,-2.0268,-2.0268,-2.0268,-2.0476,-2.1708,-2.1812,-2.1145,-2.0476,-2.0268,-2.0268,-2.0268,-2.0268,-2.0268,-2.0268,-2.0268,-2.0268,-2.0268,-2.0268,-2.0268,-2.0268,-2.0268,-2.0268,-2.0268,-2.0268,-2.0268,-2.0268,-2.0268,-2.0268,-2.0268,-2.0268,-2.0268,-2.0268,-2.0268,-2.0288,-2.0214,-2.0101,-1.9987,-1.989,-1.9857,-1.9833,-1.9841,-1.9833,-1.9841,-1.9841,-1.9776,-1.9735,-1.9711,-1.9654,-1.963,-1.9622,-1.9346,-1.8644,-1.8136,-1.7514,-1.6438,-1.6182,-1.6133,-1.6133,-1.6133,-1.6133,-1.6133,-1.6133,-1.6133,-1.6133,-1.6133,-1.6133,-1.6133,-1.6133,-1.6133,-1.6133,-1.6133,-1.6133,-1.6133,-1.6133,-1.6133,-1.6133,-1.6133,-1.6133,-1.6133,-1.6133,-1.6083,-1.5977,-1.5529,-1.4881,-1.4433,-1.3983,-1.3434,-1.3029,-1.2885,-1.2808,-1.2792,-1.2776,-1.2705,-1.2672,-1.2656,-1.2596,-1.2542,-1.2509,-1.2482,-1.2466,-1.2433,-1.2384,-1.2335,-1.2286,-1.2274,-1.2219,-1.223,-1.2258,-1.2225,-1.2219,-1.2219,-1.2219,-1.2219,-1.2219,-2.0268,-2.0268,-2.0268,-2.0268,-2.0268,-2.0268,-2.0268,-2.0268,-2.0268,-2.0268,-2.0268,-2.0268,-2.0268,-2.0268,-2.0268,-2.0268,-2.0268,-2.0268,-2.0268,-2.0268,-2.0268,-2.0268,-2.0268,-2.0268,-2.0268,-2.0268,-2.0268,-2.0268,-2.0268,-2.0268,-2.0268,-2.0268,-2.0268,-2.0268,-2.0312,-2.0288,-2.0255,-2.0166,-2.0076,-2.0011,-1.9987,-1.9987,-1.9995,-1.9979,-1.9979,-1.9955,-1.9906,-1.9898,-1.9873,-1.9808,-1.9792,-1.965,-1.8951,-1.8401,-1.7436,-1.6471,-1.6153,-1.6139,-1.6133,-1.6133,-1.6133,-1.6133,-1.6133,-1.6133,-1.6133,-1.6133,-1.6133,-1.6133,-1.6133,-1.6133,-1.6133,-1.6133,-1.6133,-1.6133,-1.6133,-1.6133,-1.6133,-1.6133,-1.6133,-1.6133,-1.6133,-1.6133,-1.5877,-1.5529,-1.518,-1.4782,-1.4283,-1.369,-1.329,-1.3023,-1.2907,-1.2852,-1.2852,-1.2835,-1.2797,-1.2759,-1.2732,-1.2683,-1.2634,-1.2613,-1.2602,-1.2499,-1.2477,-1.2428,-1.2384,-1.2324,-1.227,-1.2301,-1.2307,-1.2274,-1.2247,-1.2236,-1.223,-1.2219,-1.2219,-2.0268,-2.0268,-2.0268,-2.0268,-2.0268,-2.0268,-2.0268,-2.0268,-2.0268,-2.0268,-2.0268,-2.0268,-2.0268,-2.0268,-2.0268,-2.0268,-2.0268,-2.0268,-2.0268,-2.0268,-2.0268,-2.0268,-2.0268,-2.0268,-2.0268,-2.0268,-2.0268,-2.0268,-2.0268,-2.0268,-2.0268,-2.0268,-2.0268,-2.0268,-2.0268,-2.0268,-2.0296,-2.0271,-2.0255,-2.0231,-2.0263,-2.0296,-2.0268,-2.0296,-2.0271,-2.0231,-2.0125,-2.0052,-2.0003,-1.9898,-1.9849,-1.9806,-1.9311,-1.8594,-1.7459,-1.676,-1.6383,-1.6171,-1.6151,-1.6137,-1.6103,-1.6096,-1.6133,-1.6133,-1.6133,-1.6133,-1.6133,-1.6133,-1.6133,-1.6133,-1.6133,-1.6133,-1.6133,-1.6133,-1.6133,-1.6133,-1.6133,-1.6133,-1.6133,-1.6133,-1.6133,-1.6133,-1.6033,-1.5685,-1.5429,-1.513,-1.4582,-1.3939,-1.349,-1.319,-1.299,-1.289,-1.2884,-1.2879,-1.2868,-1.2841,-1.2857,-1.2825,-1.2759,-1.2738,-1.2721,-1.2645,-1.2504,-1.252,-1.2487,-1.2444,-1.2401,-1.2379,-1.2346,-1.2308,-1.2275,-1.2221,-1.2252,-1.2258,-1.223,-2.0268,-2.0268,-2.0268,-2.0268,-2.0268,-2.0268,-2.0268,-2.0268,-2.0268,-2.0268,-2.0268,-2.0268,-2.0268,-2.0268,-2.0268,-2.0268,-2.0268,-2.0268,-2.0268,-2.0268,-2.0268,-2.0268,-2.0268,-2.0268,-2.0268,-2.0268,-2.0268,-2.0268,-2.0268,-2.0268,-2.0268,-2.0268,-2.0268,-2.0268,-2.0268,-2.0268,-2.0268,-2.0268,-2.0268,-2.0268,-2.0268,-2.0268,-2.0268,-2.0268,-2.0304,-2.0304,-2.0239,-2.0239,-2.0231,-2.0198,-2.0198,-1.9919,-1.9379,-1.8595,-1.7858,-1.7233,-1.6669,-1.6384,-1.6279,-1.6246,-1.6218,-1.6137,-1.6153,-1.6139,-1.6133,-1.6133,-1.6133,-1.6133,-1.6133,-1.6133,-1.6133,-1.6133,-1.6133,-1.6133,-1.6133,-1.6133,-1.6133,-1.6133,-1.6133,-1.6133,-1.6133,-1.6083,-1.6083,-1.5934,-1.5678,-1.528,-1.4775,-1.4183,-1.3684,-1.329,-1.299,-1.289,-1.289,-1.289,-1.289,-1.289,-1.289,-1.289,-1.2835,-1.283,-1.2835,-1.2754,-1.2661,-1.2629,-1.2596,-1.2558,-1.2526,-1.2504,-1.2466,-1.2406,-1.2384,-1.2352,-1.2324,-1.2372,-1.2301,-2.0268,-2.0268,-2.0268,-2.0268,-2.0268,-2.0268,-2.0268,-2.0268,-2.0268,-2.0268,-2.0268,-2.0268,-2.0268,-2.0268,-2.0268,-2.0268,-2.0268,-2.0268,-2.0268,-2.0268,-2.0268,-2.0268,-2.0268,-2.0268,-2.0268,-2.0268,-2.0268,-2.0268,-2.0268,-2.0268,-2.0268,-2.0268,-2.0268,-2.0268,-2.0268,-2.0268,-2.0268,-2.0268,-2.0268,-2.0268,-2.0268,-2.0268,-2.0268,-2.0268,-2.0268,-2.0268,-2.0268,-2.0268,-2.032,-2.0312,-2.0296,-1.9959,-1.9425,-1.8718,-1.8078,-1.747,-1.6909,-1.649,-1.6429,-1.6388,-1.6361,-1.6286,-1.6266,-1.6307,-1.6205,-1.6198,-1.6137,-1.613,-1.6139,-1.6133,-1.6133,-1.6133,-1.6133,-1.6133,-1.6133,-1.6133,-1.6133,-1.6133,-1.6133,-1.6133,-1.6133,-1.6133,-1.6083,-1.6083,-1.5827,-1.5678,-1.513,-1.4526,-1.3983,-1.344,-1.314,-1.289,-1.289,-1.289,-1.289,-1.289,-1.289,-1.289,-1.289,-1.2879,-1.2857,-1.2825,-1.2776,-1.2743,-1.2716,-1.2689,-1.2656,-1.2623,-1.2509,-1.2444,-1.2444,-1.2444,-1.2466,-1.2433,-1.239,-2.0268,-2.0268,-2.0268,-2.0268,-2.0268,-2.0268,-2.0268,-2.0268,-2.0268,-2.0268,-2.0268,-2.0268,-2.0268,-2.0268,-2.0268,-2.0268,-2.0268,-2.0268,-2.0268,-2.0268,-2.0268,-2.0268,-2.0268,-2.0268,-2.0268,-2.0268,-2.0268,-2.0268,-2.0268,-2.0268,-2.0268,-2.0268,-2.0268,-2.0268,-2.0268,-2.0268,-2.0268,-2.0268,-2.0268,-2.0268,-2.0268,-2.0268,-2.0268,-2.0268,-2.0268,-2.0268,-2.0268,-2.0268,-2.0268,-2.0216,-2.0164,-1.9843,-1.9334,-1.8707,-1.8151,-1.7583,-1.701,-1.6677,-1.6564,-1.6551,-1.6524,-1.651,-1.6524,-1.6476,-1.6368,-1.6307,-1.6246,-1.6198,-1.6151,-1.6139,-1.6139,-1.6133,-1.6133,-1.6133,-1.6133,-1.6133,-1.6133,-1.6133,-1.6133,-1.6133,-1.6133,-1.6133,-1.6133,-1.6133,-1.6033,-1.5834,-1.5479,-1.4931,-1.4333,-1.3734,-1.324,-1.304,-1.289,-1.289,-1.289,-1.289,-1.289,-1.289,-1.289,-1.289,-1.2884,-1.2857,-1.2846,-1.2863,-1.2835,-1.2786,-1.2765,-1.2738,-1.2667,-1.2558,-1.264,-1.2651,-1.258,-1.2547,-1.2488,-2.0268,-2.0268,-2.0268,-2.0268,-2.0268,-2.0268,-2.0268,-2.0268,-2.0268,-2.0268,-2.0268,-2.0268,-2.0268,-2.0268,-2.0268,-2.0268,-2.0268,-2.0268,-2.0268,-2.0268,-2.0268,-2.0268,-2.0268,-2.0268,-2.0268,-2.0268,-2.0268,-2.0268,-2.0268,-2.0268,-2.0268,-2.0268,-2.0268,-2.0268,-2.0268,-2.0268,-2.0268,-2.0268,-2.0268,-2.0268,-2.0268,-2.0268,-2.0268,-2.0268,-2.0268,-2.0268,-2.0268,-2.0268,-2.0268,-2.0164,-1.9955,-1.9702,-1.9208,-1.8604,-1.8008,-1.7673,-1.7148,-1.684,-1.6741,-1.6714,-1.6686,-1.6598,-1.6592,-1.6564,-1.6497,-1.6483,-1.6429,-1.6374,-1.63,-1.6151,-1.6117,-1.6139,-1.6133,-1.6133,-1.6133,-1.6133,-1.6133,-1.6133,-1.6133,-1.6133,-1.6133,-1.6133,-1.6133,-1.6133,-1.6133,-1.5884,-1.5578,-1.5031,-1.4632,-1.3983,-1.339,-1.319,-1.299,-1.289,-1.289,-1.289,-1.289,-1.289,-1.289,-1.289,-1.289,-1.289,-1.289,-1.289,-1.289,-1.2857,-1.2841,-1.2814,-1.2814,-1.2776,-1.2814,-1.2814,-1.2727,-1.2667,-1.2607]},{"header":{"parameterUnit":"m.s-1","parameterCategory":1,"la1":31.0,"la2":29.5877,"lo1":-88.7671,"lo2":-86.6584,"dy":0.0162,"dx":0.0185,"nx":115,"ny":88,"refTime":"2023-10-20T18:00:00:Z","depth":0,"parameterNumber":3,"parameterNumberName":"V-component_of_WINDS"},"data":[0.0,0.0,0.0,0.0,0.0,0.0,0.0,0.0,0.0,0.0,0.0,0.0,0.0,0.0,0.0,0.0,0.0,0.0,0.0,0.0,0.0,0.0,0.0,0.0,0.0,0.0,0.0,0.0,0.0,0.0,0.0,0.0,0.0,0.0,0.0,0.0,0.0,0.0,0.0,0.0,0.0,0.0,0.0,0.0,0.0,0.0,0.0,0.0,0.0,0.0,0.0,0.0,0.0,0.0,0.0,0.0,0.0,0.0,0.0,0.0,0.0,0.0,0.0,0.0,0.0,0.0,0.0,0.0,0.0,0.0,0.0,0.0,0.0,0.0,0.0,0.0,0.0,0.0,0.0,0.0,0.0,0.0,0.0,0.0,0.0,0.0,0.0,0.0,0.0,0.0,0.0,0.0,0.0,0.0,0.0,0.0,0.0,0.0,0.0,0.0,0.0,0.0,0.0,0.0,0.0,0.0,0.0,0.0,0.0,0.0,0.0,0.0,0.0,0.0,0.0,0.0,0.0,0.0,0.0,0.0,0.0,0.0,0.0,0.0,0.0,0.0,0.0,0.0,0.0,0.0,0.0,0.0,0.0,0.0,0.0,0.0,0.0,0.0,0.0,0.0,0.0,0.0,0.0,0.0,0.0,0.0,0.0,0.0,0.0,0.0,0.0,0.0,0.0,0.0,0.0,0.0,0.0,0.0,0.0,0.0,0.0,0.0,0.0,0.0,0.0,0.0,0.0,0.0,0.0,0.0,0.0,0.0,0.0,0.0,0.0,0.0,0.0,0.0,0.0,0.0,0.0,0.0,0.0,0.0,0.0,0.0,0.0,0.0,0.0,0.0,0.0,0.0,0.0,0.0,0.0,0.0,0.0,0.0,0.0,0.0,0.0,0.0,0.0,0.0,0.0,0.0,0.0,0.0,0.0,0.0,0.0,0.0,0.0,0.0,0.0,0.0,0.0,0.0,0.0,0.0,0.0,0.0,0.0,0.0,0.0,0.0,0.0,0.0,0.0,0.0,0.0,0.0,0.0,0.0,0.0,0.0,0.0,0.0,0.0,0.0,0.0,0.0,0.0,0.0,0.0,0.0,0.0,0.0,0.0,0.0,0.0,0.0,0.0,0.0,0.0,0.0,0.0,0.0,0.0,0.0,0.0,0.0,0.0,0.0,0.0,0.0,0.0,0.0,0.0,0.0,0.0,0.0,0.0,0.0,0.0,0.0,0.0,0.0,0.0,0.0,0.0,0.0,0.0,0.0,0.0,0.0,0.0,0.0,0.0,0.0,0.0,0.0,0.0,0.0,0.0,0.0,0.0,0.0,0.0,0.0,0.0,0.0,0.0,0.0,0.0,0.0,0.0,0.0,0.0,0.0,0.0,0.0,0.0,0.0,0.0,0.0,0.0,0.0,0.0,0.0,0.0,0.0,0.0,0.0,0.0,0.0,0.0,0.0,0.0,0.0,0.0,0.0,0.0,0.0,0.0,0.0,0.0,0.0,0.0,0.0,0.0,0.0,0.0,0.0,0.0,0.0,0.0,0.0,0.0,0.0,0.0,0.0,0.0,0.0,0.0,0.0,0.0,0.0,0.0,0.0,0.0,0.0,0.0,0.0,0.0,0.0,0.0,0.0,0.0,0.0,0.0,0.0,0.0,0.0,0.0,0.0,0.0,0.0,0.0,0.0,0.0,0.0,0.0,0.0,0.0,0.0,0.0,0.0,0.0,0.0,0.0,0.0,0.0,0.0,0.0,0.0,0.0,0.0,0.0,0.0,0.0,0.0,0.0,0.0,0.0,0.0,0.0,0.0,0.0,0.0,0.0,0.0,0.0,0.0,0.0,0.0,0.0,0.0,0.0,0.0,0.0,0.0,0.0,0.0,0.0,0.0,0.0,0.0,0.0,0.0,0.0,0.0,0.0,0.0,0.0,0.0,0.0,0.0,0.0,0.0,0.0,0.0,0.0,0.0,0.0,0.0,0.0,0.0,0.0,0.0,0.0,0.0,0.0,0.0,0.0,0.0,0.0,0.0,0.0,0.0,0.0,0.0,0.0,0.0,0.0,0.0,0.0,0.0,0.0,0.0,0.0,0.0,0.0,0.0,0.0,0.0,0.0,0.0,0.0,0.0,0.0,0.0,0.0,0.0,0.0,0.0,0.0,0.0,0.0,0.0,0.0,0.0,0.0,0.0,0.0,0.0,0.0,0.0,0.0,0.0,0.0,0.0,0.0,0.0,0.0,0.0,0.0,0.0,0.0,0.0,0.0,0.0,0.0,0.0,0.0,0.0,0.0,0.0,0.0,0.0,0.0,0.0,0.0,0.0,0.0,0.0,0.0,0.0,0.0,0.0,0.0,0.0,0.0,0.0,0.0,0.0,0.0,0.0,0.0,0.0,0.0,0.0,0.0,0.0,0.0,0.0,0.0,0.0,0.0,0.0,0.0,0.0,0.0,0.0,0.0,0.0,0.0,0.0,0.0,0.0,0.0,0.0,0.0,0.0,0.0,0.0,0.0,0.0,0.0,0.0,0.0,0.0,0.0,0.0,0.0,0.0,0.0,0.0,0.0,0.0,0.0,0.0,0.0,0.0,0.0,0.0,0.0,0.0,0.0,0.0,0.0,0.0,0.0,0.0,0.0,0.0,0.0,0.0,0.0,0.0,0.0,0.0,0.0,0.0,0.0,0.0,0.0,0.0,0.0,0.0,0.0,0.0,0.0,0.0,0.0,0.0,0.0,0.0,0.0,0.0,0.0,0.0,0.0,0.0,0.0,0.0,0.0,0.0,0.0,0.0,0.0,0.0,0.0,0.0,0.0,0.0,0.0,0.0,0.0,0.0,0.0,0.0,0.0,0.0,0.0,0.0,0.0,0.0,0.0,0.0,0.0,0.0,0.0,0.0,0.0,0.0,0.0,0.0,0.0,0.0,0.0,0.0,0.0,0.0,0.0,0.0,0.0,0.0,0.0,0.0,0.0,0.0,0.0,0.0,0.0,0.0,0.0,0.0,0.0,0.0,0.0,0.0,0.0,0.0,0.0,0.0,0.0,0.0,0.0,0.0,0.0,0.0,0.0,0.0,0.0,0.0,0.0,0.0,0.0,0.0,0.0,0.0,0.0,0.0,0.0,0.0,0.0,0.0,0.0,0.0,0.0,0.0,0.0,0.0,0.0,0.0,0.0,0.0,0.0,0.0,0.0,0.0,0.0,0.0,0.0,0.0,0.0,0.0,0.0,0.0,0.0,0.0,0.0,0.0,0.0,0.0,0.0,0.0,0.0,0.0,0.0,0.0,0.0,0.0,0.0,0.0,0.0,0.0,0.0,0.0,0.0,0.0,0.0,0.0,0.0,0.0,0.0,0.0,0.0,0.0,0.0,0.0,0.0,0.0,0.0,0.0,0.0,0.0,0.0,0.0,0.0,0.0,0.0,0.0,0.0,0.0,0.0,0.0,0.0,0.0,0.0,0.0,0.0,0.0,0.0,0.0,0.0,0.0,0.0,0.0,0.0,0.0,0.0,0.0,0.0,0.0,0.0,0.0,0.0,0.0,0.0,0.0,0.0,0.0,0.0,0.0,0.0,0.0,0.0,0.0,0.0,0.0,0.0,0.0,0.0,0.0,0.0,0.0,0.0,0.0,0.0,0.0,0.0,0.0,0.0,0.0,0.0,0.0,0.0,0.0,0.0,0.0,0.0,0.0,0.0,0.0,0.0,0.0,0.0,0.0,0.0,0.0,0.0,0.0,0.0,0.0,0.0,0.0,0.0,0.0,0.0,0.0,0.0,0.0,0.0,0.0,0.0,0.0,0.0,0.0,0.0,0.0,0.0,0.0,0.0,0.0,0.0,0.0,0.0,0.0,0.0,0.0,0.0,0.0,0.0,0.0,0.0,0.0,0.0,0.0,0.0,0.0,0.0,0.0,0.0,0.0,0.0,0.0,0.0,0.0,0.0,0.0,0.0,0.0,0.0,0.0,0.0,0.0,0.0,0.0,0.0,0.0,0.0,0.0,0.0,0.0,0.0,0.0,0.0,0.0,0.0,0.0,0.0,0.0,0.0,0.0,0.0,0.0,0.0,0.0,0.0,0.0,0.0,0.0,0.0,0.0,0.0,0.0,0.0,0.0,0.0,0.0,0.0,0.0,0.0,0.0,0.0,0.0,0.0,0.0,0.0,0.0,0.0,0.0,0.0,0.0,0.0,0.0,0.0,0.0,0.0,0.0,0.0,0.0,0.0,0.0,0.0,0.0,0.0,0.0,0.0,0.0,0.0,0.0,0.0,0.0,3.9911,0.0,0.0,0.0,0.0,0.0,0.0,0.0,0.0,0.0,0.0,0.0,0.0,0.0,0.0,0.0,0.0,0.0,0.0,0.0,0.0,0.0,0.0,0.0,0.0,0.0,0.0,0.0,0.0,0.0,0.0,0.0,0.0,0.0,0.0,0.0,0.0,0.0,0.0,0.0,0.0,0.0,0.0,0.0,0.0,0.0,0.0,0.0,0.0,0.0,0.0,0.0,0.0,0.0,0.0,0.0,0.0,0.0,0.0,0.0,0.0,0.0,0.0,0.0,0.0,0.0,0.0,0.0,0.0,0.0,0.0,0.0,0.0,0.0,0.0,0.0,0.0,0.0,0.0,0.0,0.0,0.0,0.0,0.0,0.0,0.0,0.0,0.0,0.0,0.0,0.0,0.0,0.0,0.0,0.0,0.0,0.0,0.0,0.0,0.0,0.0,0.0,0.0,0.0,0.0,0.0,0.0,0.0,0.0,0.0,0.0,3.9991,4.0034,4.0137,4.0171,4.0132,0.0,0.0,0.0,0.0,0.0,0.0,0.0,0.0,0.0,0.0,0.0,0.0,0.0,0.0,0.0,0.0,0.0,0.0,0.0,0.0,0.0,0.0,0.0,0.0,0.0,0.0,0.0,0.0,0.0,0.0,0.0,0.0,0.0,0.0,0.0,0.0,0.0,0.0,0.0,0.0,0.0,0.0,0.0,0.0,0.0,0.0,0.0,0.0,0.0,0.0,0.0,0.0,0.0,0.0,0.0,0.0,0.0,0.0,0.0,0.0,0.0,0.0,0.0,0.0,0.0,0.0,0.0,0.0,0.0,0.0,0.0,0.0,0.0,0.0,0.0,0.0,0.0,0.0,0.0,0.0,0.0,0.0,0.0,0.0,0.0,0.0,0.0,0.0,0.0,0.0,0.0,0.0,0.0,0.0,0.0,0.0,0.0,0.0,0.0,0.0,0.0,0.0,0.0,0.0,0.0,0.0,0.0,0.0,0.0,0.0,0.0,0.0,4.0225,4.0315,4.0309,0.0,0.0,0.0,0.0,0.0,0.0,0.0,0.0,0.0,0.0,0.0,0.0,0.0,0.0,0.0,0.0,0.0,0.0,0.0,0.0,0.0,0.0,0.0,0.0,0.0,0.0,0.0,0.0,0.0,0.0,0.0,0.0,0.0,0.0,0.0,0.0,0.0,0.0,0.0,0.0,0.0,0.0,0.0,0.0,0.0,0.0,0.0,0.0,0.0,0.0,0.0,0.0,0.0,0.0,0.0,0.0,0.0,0.0,0.0,0.0,0.0,0.0,0.0,0.0,0.0,0.0,0.0,0.0,0.0,0.0,0.0,0.0,0.0,0.0,0.0,0.0,0.0,0.0,0.0,0.0,0.0,0.0,0.0,0.0,0.0,0.0,0.0,0.0,0.0,0.0,0.0,0.0,0.0,0.0,0.0,0.0,0.0,0.0,0.0,0.0,0.0,0.0,0.0,0.0,0.0,0.0,0.0,0.0,0.0,0.0,4.0291,4.0291,4.0296,0.0,4.0373,0.0,0.0,0.0,0.0,0.0,0.0,0.0,0.0,0.0,0.0,0.0,0.0,0.0,0.0,0.0,0.0,0.0,0.0,0.0,0.0,0.0,0.0,0.0,0.0,0.0,0.0,0.0,0.0,0.0,0.0,0.0,0.0,0.0,0.0,0.0,0.0,0.0,0.0,0.0,0.0,0.0,0.0,0.0,0.0,0.0,0.0,0.0,0.0,0.0,0.0,0.0,0.0,0.0,0.0,0.0,0.0,0.0,0.0,0.0,0.0,0.0,0.0,0.0,0.0,0.0,0.0,0.0,0.0,0.0,0.0,0.0,0.0,0.0,0.0,0.0,0.0,0.0,0.0,0.0,0.0,0.0,0.0,0.0,0.0,0.0,0.0,0.0,0.0,0.0,0.0,0.0,0.0,0.0,0.0,0.0,0.0,0.0,0.0,0.0,0.0,0.0,0.0,0.0,0.0,0.0,0.0,0.0,0.0,0.0,0.0,4.0301,4.0301,4.0301,4.0324,0.0,0.0,0.0,0.0,0.0,0.0,0.0,0.0,0.0,0.0,0.0,0.0,0.0,0.0,0.0,0.0,0.0,0.0,0.0,0.0,0.0,0.0,0.0,0.0,0.0,0.0,0.0,0.0,0.0,0.0,0.0,0.0,0.0,0.0,0.0,0.0,0.0,0.0,0.0,0.0,0.0,0.0,0.0,0.0,0.0,0.0,0.0,0.0,0.0,0.0,0.0,0.0,0.0,0.0,0.0,0.0,0.0,0.0,0.0,0.0,0.0,0.0,0.0,0.0,0.0,0.0,0.0,0.0,0.0,0.0,0.0,0.0,0.0,0.0,0.0,0.0,0.0,0.0,0.0,0.0,0.0,0.0,0.0,0.0,0.0,0.0,0.0,0.0,0.0,0.0,0.0,0.0,0.0,0.0,0.0,0.0,0.0,0.0,0.0,0.0,0.0,0.0,0.0,0.0,0.0,0.0,0.0,0.0,0.0,0.0,4.1036,4.0535,4.0301,4.0301,4.0301,4.0301,0.0,0.0,0.0,0.0,0.0,0.0,0.0,0.0,0.0,0.0,0.0,0.0,0.0,0.0,0.0,0.0,0.0,0.0,0.0,0.0,0.0,0.0,0.0,0.0,0.0,0.0,0.0,0.0,0.0,0.0,0.0,0.0,0.0,0.0,0.0,0.0,0.0,0.0,0.0,0.0,0.0,0.0,0.0,0.0,0.0,0.0,0.0,0.0,0.0,0.0,0.0,0.0,0.0,0.0,0.0,0.0,0.0,0.0,0.0,0.0,0.0,0.0,0.0,0.0,0.0,0.0,0.0,0.0,0.0,0.0,0.0,0.0,0.0,0.0,0.0,0.0,0.0,0.0,0.0,0.0,0.0,0.0,0.0,0.0,0.0,0.0,0.0,0.0,0.0,0.0,0.0,0.0,0.0,0.0,0.0,0.0,0.0,0.0,0.0,0.0,0.0,0.0,0.0,0.0,0.0,0.0,0.0,0.0,4.2717,4.1877,4.1074,4.0377,4.0301,4.0301,0.0,0.0,0.0,0.0,0.0,0.0,0.0,0.0,0.0,0.0,0.0,0.0,0.0,0.0,0.0,0.0,0.0,0.0,0.0,0.0,0.0,0.0,0.0,0.0,0.0,0.0,0.0,0.0,0.0,0.0,0.0,0.0,0.0,0.0,0.0,0.0,0.0,0.0,0.0,0.0,0.0,0.0,0.0,0.0,0.0,0.0,0.0,0.0,0.0,0.0,0.0,0.0,0.0,0.0,0.0,0.0,0.0,0.0,0.0,0.0,0.0,0.0,0.0,0.0,0.0,0.0,0.0,0.0,0.0,0.0,0.0,0.0,0.0,0.0,0.0,0.0,0.0,0.0,0.0,0.0,0.0,0.0,0.0,0.0,0.0,0.0,0.0,0.0,0.0,0.0,0.0,0.0,0.0,0.0,0.0,0.0,0.0,0.0,0.0,0.0,0.0,0.0,0.0,0.0,0.0,0.0,0.0,0.0,0.0,4.3553,4.2751,4.1915,4.1113,4.1074,4.0849,0.0,0.0,0.0,0.0,0.0,0.0,0.0,0.0,0.0,0.0,0.0,0.0,0.0,0.0,0.0,0.0,0.0,0.0,0.0,0.0,0.0,0.0,0.0,0.0,0.0,0.0,0.0,0.0,0.0,0.0,0.0,0.0,0.0,0.0,0.0,0.0,0.0,0.0,0.0,0.0,0.0,0.0,0.0,0.0,0.0,0.0,0.0,0.0,0.0,0.0,0.0,0.0,0.0,0.0,0.0,0.0,0.0,0.0,0.0,0.0,0.0,0.0,0.0,0.0,0.0,0.0,0.0,0.0,0.0,0.0,0.0,0.0,0.0,0.0,0.0,0.0,0.0,0.0,0.0,0.0,0.0,0.0,0.0,0.0,0.0,0.0,0.0,0.0,0.0,0.0,0.0,0.0,0.0,0.0,0.0,0.0,0.0,0.0,0.0,0.0,0.0,0.0,0.0,0.0,0.0,0.0,0.0,0.0,0.0,4.4006,0.0,4.2794,4.1958,4.192,4.158,0.0,0.0,0.0,0.0,0.0,0.0,0.0,0.0,0.0,0.0,0.0,0.0,0.0,0.0,0.0,0.0,0.0,0.0,0.0,0.0,0.0,0.0,0.0,0.0,0.0,0.0,0.0,0.0,0.0,0.0,0.0,0.0,0.0,0.0,0.0,0.0,0.0,0.0,0.0,0.0,0.0,0.0,0.0,0.0,0.0,0.0,0.0,0.0,0.0,0.0,0.0,0.0,0.0,0.0,0.0,0.0,0.0,0.0,0.0,0.0,0.0,0.0,0.0,0.0,0.0,0.0,0.0,0.0,0.0,0.0,0.0,0.0,0.0,0.0,0.0,0.0,0.0,0.0,0.0,0.0,0.0,0.0,0.0,0.0,0.0,0.0,0.0,0.0,0.0,0.0,0.0,0.0,0.0,0.0,0.0,0.0,0.0,0.0,0.0,0.0,0.0,0.0,0.0,0.0,0.0,0.0,0.0,0.0,4.4895,4.4083,4.4006,4.3629,4.2832,4.2794,4.2412,0.0,0.0,0.0,0.0,0.0,0.0,0.0,0.0,0.0,0.0,0.0,0.0,0.0,0.0,0.0,0.0,0.0,0.0,0.0,0.0,0.0,0.0,0.0,0.0,0.0,0.0,0.0,0.0,0.0,0.0,0.0,0.0,0.0,0.0,0.0,0.0,0.0,0.0,0.0,0.0,0.0,0.0,0.0,0.0,0.0,0.0,0.0,0.0,0.0,0.0,0.0,0.0,0.0,0.0,0.0,0.0,0.0,0.0,0.0,0.0,0.0,0.0,0.0,0.0,0.0,0.0,0.0,0.0,0.0,0.0,0.0,0.0,0.0,0.0,0.0,0.0,0.0,0.0,0.0,0.0,0.0,0.0,0.0,0.0,0.0,0.0,0.0,0.0,0.0,0.0,0.0,0.0,0.0,0.0,0.0,0.0,0.0,0.0,0.0,0.0,0.0,0.0,0.0,0.0,0.0,0.0,0.0,0.0,0.0,4.4895,4.4895,4.4475,4.3663,4.3624,4.3259,0.0,0.0,0.0,0.0,0.0,0.0,0.0,0.0,0.0,0.0,0.0,0.0,0.0,0.0,0.0,0.0,0.0,0.0,0.0,0.0,0.0,0.0,0.0,0.0,0.0,0.0,0.0,0.0,0.0,0.0,0.0,0.0,0.0,0.0,0.0,0.0,0.0,0.0,0.0,0.0,0.0,0.0,0.0,0.0,0.0,0.0,0.0,0.0,0.0,0.0,0.0,0.0,0.0,0.0,0.0,0.0,0.0,0.0,0.0,0.0,0.0,0.0,0.0,0.0,0.0,0.0,0.0,0.0,0.0,0.0,0.0,0.0,0.0,0.0,0.0,0.0,0.0,0.0,0.0,0.0,0.0,0.0,0.0,0.0,0.0,0.0,0.0,0.0,0.0,0.0,0.0,0.0,0.0,0.0,0.0,0.0,0.0,0.0,0.0,0.0,0.0,0.0,0.0,0.0,0.0,0.0,0.0,0.0,0.0,4.5283,4.5283,4.5053,4.4513,4.4513,4.4133,4.3345,0.0,0.0,0.0,0.0,0.0,0.0,0.0,0.0,0.0,0.0,0.0,0.0,0.0,0.0,0.0,0.0,0.0,0.0,0.0,0.0,0.0,0.0,0.0,0.0,0.0,0.0,0.0,0.0,0.0,0.0,0.0,0.0,0.0,0.0,0.0,0.0,0.0,0.0,0.0,0.0,0.0,0.0,0.0,0.0,0.0,0.0,0.0,0.0,0.0,0.0,0.0,0.0,0.0,0.0,0.0,0.0,0.0,0.0,0.0,0.0,0.0,0.0,0.0,0.0,0.0,0.0,0.0,0.0,0.0,0.0,0.0,0.0,0.0,0.0,0.0,0.0,0.0,0.0,0.0,0.0,0.0,0.0,0.0,0.0,0.0,0.0,0.0,0.0,0.0,0.0,0.0,0.0,0.0,0.0,0.0,0.0,0.0,0.0,0.0,0.0,0.0,0.0,0.0,0.0,0.0,0.0,0.0,0.0,4.5283,4.5283,4.5283,4.5283,4.5283,4.4895,0.0,0.0,0.0,0.0,0.0,0.0,0.0,0.0,0.0,0.0,0.0,0.0,0.0,0.0,0.0,0.0,0.0,0.0,0.0,0.0,0.0,0.0,0.0,0.0,0.0,0.0,0.0,0.0,0.0,0.0,0.0,0.0,0.0,0.0,0.0,0.0,0.0,0.0,0.0,0.0,0.0,0.0,0.0,0.0,0.0,0.0,0.0,0.0,0.0,0.0,0.0,0.0,0.0,0.0,0.0,0.0,0.0,0.0,0.0,0.0,0.0,0.0,0.0,0.0,0.0,0.0,0.0,0.0,0.0,0.0,0.0,0.0,0.0,0.0,0.0,0.0,0.0,0.0,0.0,0.0,0.0,0.0,0.0,0.0,0.0,0.0,0.0,0.0,0.0,0.0,0.0,0.0,0.0,0.0,0.0,0.0,0.0,0.0,0.0,0.0,0.0,0.0,0.0,0.0,0.0,0.0,0.0,0.0,0.0,4.5283,4.5283,4.5283,4.5283,4.5283,4.5168,0.0,0.0,0.0,0.0,0.0,0.0,0.0,0.0,0.0,0.0,0.0,0.0,0.0,0.0,0.0,0.0,0.0,0.0,0.0,0.0,0.0,0.0,0.0,0.0,0.0,0.0,0.0,0.0,0.0,0.0,0.0,0.0,0.0,0.0,0.0,0.0,0.0,0.0,0.0,0.0,0.0,0.0,0.0,0.0,0.0,0.0,0.0,0.0,0.0,0.0,0.0,0.0,0.0,0.0,0.0,0.0,0.0,0.0,0.0,0.0,0.0,0.0,0.0,0.0,0.0,0.0,0.0,0.0,0.0,0.0,0.0,0.0,0.0,0.0,0.0,0.0,0.0,0.0,0.0,0.0,0.0,0.0,0.0,0.0,0.0,0.0,0.0,0.0,0.0,0.0,0.0,0.0,0.0,0.0,0.0,0.0,0.0,0.0,0.0,0.0,0.0,0.0,0.0,0.0,0.0,0.0,0.0,0.0,4.5283,4.5283,4.5283,4.5283,4.5283,4.5283,4.5283,0.0,0.0,0.0,0.0,0.0,0.0,0.0,0.0,0.0,0.0,0.0,0.0,0.0,0.0,0.0,0.0,0.0,0.0,0.0,0.0,0.0,0.0,0.0,0.0,0.0,0.0,0.0,0.0,0.0,0.0,0.0,0.0,0.0,0.0,0.0,0.0,0.0,0.0,0.0,0.0,0.0,0.0,0.0,0.0,0.0,0.0,0.0,0.0,0.0,0.0,0.0,0.0,0.0,0.0,0.0,0.0,0.0,0.0,0.0,0.0,0.0,0.0,0.0,0.0,0.0,0.0,0.0,0.0,0.0,0.0,0.0,0.0,0.0,0.0,0.0,0.0,0.0,0.0,0.0,0.0,0.0,0.0,0.0,0.0,0.0,0.0,0.0,0.0,0.0,0.0,0.0,0.0,0.0,0.0,0.0,0.0,0.0,0.0,0.0,0.0,0.0,0.0,0.0,0.0,0.0,0.0,0.0,0.0,4.5283,4.5283,4.5283,4.5283,4.5283,4.5283,4.5283,0.0,0.0,0.0,0.0,0.0,0.0,0.0,0.0,0.0,0.0,0.0,0.0,0.0,0.0,0.0,0.0,0.0,0.0,0.0,0.0,0.0,0.0,0.0,0.0,0.0,0.0,0.0,0.0,0.0,0.0,0.0,0.0,0.0,0.0,0.0,0.0,0.0,0.0,0.0,0.0,0.0,0.0,0.0,0.0,0.0,0.0,0.0,0.0,0.0,0.0,0.0,0.0,0.0,0.0,0.0,0.0,0.0,0.0,0.0,0.0,0.0,0.0,0.0,0.0,0.0,0.0,0.0,0.0,0.0,0.0,0.0,0.0,0.0,0.0,0.0,0.0,0.0,0.0,0.0,0.0,0.0,0.0,0.0,0.0,0.0,0.0,0.0,0.0,0.0,0.0,0.0,0.0,0.0,0.0,0.0,0.0,0.0,0.0,0.0,0.0,0.0,0.0,0.0,0.0,0.0,0.0,0.0,0.0,4.5283,4.5283,4.5283,4.5283,4.5283,4.5283,4.5283,0.0,0.0,0.0,0.0,0.0,0.0,0.0,0.0,0.0,0.0,0.0,0.0,0.0,0.0,0.0,0.0,0.0,0.0,0.0,0.0,0.0,0.0,0.0,0.0,0.0,0.0,0.0,0.0,0.0,0.0,0.0,0.0,0.0,0.0,0.0,0.0,0.0,0.0,0.0,0.0,0.0,0.0,0.0,0.0,0.0,0.0,0.0,0.0,4.0835,0.0,0.0,0.0,0.0,0.0,0.0,0.0,0.0,0.0,0.0,0.0,0.0,0.0,0.0,0.0,0.0,0.0,0.0,0.0,0.0,0.0,0.0,0.0,0.0,0.0,0.0,0.0,0.0,0.0,0.0,0.0,0.0,0.0,0.0,0.0,0.0,0.0,0.0,0.0,0.0,0.0,0.0,0.0,0.0,0.0,0.0,0.0,0.0,0.0,0.0,0.0,0.0,0.0,0.0,0.0,0.0,0.0,0.0,0.0,4.5283,4.5283,4.5283,4.5283,4.5283,4.5283,4.5283,0.0,0.0,0.0,0.0,0.0,0.0,0.0,0.0,0.0,0.0,0.0,0.0,0.0,0.0,0.0,0.0,0.0,0.0,0.0,0.0,0.0,0.0,0.0,0.0,0.0,0.0,0.0,0.0,0.0,0.0,0.0,0.0,0.0,0.0,0.0,0.0,0.0,0.0,0.0,0.0,0.0,0.0,0.0,0.0,0.0,0.0,0.0,0.0,0.0,0.0,0.0,0.0,0.0,0.0,0.0,0.0,0.0,0.0,0.0,0.0,0.0,0.0,0.0,0.0,0.0,0.0,0.0,0.0,0.0,0.0,0.0,0.0,0.0,0.0,0.0,0.0,0.0,0.0,0.0,0.0,0.0,0.0,0.0,0.0,0.0,0.0,0.0,0.0,0.0,0.0,0.0,0.0,0.0,0.0,0.0,0.0,0.0,0.0,0.0,0.0,0.0,0.0,0.0,0.0,0.0,0.0,0.0,4.5283,4.5283,4.5283,4.5283,4.5283,4.5283,4.5283,4.5283,4.5283,0.0,0.0,0.0,0.0,0.0,0.0,0.0,0.0,0.0,0.0,0.0,0.0,0.0,0.0,0.0,0.0,0.0,0.0,0.0,0.0,0.0,0.0,0.0,0.0,0.0,0.0,0.0,0.0,0.0,0.0,0.0,0.0,0.0,0.0,0.0,0.0,0.0,0.0,4.15,4.15,0.0,0.0,0.0,0.0,0.0,0.0,0.0,0.0,4.2513,0.0,0.0,0.0,0.0,0.0,0.0,0.0,0.0,0.0,0.0,0.0,0.0,0.0,0.0,0.0,0.0,0.0,0.0,0.0,0.0,0.0,0.0,0.0,0.0,0.0,0.0,0.0,0.0,0.0,0.0,0.0,0.0,0.0,0.0,0.0,0.0,0.0,0.0,0.0,0.0,0.0,0.0,0.0,0.0,0.0,0.0,0.0,0.0,0.0,0.0,0.0,0.0,0.0,0.0,0.0,0.0,4.5283,4.5283,4.5283,4.5283,4.5283,4.5283,4.5283,4.5283,4.5283,4.5288,0.0,0.0,0.0,0.0,0.0,0.0,0.0,0.0,0.0,0.0,0.0,0.0,0.0,0.0,0.0,0.0,0.0,0.0,0.0,0.0,0.0,0.0,0.0,0.0,0.0,0.0,0.0,0.0,0.0,0.0,0.0,0.0,0.0,0.0,0.0,0.0,0.0,0.0,0.0,4.3295,4.3256,0.0,0.0,0.0,0.0,0.0,0.0,0.0,0.0,4.2536,0.0,0.0,0.0,0.0,0.0,0.0,0.0,0.0,0.0,0.0,0.0,0.0,0.0,0.0,0.0,0.0,0.0,0.0,0.0,0.0,0.0,0.0,0.0,0.0,0.0,0.0,0.0,0.0,0.0,0.0,0.0,0.0,0.0,0.0,0.0,0.0,0.0,0.0,0.0,0.0,0.0,0.0,0.0,0.0,0.0,0.0,0.0,0.0,0.0,0.0,0.0,0.0,0.0,0.0,0.0,4.5283,4.5283,4.5283,4.5283,4.5283,4.5283,4.5283,4.5283,4.5283,0.0,0.0,0.0,0.0,0.0,0.0,0.0,0.0,0.0,0.0,0.0,0.0,0.0,0.0,0.0,0.0,0.0,0.0,0.0,0.0,0.0,0.0,0.0,0.0,0.0,0.0,0.0,0.0,0.0,0.0,0.0,0.0,0.0,0.0,0.0,0.0,0.0,0.0,0.0,0.0,4.3665,4.3628,4.3633,0.0,0.0,0.0,0.0,0.0,0.0,4.4035,4.4028,0.0,0.0,0.0,0.0,0.0,0.0,0.0,0.0,0.0,0.0,0.0,0.0,0.0,0.0,0.0,0.0,0.0,0.0,0.0,0.0,0.0,0.0,0.0,0.0,0.0,0.0,0.0,0.0,0.0,0.0,0.0,0.0,0.0,0.0,0.0,0.0,0.0,0.0,0.0,0.0,0.0,0.0,0.0,0.0,0.0,0.0,0.0,0.0,0.0,0.0,0.0,0.0,0.0,0.0,0.0,4.5818,4.5812,4.5818,4.5818,4.5627,4.555,4.555,4.5397,4.5283,0.0,0.0,0.0,0.0,0.0,0.0,0.0,0.0,0.0,0.0,0.0,0.0,0.0,0.0,0.0,0.0,0.0,0.0,0.0,0.0,0.0,0.0,0.0,0.0,0.0,0.0,0.0,0.0,0.0,0.0,0.0,0.0,0.0,0.0,0.0,0.0,0.0,0.0,0.0,0.0,0.0,4.414,4.4124,4.4097,0.0,0.0,0.0,0.0,4.5129,4.5246,0.0,0.0,0.0,0.0,0.0,0.0,0.0,0.0,0.0,0.0,0.0,0.0,0.0,0.0,0.0,0.0,0.0,0.0,0.0,0.0,0.0,0.0,0.0,0.0,0.0,0.0,0.0,0.0,0.0,0.0,0.0,0.0,0.0,0.0,0.0,0.0,0.0,0.0,0.0,0.0,0.0,0.0,0.0,0.0,0.0,0.0,0.0,0.0,0.0,0.0,0.0,0.0,0.0,0.0,0.0,0.0,4.7526,4.7488,4.7488,4.7488,4.6762,4.6342,4.6342,4.5665,4.5283,0.0,0.0,0.0,0.0,0.0,0.0,0.0,0.0,0.0,0.0,0.0,0.0,0.0,0.0,0.0,0.0,0.0,0.0,0.0,0.0,0.0,0.0,0.0,0.0,0.0,0.0,0.0,0.0,0.0,0.0,0.0,0.0,0.0,0.0,0.0,0.0,0.0,0.0,0.0,0.0,0.0,4.5898,4.5898,4.5898,4.5898,0.0,0.0,4.6027,4.6145,4.6145,0.0,0.0,0.0,0.0,0.0,0.0,0.0,0.0,0.0,0.0,0.0,0.0,0.0,0.0,0.0,0.0,0.0,0.0,0.0,0.0,0.0,0.0,0.0,0.0,0.0,0.0,0.0,0.0,0.0,0.0,0.0,0.0,0.0,0.0,0.0,0.0,0.0,0.0,0.0,0.0,0.0,0.0,0.0,0.0,0.0,0.0,0.0,0.0,0.0,0.0,0.0,0.0,0.0,0.0,0.0,4.7794,4.7794,4.7794,4.7794,4.7794,4.745,4.7221,4.7259,4.6915,4.65,0.0,0.0,0.0,0.0,0.0,0.0,0.0,0.0,0.0,0.0,0.0,0.0,0.0,0.0,0.0,0.0,0.0,0.0,0.0,0.0,0.0,0.0,0.0,0.0,0.0,0.0,0.0,0.0,0.0,0.0,0.0,0.0,0.0,0.0,0.0,0.0,0.0,0.0,0.0,0.0,0.0,0.0,4.6098,4.6141,0.0,0.0,0.0,4.7205,4.7651,0.0,0.0,0.0,0.0,0.0,0.0,0.0,0.0,0.0,0.0,0.0,0.0,0.0,0.0,0.0,0.0,0.0,0.0,0.0,0.0,0.0,0.0,0.0,0.0,0.0,0.0,0.0,0.0,0.0,0.0,0.0,0.0,0.0,0.0,0.0,0.0,0.0,0.0,0.0,0.0,0.0,0.0,0.0,0.0,0.0,0.0,0.0,0.0,0.0,0.0,0.0,0.0,0.0,0.0,0.0,0.0,0.0,4.8398,4.8426,4.8388,4.8398,4.8203,4.8138,4.8099,4.7908,0.0,0.0,0.0,0.0,0.0,0.0,0.0,0.0,0.0,0.0,0.0,0.0,0.0,0.0,0.0,0.0,0.0,0.0,0.0,0.0,0.0,0.0,0.0,0.0,0.0,0.0,0.0,4.6002,0.0,0.0,0.0,0.0,0.0,0.0,0.0,0.0,0.0,0.0,0.0,0.0,0.0,0.0,4.6483,4.6635,4.6734,4.7054,0.0,0.0,4.8113,4.8709,4.8971,4.9032,0.0,0.0,0.0,0.0,0.0,0.0,0.0,0.0,0.0,0.0,0.0,0.0,0.0,0.0,0.0,0.0,0.0,0.0,0.0,0.0,0.0,0.0,0.0,0.0,0.0,0.0,0.0,0.0,0.0,0.0,0.0,0.0,0.0,0.0,0.0,0.0,0.0,0.0,0.0,0.0,0.0,0.0,0.0,0.0,0.0,0.0,0.0,0.0,0.0,0.0,0.0,0.0,0.0,0.0,0.0,4.9943,5.0065,5.0027,4.9911,4.9346,4.9028,4.8989,4.822,4.7788,0.0,0.0,0.0,0.0,0.0,0.0,0.0,0.0,0.0,0.0,0.0,0.0,0.0,0.0,0.0,0.0,0.0,0.0,0.0,0.0,0.0,0.0,0.0,0.0,0.0,0.0,0.0,0.0,0.0,0.0,0.0,0.0,0.0,0.0,0.0,0.0,0.0,0.0,0.0,0.0,0.0,4.7611,4.8423,4.8548,4.854,0.0,0.0,4.8748,4.8808,4.9464,4.9734,4.8954,0.0,0.0,0.0,0.0,0.0,0.0,0.0,0.0,0.0,0.0,0.0,0.0,0.0,0.0,0.0,0.0,0.0,0.0,0.0,0.0,0.0,0.0,0.0,0.0,0.0,0.0,0.0,0.0,0.0,0.0,0.0,0.0,0.0,0.0,0.0,0.0,0.0,0.0,0.0,0.0,0.0,0.0,0.0,0.0,0.0,0.0,0.0,0.0,0.0,0.0,0.0,0.0,0.0,4.9966,4.9966,5.0018,5.0018,4.9973,4.979,4.9706,4.9744,4.9472,4.9098,0.0,0.0,0.0,0.0,0.0,0.0,0.0,0.0,0.0,0.0,0.0,0.0,0.0,0.0,0.0,0.0,0.0,0.0,0.0,0.0,0.0,0.0,0.0,0.0,0.0,0.0,0.0,0.0,4.6002,4.6002,4.6002,0.0,0.0,0.0,0.0,0.0,0.0,0.0,0.0,0.0,0.0,4.6639,4.6992,4.7079,0.0,0.0,4.7878,4.8112,4.8653,4.9062,4.937,4.9565,4.9866,0.0,0.0,0.0,0.0,0.0,0.0,0.0,0.0,0.0,0.0,0.0,0.0,0.0,0.0,0.0,0.0,0.0,0.0,0.0,0.0,0.0,0.0,0.0,0.0,0.0,0.0,0.0,0.0,0.0,0.0,0.0,0.0,0.0,0.0,0.0,0.0,0.0,0.0,0.0,0.0,0.0,0.0,0.0,0.0,0.0,0.0,0.0,0.0,0.0,0.0,0.0,0.0,5.0537,5.0537,5.0616,5.0616,5.0575,5.0705,5.0778,5.0785,5.0609,5.0296,0.0,0.0,0.0,0.0,0.0,0.0,0.0,0.0,0.0,0.0,0.0,0.0,0.0,0.0,0.0,0.0,0.0,0.0,0.0,0.0,0.0,0.0,0.0,0.0,0.0,0.0,0.0,0.0,4.6621,4.6776,4.6776,0.0,0.0,0.0,0.0,0.0,0.0,0.0,0.0,0.0,0.0,4.7362,4.7825,4.7964,4.8303,4.9121,4.9264,4.951,5.0113,5.0054,5.0153,5.074,0.0,0.0,0.0,0.0,0.0,0.0,0.0,0.0,0.0,0.0,0.0,0.0,0.0,0.0,0.0,0.0,0.0,0.0,0.0,0.0,0.0,0.0,0.0,0.0,0.0,0.0,0.0,0.0,0.0,0.0,5.1328,0.0,0.0,0.0,0.0,0.0,0.0,0.0,0.0,0.0,0.0,0.0,0.0,0.0,0.0,0.0,0.0,0.0,0.0,0.0,0.0,0.0,0.0,5.2024,5.2024,5.2173,5.2218,5.2039,5.2218,5.2298,5.2305,5.1509,5.1116,5.1218,0.0,0.0,0.0,0.0,0.0,0.0,0.0,0.0,0.0,0.0,0.0,0.0,0.0,0.0,0.0,0.0,0.0,0.0,0.0,0.0,0.0,0.0,0.0,0.0,0.0,0.0,4.7276,4.8017,4.8483,0.0,0.0,0.0,0.0,0.0,0.0,0.0,0.0,0.0,0.0,4.9809,5.0389,5.194,5.2215,5.2375,5.3357,5.3528,5.3561,5.354,5.293,5.2506,0.0,0.0,0.0,0.0,0.0,0.0,0.0,0.0,0.0,0.0,0.0,0.0,0.0,0.0,0.0,0.0,0.0,0.0,0.0,0.0,0.0,0.0,0.0,0.0,0.0,0.0,0.0,5.2016,5.1985,0.0,0.0,0.0,0.0,0.0,0.0,0.0,0.0,0.0,0.0,0.0,5.2557,5.3089,0.0,0.0,0.0,0.0,0.0,0.0,0.0,0.0,0.0,0.0,0.0,0.0,5.1973,5.1973,5.2029,5.2029,5.1981,5.2137,5.2213,5.222,5.2051,5.1978,5.2027,0.0,0.0,0.0,0.0,0.0,0.0,0.0,0.0,0.0,0.0,0.0,0.0,0.0,0.0,0.0,0.0,0.0,0.0,0.0,0.0,0.0,0.0,0.0,0.0,0.0,4.8172,0.0,0.0,0.0,0.0,0.0,0.0,0.0,0.0,0.0,0.0,0.0,4.9807,5.0658,5.0775,5.0969,5.1513,5.1591,5.1722,0.0,0.0,0.0,0.0,0.0,0.0,0.0,0.0,0.0,0.0,0.0,0.0,0.0,0.0,5.2078,5.1531,5.1362,5.13,5.1213,0.0,0.0,0.0,0.0,0.0,0.0,0.0,0.0,0.0,0.0,0.0,0.0,0.0,0.0,5.3701,0.0,5.3498,0.0,0.0,0.0,0.0,0.0,0.0,0.0,0.0,5.3823,5.4112,5.4139,5.4634,5.4987,0.0,5.5114,5.4579,0.0,0.0,0.0,0.0,0.0,0.0,0.0,0.0,5.2748,5.2757,5.2757,5.2757,5.2794,5.2863,5.2911,5.2881,5.281,5.2567,5.2251,5.2316,5.216,0.0,0.0,0.0,0.0,0.0,0.0,0.0,0.0,0.0,0.0,0.0,0.0,0.0,0.0,0.0,0.0,0.0,0.0,0.0,0.0,0.0,0.0,0.0,4.9093,0.0,0.0,0.0,0.0,0.0,0.0,0.0,0.0,0.0,5.0891,5.1011,5.1438,5.1982,5.2096,5.2173,5.2484,0.0,0.0,0.0,0.0,0.0,0.0,0.0,5.2741,5.329,5.3143,5.3185,5.3717,5.3842,5.3666,5.3119,0.0,0.0,5.1612,5.1375,5.1365,5.1289,5.0854,5.0607,5.1055,5.0698,5.0508,0.0,0.0,0.0,0.0,0.0,0.0,0.0,0.0,5.6308,5.629,0.0,5.6241,0.0,0.0,0.0,0.0,0.0,5.6209,0.0,0.0,5.6209,5.6333,5.6356,5.6356,5.6452,5.6594,5.6612,5.6612,5.6463,5.5139,0.0,0.0,0.0,0.0,0.0,0.0,5.4484,5.4484,5.4484,5.4484,5.4409,5.4409,5.4417,5.4342,5.3777,5.2994,5.2059,5.2311,5.2362,5.2145,5.2325,0.0,0.0,0.0,0.0,0.0,0.0,0.0,0.0,0.0,0.0,0.0,0.0,0.0,0.0,0.0,0.0,0.0,0.0,0.0,0.0,4.9251,0.0,0.0,0.0,0.0,0.0,0.0,0.0,0.0,0.0,0.0,5.2708,5.3225,5.3769,5.3772,0.0,0.0,0.0,0.0,5.5398,5.6214,5.6369,5.6333,5.633,5.5631,5.5126,5.5126,0.0,0.0,5.398,5.398,5.4021,5.3905,5.3976,5.3437,5.1852,5.157,5.1569,5.1529,5.1567,5.1491,5.1491,5.16,5.1564,5.9667,0.0,0.0,0.0,0.0,5.788,5.7704,5.769,5.7422,5.7316,5.7286,5.6781,0.0,0.0,0.0,0.0,0.0,0.0,5.632,5.632,5.632,5.6293,5.6323,5.6323,5.6382,5.6489,5.6471,5.6509,5.6556,5.6164,5.6004,5.6038,0.0,0.0,0.0,0.0,5.6174,5.6174,5.6182,5.5911,5.5264,5.5264,5.4963,5.4409,5.4226,5.3963,5.3695,5.3787,5.3567,5.3065,5.3074,0.0,0.0,0.0,0.0,0.0,0.0,0.0,0.0,0.0,0.0,0.0,0.0,0.0,0.0,0.0,0.0,0.0,0.0,0.0,5.1817,5.1968,5.2204,0.0,0.0,0.0,0.0,0.0,0.0,0.0,0.0,0.0,5.5942,5.5207,5.4857,0.0,0.0,5.6567,5.6838,5.734,5.7806,5.804,5.8078,0.0,0.0,5.7884,5.7725,5.7729,5.7492,5.7353,5.7343,5.7403,5.7055,5.5889,5.5732,5.5234,5.3649,5.3249,5.3249,5.3248,5.3249,5.3249,5.3249,5.3249,5.3249,6.1575,6.1315,6.0233,5.9618,5.929,5.9039,5.8884,5.8871,5.8654,5.8456,5.8273,5.789,5.7632,5.7472,5.7312,0.0,0.0,0.0,5.7249,5.7249,5.7249,5.7249,5.7249,5.7249,5.7279,5.7302,5.7342,5.7419,5.7439,5.7489,5.7537,5.7556,0.0,0.0,5.6824,5.6833,5.6851,5.6887,5.6887,5.6624,5.6127,5.6127,5.5864,5.5423,5.5385,5.5385,5.5385,5.5085,5.4668,5.4279,5.3949,5.3623,0.0,0.0,0.0,0.0,0.0,0.0,0.0,0.0,0.0,0.0,0.0,5.2079,0.0,0.0,0.0,0.0,5.2868,5.2971,5.3107,5.3089,0.0,0.0,0.0,0.0,0.0,0.0,0.0,5.58,5.5917,5.6421,5.7786,5.7119,5.6715,5.7224,5.7771,5.8078,5.8082,0.0,5.8817,5.8817,5.8817,5.8817,5.8817,5.8817,5.8817,5.8817,5.8817,5.8817,5.8817,5.8845,5.8483,5.765,5.7418,5.7183,5.6172,5.6003,5.5473,5.4264,5.399,5.399,5.399,5.399,5.399,6.3294,6.314,6.144,6.0462,6.0072,6.0072,6.008,6.008,5.998,5.9727,5.9336,5.9262,5.9015,5.8687,5.8687,0.0,5.8687,5.8687,5.865,5.8687,5.8687,5.8687,5.8687,5.8687,5.8687,5.8687,5.8828,5.8828,5.8708,5.8865,5.8952,5.8852,5.745,5.6809,5.6874,5.6892,5.6976,5.7066,5.7112,5.7037,5.7,5.6925,5.6887,5.6849,5.6887,5.6887,5.6849,5.6127,5.5706,5.5677,5.501,5.4673,5.4762,0.0,0.0,0.0,0.0,0.0,0.0,0.0,0.0,0.0,0.0,0.0,0.0,0.0,0.0,0.0,5.2965,0.0,5.2965,5.3185,0.0,0.0,0.0,5.5027,5.5102,5.5711,5.6463,5.7241,0.0,0.0,5.8648,5.8913,5.91,5.9135,5.8997,5.8894,5.8933,5.9007,5.9007,5.9124,5.9127,5.9166,5.9399,5.9322,5.9322,5.9205,5.9007,5.9085,5.9124,5.9088,5.905,5.8895,5.901,5.8986,5.899,5.8827,5.8132,5.5085,5.4537,5.4498,5.4653,5.4693,5.4731,6.497,6.498,6.4531,6.3556,6.2313,6.2376,6.2396,6.2306,6.1456,6.0897,6.0518,5.9615,5.9015,5.8687,5.8687,5.8687,5.8687,5.8687,5.8687,5.8687,5.8687,5.8687,5.8687,5.8687,5.8687,5.8687,5.8719,5.8756,5.8687,5.875,5.876,5.8729,5.8378,5.8276,5.8463,5.8549,5.8634,5.8662,5.8728,5.8427,5.7817,5.7225,5.6887,5.6887,5.6887,5.6887,5.6887,5.6699,5.6587,5.6587,5.6399,5.6313,5.6356,5.6356,0.0,0.0,0.0,0.0,0.0,0.0,0.0,0.0,0.0,5.359,5.3435,0.0,5.4663,0.0,5.4378,5.4416,5.4378,5.4462,0.0,0.0,5.539,5.5986,5.5998,5.681,5.7438,5.7636,5.8206,5.8936,5.9787,6.0727,6.1524,6.2104,6.0828,5.9788,5.9788,6.0367,6.0794,6.0833,6.1338,6.1769,6.1691,6.1765,6.1536,6.0911,6.0794,6.0794,6.0791,6.0794,6.0595,6.0025,5.9886,5.969,5.9249,5.9062,5.8861,5.8059,5.7893,5.7893,5.7893,5.7854,5.7854,6.7179,6.7133,6.6559,6.5763,6.4848,6.3838,6.3121,6.2513,6.1924,6.1444,6.1083,6.0336,5.9885,5.9701,5.9781,5.9802,5.9802,5.9802,5.9812,5.9802,5.9812,5.9802,5.9812,5.9802,5.9802,5.9812,5.9802,5.9802,5.9812,5.9802,5.9802,5.9802,5.9802,5.9876,5.9953,5.9366,5.9061,5.9119,5.9215,5.9037,5.8625,5.8183,5.7976,5.7976,5.7976,5.7976,5.7938,5.76,5.745,5.7413,5.7075,5.6887,5.6887,5.6887,5.6887,0.0,0.0,0.0,0.0,0.0,0.0,0.0,0.0,0.0,0.0,0.0,5.6152,5.5981,5.5966,5.5966,5.5966,5.6034,5.6056,5.6085,5.6629,5.7089,5.7459,5.7972,5.8661,5.9557,6.0068,6.0725,6.1737,6.2465,6.3018,6.3448,6.2508,6.1753,6.1791,6.2176,6.2494,6.2513,6.2944,6.3266,6.328,6.3284,6.3129,6.2701,6.2546,6.2546,6.2546,6.2546,6.2415,6.1981,6.1879,6.1803,6.1388,6.0975,6.078,6.0798,6.0509,6.0001,5.9259,5.9103,5.9103,6.9693,6.9584,6.837,6.7742,6.7411,6.5323,6.3693,6.2438,6.2306,6.2051,6.1602,6.1355,6.1274,6.1285,6.1422,6.1467,6.1467,6.1467,6.1478,6.1489,6.1489,6.1499,6.151,6.151,6.151,6.151,6.151,6.1484,6.1521,6.1521,6.151,6.1521,6.1521,6.1521,6.1447,6.0157,5.9424,5.9331,5.9419,5.9504,5.9504,5.9553,5.9591,5.9591,5.96,5.9609,5.9572,5.883,5.8417,5.8417,5.7638,5.7234,5.7225,5.7225,5.7196,0.0,5.7187,0.0,0.0,0.0,0.0,0.0,0.0,0.0,0.0,5.6851,5.7229,5.7283,5.7229,5.7259,5.7259,5.7354,5.7498,5.7641,5.7863,5.8304,5.9078,5.9314,6.0027,6.1784,6.2077,6.2562,6.3485,6.3855,6.3995,6.4111,6.4118,6.4033,6.4067,6.3843,6.3675,6.3906,6.3988,6.4077,6.4113,6.4159,6.4085,6.3976,6.3859,6.398,6.3906,6.3906,6.3948,6.3924,6.3809,6.3872,6.4079,6.3422,6.3047,6.299,6.2469,6.1524,6.004,5.9611,5.9455,7.2291,7.2219,7.156,7.067,6.9649,6.8825,6.7459,6.574,6.5084,6.4209,6.3248,6.29,6.2788,6.2788,6.2812,6.2823,6.2823,6.2823,6.2882,6.2986,6.2986,6.3043,6.3145,6.3145,6.3145,6.3145,6.3145,6.3145,6.3145,6.3145,6.3145,6.3145,6.3145,6.3145,6.3145,0.0,0.0,0.0,6.1022,6.1069,6.1069,6.109,6.1062,6.11,6.1142,0.0,6.1144,6.0472,6.0107,6.0107,5.929,0.0,0.0,0.0,0.0,0.0,0.0,0.0,0.0,0.0,0.0,0.0,5.8406,5.83,5.6917,5.688,5.7015,5.7113,5.7041,5.6993,5.6993,5.7019,5.727,5.7919,5.8594,5.9366,6.0175,6.0863,6.1464,6.1791,6.2451,6.3064,6.3596,6.437,6.5064,6.5255,6.5603,6.5785,6.5679,6.4651,6.3886,6.3861,6.4489,6.4882,6.489,6.4894,6.4678,6.4116,6.3934,6.3985,6.4093,6.4061,6.4022,6.4065,6.4009,6.4033,6.4069,6.3919,6.3892,6.3945,6.3853,6.3282,6.1602,6.1211,6.1211,7.4248,0.0,7.2495,7.1476,0.0,7.0152,6.9271,6.8257,6.6679,6.5448,6.4496,6.4365,6.4328,6.4341,6.4365,6.4389,6.4389,6.4389,6.4425,6.4498,6.4545,6.4616,6.4675,6.4793,6.4853,6.4816,6.4816,6.4816,6.4816,6.4816,6.4816,6.4816,6.4816,6.4816,6.4816,6.4816,6.4056,6.255,6.2183,6.1991,6.1991,6.168,6.1487,6.1487,6.1538,0.0,0.0,0.0,0.0,0.0,0.0,0.0,0.0,0.0,0.0,6.0529,6.0154,5.9966,5.9919,5.9553,5.9102,5.8764,5.944,5.9403,5.8164,5.8089,5.8096,5.8185,5.8519,5.8727,5.8727,5.9074,5.9478,5.9891,6.0266,6.0867,6.1693,6.2181,6.2682,6.3229,6.3826,6.4267,6.4535,6.5216,6.5773,6.5919,6.6134,6.6259,6.6157,6.5529,6.4991,6.5014,6.5394,6.5722,6.5756,6.5722,6.5648,6.5205,6.5135,6.5144,6.5164,6.5184,6.5196,6.5196,6.5211,6.5235,6.5242,6.4998,6.4746,6.4762,6.4529,6.4048,6.3133,6.3008,6.2969,7.5886,7.5606,7.3323,7.2349,7.2176,7.1296,7.077,7.0367,0.0,0.0,0.0,6.6263,6.6314,6.6327,6.6393,6.6406,6.6406,6.6406,6.6419,6.6444,6.6544,6.6605,6.6667,6.685,6.6922,6.6933,6.6933,6.6933,6.6933,6.6933,6.6933,6.6933,6.6933,6.6933,6.6933,6.6933,6.6265,6.4891,6.3717,6.3129,6.3129,6.2604,6.2321,6.2321,6.2305,6.2315,6.2315,6.2224,6.2116,6.2011,6.1871,6.1799,6.1748,6.1757,6.1757,6.1739,6.1139,6.0811,6.0783,6.0154,5.9741,5.9741,6.0407,6.0454,5.9591,5.9666,5.9741,5.9741,6.0417,6.0792,6.083,6.1543,6.2116,6.2219,6.2369,6.2782,6.3608,6.3759,6.4217,6.5053,6.5424,6.5757,6.6134,6.6343,6.6532,6.6668,6.6799,6.6688,6.6611,6.6384,6.6056,6.6129,6.6167,6.6315,6.6354,6.6311,6.6363,6.6251,6.629,6.6411,6.6385,6.6411,6.6389,6.6277,6.6427,6.6418,6.648,6.5937,6.5585,6.5653,6.5155,6.4687,6.4746,6.4773,6.4616,7.7399,7.6907,7.6131,7.5508,7.5084,7.4474,7.3435,7.2018,7.033,6.9522,6.9412,6.9477,6.9454,6.944,6.9467,6.9481,6.9467,6.9467,6.9499,6.9657,6.967,6.9816,7.0,7.0026,7.0126,7.0227,7.0202,7.0227,7.0239,7.0202,7.0239,7.0202,7.0239,7.0202,7.0239,7.0227,7.0128,6.9831,6.702,6.5594,6.5582,6.5494,6.5431,6.5468,6.546,6.5553,6.5542,6.4971,6.4353,6.3617,6.2917,6.2255,6.1613,6.1613,6.1569,6.1612,6.1509,6.1511,6.1609,6.1506,6.143,6.1468,6.1553,6.128,6.0529,6.1055,6.144,6.144,6.1581,6.1618,6.1693,6.2482,6.327,6.3881,6.4547,6.5298,6.6059,6.6134,6.6297,6.671,6.671,6.6922,6.7582,6.7641,6.7749,6.8254,6.8153,6.8346,6.8081,6.7152,6.6306,6.6195,6.6205,6.621,6.6453,6.6249,6.6429,6.6312,6.6433,6.6525,6.6596,6.6613,6.6584,6.6428,6.648,6.6459,6.6461,6.6401,6.6299,6.6336,6.6185,6.6209,6.628,6.6352,6.5997,7.7683,7.736,7.6456,7.5938,7.5645,7.5131,7.4463,7.3729,7.3046,7.1688,7.0146,7.011,7.011,7.011,7.011,7.011,7.011,7.011,7.0115,7.0184,7.0252,7.0361,7.0481,7.056,7.0626,7.0678,7.0768,7.0794,7.0806,7.0857,7.0895,7.0895,7.0895,7.0895,7.0895,7.0895,7.0895,7.0871,6.8605,6.7379,6.7379,6.6562,6.6091,6.6091,6.6138,6.6135,6.6135,6.5846,6.5531,6.515,6.4815,6.4475,6.4177,6.4177,6.4161,6.4166,6.3817,6.3644,6.3695,6.3353,6.3168,6.3168,6.3571,6.3683,6.327,6.2332,6.2003,6.2492,6.2895,6.3355,6.3759,6.4585,6.5271,6.5609,6.6022,6.636,6.6698,6.681,6.6866,6.7029,6.7202,6.7533,6.7958,6.8209,6.8417,6.8745,6.881,6.881,6.881,6.8158,6.7617,6.7617,6.7617,6.7617,6.7578,6.7611,6.7627,6.7647,6.7652,6.7662,6.7692,6.7668,6.7498,6.7115,6.7056,6.688,6.6579,6.6446,6.6507,6.6611,6.668,6.6793,6.6871,6.6903,6.6587,7.799,7.7704,7.6654,7.6175,7.6032,7.5625,7.5344,7.516,7.5175,7.367,7.1394,7.1174,7.1174,7.1174,7.1174,7.1174,7.1174,7.1174,7.1174,7.1188,7.1287,7.1356,7.1411,7.1507,7.1538,7.1615,7.1722,7.1789,7.1791,7.1919,7.1947,7.1985,7.1985,7.1911,7.1725,7.1725,7.1651,7.1391,7.0054,6.9236,6.9013,6.7825,6.7193,6.7156,6.7193,6.7193,6.7193,6.7193,6.7055,6.674,6.6714,6.66,6.6329,6.634,6.6351,6.631,6.5816,6.5496,6.5491,6.5062,6.4797,6.4817,6.537,6.5755,6.5626,6.4069,6.3195,6.3871,6.452,6.512,6.5674,6.65,6.7073,6.7073,6.7261,6.7411,6.7336,6.7374,6.7389,6.7495,6.7863,6.8189,6.848,6.8853,6.9239,6.9391,6.9357,6.9357,6.9357,6.9357,6.9352,6.9275,6.9081,6.8694,6.8772,6.8733,6.8694,6.8772,6.8733,6.8628,6.8671,6.8736,6.8596,6.7992,6.7862,6.7687,6.7134,6.7072,6.7181,6.733,6.7487,6.7492,6.7615,6.761,6.7255,7.89,7.8116,7.7854,7.7604,7.7117,7.7063,7.6628,7.6019,7.5983,7.5432,7.439,7.4463,7.439,7.4463,7.4353,7.428,7.4316,7.4426,7.4353,7.4316,7.4478,7.4529,7.4476,7.4579,7.4761,7.4801,7.4792,7.4714,7.4824,7.4977,7.517,7.5328,7.5355,7.4909,7.4314,7.424,7.3906,7.32,7.2308,7.1478,7.0722,7.0524,7.0462,7.0462,7.0425,7.045,7.0276,7.0462,6.9756,6.8431,6.8295,6.7663,6.6423,6.6163,6.621,6.6313,6.6224,6.6169,6.6306,6.6253,6.6357,6.6379,6.6539,6.6695,6.6752,6.651,6.636,6.651,6.6548,6.6585,6.6698,6.7438,6.7889,6.7926,6.8441,6.8967,6.8892,6.9005,6.9127,6.9464,6.9252,6.9407,7.0271,7.0412,7.0483,7.1021,7.1098,7.1098,7.1059,7.1098,7.1098,7.0827,6.9938,6.9081,6.9004,6.881,6.9043,6.8965,6.8849,6.9004,6.9087,6.9009,6.8744,6.8798,6.8677,6.8615,6.8495,6.8648,6.8596,6.8507,6.8678,6.9004,6.9179,6.9139,6.8628,7.8044,7.7622,7.7607,7.7495,7.7304,7.7326,7.7105,7.6812,7.6812,7.6628,7.6371,7.6335,7.5821,7.4903,7.4903,7.4903,7.4903,7.4903,7.4903,7.4903,7.4903,7.4911,7.497,7.497,7.5051,7.511,7.5197,7.5246,7.5303,7.5425,7.5551,7.5689,7.5702,7.5558,7.5304,7.5318,7.5132,7.4834,7.45,7.4153,7.3632,7.1911,7.0895,7.0895,7.0895,7.0895,7.0895,7.0895,7.0561,6.9979,6.9905,6.9645,6.8976,6.8939,6.8951,6.8975,6.9059,6.9166,6.9283,6.9295,6.9318,6.9375,6.9375,6.9398,6.948,6.9443,6.9503,6.9431,6.8345,6.7664,6.8152,6.8527,6.8704,6.8742,6.9005,6.9192,6.9192,6.9192,6.9524,7.0326,7.0593,7.1046,7.2016,7.2345,7.2534,7.2816,7.28,7.2723,7.28,7.2839,7.2839,7.2761,7.2181,7.1407,7.0556,7.0247,7.0286,7.0286,7.0286,7.0286,7.0286,7.0286,7.017,6.9667,6.9667,6.9435,6.8777,6.8871,6.8928,6.9237,6.9327,6.945,6.9492,6.9843,6.9686,7.7441,7.7289,7.7326,7.7326,7.7326,7.7326,7.7326,7.7326,7.7326,7.7326,7.7326,7.7326,7.6665,7.5674,7.5564,7.5564,7.5564,7.5564,7.5564,7.5564,7.5564,7.5564,7.5527,7.5564,7.5564,7.5579,7.5683,7.5757,7.5779,7.5961,7.6105,7.6203,7.6259,7.618,7.6104,7.6145,7.6024,7.5801,7.5801,7.5801,7.5466,7.3484,7.2245,7.2245,7.2245,7.2245,7.2208,7.2022,7.1799,7.1576,7.1366,7.1131,7.0908,7.0895,7.0895,7.0908,7.1008,7.1107,7.1155,7.1204,7.1216,7.1252,7.1264,7.1239,7.1312,7.1274,7.131,7.1243,6.9874,6.9217,6.9755,6.968,6.9643,6.9831,6.9718,6.9605,6.9906,6.9868,7.0261,7.1068,7.1456,7.2166,7.3094,7.3549,7.375,7.3761,7.3806,7.3877,7.3877,7.3844,7.3844,7.3877,7.3844,7.3342,7.2258,7.2026,7.2032,7.2026,7.2026,7.2026,7.2026,7.2026,7.1988,7.1601,7.1214,7.107,7.1042,7.0651,7.0318,7.0486,7.0555,7.0586,7.0898,7.1015,7.1015,7.7782,7.732,7.7326,7.7326,7.7326,7.7326,7.7326,7.7326,7.7326,7.7326,7.7326,7.7326,7.7252,7.7105,7.7032,7.7142,7.7142,7.7069,7.7032,7.7069,7.7105,7.7179,7.7179,7.7215,7.7142,7.6995,7.6974,7.7123,7.7348,7.7533,7.771,7.765,7.7692,7.7444,7.6894,7.6931,7.6604,7.6034,7.5959,7.5899,7.5875,7.5652,7.5503,7.5466,7.5503,7.5355,7.5355,7.4797,7.4054,7.3311,7.2642,7.1862,7.1094,7.1044,7.1131,7.1094,7.1056,7.1032,7.1119,7.1168,7.1181,7.1218,7.1355,7.1254,7.1488,7.15,7.1512,7.1398,7.1298,7.1231,7.1426,7.086,7.0732,7.1257,7.0818,7.0818,7.1407,7.135,7.1569,7.1761,7.222,7.2957,7.3416,7.3657,7.417,7.427,7.411,7.411,7.427,7.4115,7.4077,7.4115,7.4077,7.3883,7.3806,7.338,7.3496,7.3419,7.3187,7.3574,7.3728,7.38,7.3645,7.3529,7.3187,7.3159,7.3541,7.3592,7.3395,7.3243,7.2869,7.2851,7.25,7.2226,7.2344,7.7502,7.7326,7.7326,7.7326,7.7326,7.7326,7.7326,7.7326,7.7326,7.7326,7.7326,7.7326,7.7326,7.7326,7.7326,7.7326,7.7326,7.7326,7.7326,7.7326,7.7326,7.7326,7.7326,7.7326,7.7326,7.7326,7.7326,7.7304,7.7381,7.7478,7.7554,7.7658,7.7718,7.7607,7.7487,7.7521,7.7407,7.7232,7.7209,7.7288,7.7334,7.7398,7.7398,7.7324,7.6358,7.5801,7.5801,7.5503,7.5243,7.4946,7.4649,7.4351,7.4078,7.4041,7.4041,7.4041,7.4041,7.4041,7.3967,7.3521,7.3274,7.3301,7.2868,7.2583,7.2621,7.2633,7.2671,7.2733,7.2758,7.2881,7.2753,7.1923,7.1291,7.1584,7.1445,7.1407,7.1662,7.1907,7.2247,7.2879,7.3818,7.4981,7.5721,7.6234,7.6552,7.6978,7.6668,7.632,7.6204,7.59,7.5508,7.5508,7.5508,7.5508,7.5508,7.4463,7.3883,7.3877,7.3844,7.3844,7.396,7.4077,7.396,7.4077,7.4154,7.4154,7.4193,7.4308,7.448,7.4421,7.4144,7.418,7.414,7.3711,7.3984,7.8096,7.8112,7.8096,7.8096,7.8096,7.8096,7.8096,7.806,7.7839,7.7729,7.7693,7.7436,7.7326,7.7326,7.7326,7.7326,7.7326,7.7326,7.7326,7.7326,7.7326,7.7326,7.7326,7.7326,7.7326,7.7326,7.7326,7.7326,7.7326,7.7326,7.7387,7.7493,7.7539,7.7628,7.7732,7.7791,7.7842,7.7928,7.7943,7.8,7.8136,7.8193,7.8207,7.8072,7.7148,7.6618,7.6618,7.6358,7.6209,7.6209,7.5986,7.5801,7.5801,7.5801,7.5801,7.5801,7.5763,7.5801,7.5763,7.5267,7.4983,7.4983,7.45,7.4166,7.4166,7.4166,7.4218,7.4283,7.4296,7.4347,7.4275,7.3553,7.2814,7.2517,7.2248,7.2346,7.2819,7.3172,7.3856,7.4876,7.5952,7.7071,7.7884,7.8049,7.8332,7.895,7.8454,7.8138,7.8022,7.768,7.7254,7.7248,7.7248,7.7248,7.7248,7.6591,7.5469,7.5237,7.5044,7.4811,7.4695,7.4695,7.4695,7.4695,7.4695,7.4695,7.4782,7.4874,7.4959,7.5042,7.4925,7.4961,7.5,7.5078,7.5195,7.9743,7.9669,7.9779,7.9633,7.9596,7.9559,7.9706,7.9486,7.8883,7.8589,7.8516,7.7803,7.7582,7.7472,7.7619,7.7472,7.7546,7.7582,7.7472,7.7326,7.7326,7.7326,7.7326,7.7326,7.7326,7.7326,7.7326,7.7326,7.7326,7.7326,7.7326,7.7356,7.7493,7.7554,7.7584,7.7703,7.7754,7.7783,7.7783,7.782,7.7798,7.7957,7.8043,7.8043,7.8058,7.8104,7.8141,7.7473,7.7101,7.7027,7.6395,7.5875,7.6024,7.6024,7.5912,7.6024,7.5949,7.5912,7.5912,7.5912,7.5838,7.5801,7.5763,7.554,7.5503,7.554,7.5578,7.5554,7.5554,7.5705,7.5774,7.564,7.5121,7.4197,7.3529,7.3799,7.4882,7.5382,7.5971,7.7253,7.7915,7.85,7.887,7.8989,7.9105,7.926,7.9144,7.8989,7.895,7.8757,7.8873,7.8834,7.8564,7.8332,7.868,7.8834,7.779,7.6945,7.6668,7.6436,7.6436,7.6436,7.6436,7.6436,7.6436,7.6442,7.6477,7.6579,7.6712,7.6705,7.6318,7.6172,7.6445,7.6601,7.5898,7.9816,7.9816,7.9816,7.9816,7.9816,7.9816,7.9816,7.9779,7.9522,7.9449,7.9376,7.914,7.8993,7.8993,7.9029,7.8993,7.9029,7.8993,7.8442,7.7509,7.7326,7.7362,7.7362,7.7326,7.7326,7.7326,7.7326,7.7326,7.7362,7.7362,7.7326,7.7304,7.7372,7.7402,7.7417,7.7463,7.7524,7.7643,7.7658,7.7703,7.782,7.7928,7.8014,7.8028,7.8207,7.829,7.829,7.803,7.7919,7.7881,7.7658,7.751,7.751,7.7547,7.751,7.751,7.751,7.7547,7.7435,7.699,7.6692,7.6581,7.6159,7.5838,7.5801,7.5875,7.5875,7.5838,7.5801,7.5814,7.5854,7.5947,7.5865,7.5558,7.5395,7.5486,7.6308,7.6828,7.7526,7.8345,7.8496,7.8837,7.9572,7.984,8.0027,8.0492,8.0227,7.984,7.9801,7.9492,7.9028,7.9028,7.9028,7.9221,7.9415,7.9531,7.8989,7.8293,7.7983,7.7635,7.7751,7.779,7.7873,7.7912,7.7945,7.8001,7.8036,7.8069,7.8064,7.8319,7.8169,7.8203,7.8398,7.8047,7.7344,8.0697,8.0697,8.0681,8.0697,8.0697,8.0697,8.0697,8.0608,8.0388,8.0241,8.0204,7.9926,7.9816,7.9816,7.9816,7.9816,7.9816,7.9816,7.925,7.8369,7.8206,7.8206,7.8222,7.8259,7.8259,7.8222,7.8259,7.8222,7.8206,7.8222,7.8096,7.7839,7.7766,7.7582,7.7362,7.7326,7.7387,7.7478,7.7478,7.7524,7.7643,7.7754,7.7842,7.7871,7.8043,7.8193,7.8207,7.8262,7.829,7.829,7.829,7.829,7.829,7.829,7.829,7.829,7.829,7.829,7.8253,7.7807,7.7547,7.7435,7.7027,7.6729,7.6729,7.6729,7.6729,7.6729,7.6767,7.6729,7.678,7.6821,7.6891,7.6957,7.6504,7.6714,7.7321,7.8186,7.8935,7.9514,7.965,7.9957,8.0441,8.0724,8.1033,8.162,8.1233,8.0923,8.0846,8.0498,8.015,7.9956,8.0111,8.0188,8.0034,8.0034,8.0034,7.9608,7.926,7.8834,7.8602,7.8602,7.8602,7.8564,7.8602,7.8525,7.8593,7.8729,7.8806,7.926,7.957,7.9258,7.9023,7.9258,7.8828,8.2333,8.2333,8.2333,8.2333,8.2333,8.2333,8.2333,8.2223,8.1636,8.1379,8.1195,8.0828,8.0367,8.022,8.0477,8.0404,8.0073,8.0147,8.0147,7.9963,7.9926,7.98,7.9559,7.9486,7.9486,7.9559,7.9596,7.9669,7.9522,7.9522,7.9412,7.8699,7.8626,7.8295,7.7803,7.7509,7.7619,7.7708,7.7635,7.765,7.7665,7.7766,7.7783,7.7798,7.8027,7.8125,7.8057,7.8207,7.829,7.829,7.829,7.829,7.829,7.829,7.829,7.829,7.829,7.829,7.829,7.8216,7.8179,7.8141,7.8104,7.829,7.8067,7.7956,7.7956,7.7993,7.8067,7.8141,7.8104,7.8118,7.8132,7.8183,7.7398,7.729,7.8217,7.9401,8.0287,8.0838,8.1267,8.1652,8.1768,8.1768,8.2122,8.2471,8.2238,8.2238,8.2355,8.2122,8.1729,8.1652,8.1658,8.1658,8.1658,8.1233,8.1194,8.0962,8.0498,7.9995,7.9647,7.9569,7.9608,7.9531,7.9376,7.926,7.9349,7.9635,7.9736,7.9938,7.9938,7.9611,7.9821,8.0185,8.0312,8.3985,8.3985,8.3985,8.3985,8.3948,8.3948,8.3948,8.3948,8.3728,8.3471,8.3544,8.3471,8.3141,8.3251,8.2627,8.248,8.226,8.1819,8.1578,8.1562,8.1562,8.0828,8.0,7.9816,7.9853,7.989,7.9963,7.9816,7.9816,7.9926,7.9743,7.9522,7.9486,7.936,7.914,7.9029,7.914,7.914,7.9103,7.9066,7.9097,7.9206,7.9041,7.8556,7.8662,7.8491,7.8088,7.8207,7.829,7.829,7.829,7.829,7.829,7.829,7.829,7.829,7.829,7.829,7.829,7.829,7.829,7.829,7.829,7.829,7.829,7.829,7.829,7.829,7.829,7.8327,7.8327,7.8364,7.8587,7.9028,7.8637,7.8512,7.9199,8.0487,8.1589,8.176,8.2656,8.3122,8.3244,8.3283,8.3399,8.3592,8.3515,8.3399,8.3554,8.3476,8.2973,8.3283,8.3399,8.3399,8.3244,8.2741,8.2393,8.22,8.1774,8.1149,8.0917,8.084,8.0878,8.0917,8.0569,8.0414,8.0685,8.098,8.0938,8.0646,8.087,8.0856,8.1265,8.164,8.1601,8.4609,8.4609,8.4609,8.4609,8.4609,8.4609,8.4609,8.4609,8.4609,8.4609,8.4609,8.4609,8.4609,8.4535,8.4078,8.3911,8.3821,8.3434,8.3214,8.3214,8.3214,8.2296,8.1175,8.0807,8.0807,8.0807,8.0807,8.0844,8.0844,8.0807,8.0608,8.0351,8.033,8.0147,7.9743,7.9816,7.9816,7.9779,7.9816,7.9816,7.9832,7.9858,7.9706,7.9326,7.9338,7.9246,7.9097,7.9175,7.8986,7.8485,7.829,7.829,7.829,7.829,7.829,7.829,7.829,7.829,7.829,7.829,7.829,7.829,7.829,7.829,7.829,7.829,7.829,7.829,7.829,7.8476,7.881,7.907,7.9605,8.02,8.0179,8.0153,8.0224,8.133,8.2136,8.2663,8.3362,8.4031,8.4089,8.4134,8.4289,8.4405,8.4173,8.4289,8.4482,8.4327,8.4211,8.4327,8.4289,8.4134,8.4018,8.3592,8.3244,8.3089,8.2896,8.2277,8.1884,8.1768,8.1613,8.1575,8.1536,8.1536,8.1613,8.1644,8.1414,8.1383,8.1769,8.1945,8.208,8.2226,8.2265,8.4866,8.4866,8.4866,8.4866,8.4939,8.4866,8.5013,8.4903,8.5013,8.5013,8.5013,8.4903,8.5086,8.4866,8.4866,8.4719,8.4719,8.4462,8.4462,8.4389,8.4315,8.3618,8.259,8.2223,8.2186,8.215,8.226,8.2076,8.1929,8.2003,8.1782,8.1269,8.1122,8.0791,8.0477,8.022,8.0073,8.022,8.033,8.033,8.033,8.0346,8.0252,8.001,7.9841,7.9989,8.0148,8.0282,7.985,7.862,7.8499,7.8439,7.8402,7.829,7.829,7.829,7.829,7.829,7.829,7.829,7.829,7.829,7.829,7.829,7.829,7.829,7.8364,7.8587,7.8439,7.8885,7.9553,8.0282,8.0935,8.1425,8.1632,8.1746,8.1894,8.2229,8.2726,8.3281,8.3772,8.4182,8.4295,8.4405,8.4637,8.5372,8.514,8.5178,8.5294,8.5178,8.4985,8.4869,8.4753,8.4559,8.4482,8.4366,8.4095,8.3902,8.3786,8.3322,8.258,8.2348,8.2077,8.2039,8.2426,8.2316,8.189,8.183,8.1829,8.1659,8.1756,8.1915,8.207,8.2214,8.2304,8.6518,8.65,8.6518,8.6464,8.6464,8.6464,8.6464,8.6427,8.6444,8.6371,8.6444,8.6464,8.6427,8.639,8.5783,8.5527,8.5453,8.5013,8.4609,8.4609,8.4609,8.4499,8.3948,8.3544,8.3161,8.3067,8.248,8.226,8.226,8.237,8.215,8.2039,8.1966,8.1856,8.1672,8.1505,8.1689,8.1672,8.1599,8.1525,8.1525,8.1505,8.1269,8.0807,8.0346,8.0088,8.0174,8.0348,8.0333,7.9999,7.9543,7.9108,7.8625,7.8439,7.8439,7.8402,7.8364,7.8327,7.829,7.829,7.829,7.829,7.829,7.829,7.829,7.829,7.8625,7.9033,7.9242,7.9539,8.0371,8.1226,8.1858,8.2414,8.296,8.3464,8.3852,8.388,8.3926,8.4234,8.5066,8.5928,8.591,8.5848,8.6016,8.6255,8.6177,8.6145,8.6029,8.5952,8.5759,8.5526,8.5565,8.5449,8.5372,8.5256,8.4985,8.4792,8.4675,8.4559,8.3824,8.3438,8.3399,8.3438,8.3592,8.3244,8.2587,8.2516,8.2577,8.2171,8.1904,8.2231,8.2515,8.248,8.25,8.7248,8.7031,8.7014,8.7014,8.7014,8.7014,8.7014,8.7014,8.7014,8.7014,8.7014,8.7014,8.7014,8.6978,8.6591,8.6371,8.6297,8.5967,8.5747,8.5783,8.5783,8.5747,8.5563,8.4903,8.4389,8.3968,8.3581,8.3324,8.3324,8.3287,8.3398,8.3251,8.2957,8.2774,8.2663,8.2443,8.215,8.2113,8.2186,8.2186,8.2186,8.2186,8.2076,8.1636,8.1218,8.1077,8.1317,8.1455,8.1415,8.1177,8.0834,8.0297,7.9614,7.9405,7.9256,7.8922,7.8847,7.8625,7.8439,7.829,7.829,7.8327,7.8327,7.829,7.829,7.829,7.8476,7.8922,7.933,7.9925,8.1151,8.208,8.2701,8.3254,8.3828,8.4436,8.4866,8.4907,8.4834,8.5042,8.575,8.6244,8.6507,8.6556,8.6558,8.641,8.641,8.6371,8.641,8.6332,8.6371,8.6293,8.641,8.641,8.6339,8.6145,8.5875,8.5759,8.5681,8.5643,8.5372,8.5101,8.4946,8.4714,8.4327,8.3979,8.3438,8.3405,8.3384,8.3307,8.32,8.3145,8.3223,8.3513,8.3392,8.7521,8.7014,8.7014,8.7014,8.7014,8.7014,8.7014,8.7014,8.7014,8.7014,8.7014,8.7014,8.7014,8.6978,8.6978,8.6978,8.6941,8.6904,8.6721,8.6721,8.6721,8.6721,8.6591,8.6114,8.56,8.4976,8.4535,8.4462,8.4425,8.4572,8.4278,8.4425,8.3948,8.3618,8.3418,8.2994,8.2774,8.281,8.281,8.2774,8.2663,8.259,8.2406,8.2092,8.2019,8.2095,8.225,8.2406,8.2449,8.2126,8.2162,8.1768,8.1248,8.0691,8.0431,7.9739,7.9702,7.9479,7.907,7.8847,7.8773,7.855,7.8513,7.8402,7.8364,7.8327,7.8476,7.881,7.9368,8.0259,8.1671,8.208,8.2813,8.3519,8.4101,8.4724,8.5258,8.5446,8.5513,8.5606,8.594,8.6323,8.6464,8.6528,8.6569,8.6603,8.6603,8.6603,8.6603,8.6603,8.6603,8.6603,8.6603,8.6603,8.6564,8.6526,8.63,8.6261,8.6332,8.6332,8.6332,8.6107,8.5681,8.5178,8.4753,8.4521,8.4366,8.425,8.4279,8.4381,8.4188,8.3824,8.4077,8.4615,8.4313,8.7558,8.7014,8.7014,8.7014,8.7014,8.7014,8.7014,8.7014,8.7014,8.7014,8.7014,8.7014,8.7014,8.7014,8.7014,8.7014,8.7014,8.7014,8.7014,8.7014,8.7014,8.7014,8.6941,8.6794,8.6591,8.6261,8.549,8.4829,8.4756,8.4609,8.4903,8.4682,8.4499,8.4425,8.4389,8.4242,8.3985,8.3875,8.3911,8.3948,8.3838,8.3471,8.2957,8.2517,8.248,8.2508,8.2495,8.2629,8.2637,8.2604,8.2861,8.2883,8.2502,8.1534,8.0902,8.058,8.0505,8.0371,8.0074,8.0148,7.9874,7.9516,7.9293,7.8959,7.8587,7.8453,7.8852,7.9363,7.9995,8.0659,8.0854,8.1433,8.1811,8.262,8.3358,8.4019,8.4963,8.5532,8.5722,8.5745,8.6035,8.6277,8.636,8.6479,8.6542,8.6583,8.6596,8.6603,8.6603,8.6603,8.6603,8.6603,8.6603,8.6603,8.6603,8.6603,8.6487,8.6487,8.6487,8.6487,8.6526,8.6564,8.6255,8.5759,8.5643,8.5643,8.5449,8.5178,8.4946,8.4901,8.4658,8.444,8.4865,8.5258,8.504,8.8309,8.7493,8.746,8.7281,8.7029,8.7014,8.7014,8.7014,8.7014,8.7014,8.7014,8.7014,8.7014,8.7014,8.7014,8.7014,8.7014,8.7014,8.7014,8.7014,8.7014,8.7014,8.7031,8.7031,8.7014,8.6794,8.6187,8.58,8.5857,8.5877,8.5798,8.5747,8.549,8.5196,8.5086,8.4756,8.4716,8.4679,8.4696,8.4679,8.4626,8.4168,8.3781,8.3544,8.3414,8.3484,8.3582,8.368,8.3667,8.3568,8.3841,8.3862,8.3522,8.311,8.2334,8.1634,8.1403,8.1151,8.0817,8.0705,8.0468,8.0222,8.0111,7.9962,7.9651,7.9642,7.974,8.0322,8.0678,8.1158,8.1482,8.1406,8.1645,8.1946,8.2489,8.3106,8.3766,8.4643,8.5208,8.5629,8.5975,8.6161,8.6285,8.6375,8.65,8.6549,8.6583,8.6596,8.6603,8.6603,8.6603,8.6603,8.6603,8.6603,8.6603,8.6603,8.6603,8.6603,8.6603,8.6603,8.6603,8.6603,8.6603,8.641,8.641,8.6332,8.6293,8.5952,8.5681,8.5449,8.5498,8.5574,8.5685,8.5767,8.5613,8.8818,8.7715,8.7715,8.7444,8.7029,8.7014,8.7014,8.7014,8.7198,8.7271,8.7252,8.7288,8.7288,8.7215,8.7088,8.7014,8.7014,8.7014,8.7014,8.7029,8.72,8.72,8.7029,8.7166,8.7231,8.7261,8.7154,8.7163,8.7027,8.7044,8.7208,8.7144,8.6652,8.6402,8.6368,8.6148,8.548,8.5443,8.5443,8.5373,8.5079,8.5009,8.4836,8.4609,8.4609,8.4566,8.4538,8.4584,8.4611,8.4628,8.4824,8.4966,8.4706,8.4953,8.4405,8.3077,8.2575,8.2006,8.1657,8.13,8.1323,8.104,8.0951,8.0877,8.0617,8.0488,8.0782,8.129,8.1419,8.157,8.1908,8.2093,8.1932,8.1863,8.2112,8.2526,8.3031,8.3806,8.4812,8.5275,8.5772,8.6091,8.6208,8.633,8.6457,8.6535,8.6569,8.6596,8.6603,8.6603,8.6603,8.6603,8.6603,8.6603,8.6603,8.6603,8.6603,8.6603,8.6603,8.6603,8.6603,8.6603,8.6603,8.6603,8.6603,8.6526,8.6603,8.6603,8.6255,8.6145,8.6487,8.6556,8.6341,8.637,8.6335,8.822,8.7132,8.7112,8.7064,8.7031,8.7051,8.7051,8.7161,8.7802,8.8059,8.8059,8.8059,8.8059,8.7949,8.7399,8.7124,8.7124,8.7234,8.7308,8.7377,8.7628,8.7608,8.7217,8.757,8.7762,8.7773,8.7773,8.781,8.7836,8.7836,8.8053,8.8256,8.8263,8.8334,8.798,8.7779,8.833,8.8213,8.8147,8.7615,8.6672,8.6431,8.5836,8.5149,8.4869,8.5009,8.5144,8.5226,8.5239,8.5728,8.5859,8.6234,8.6654,8.6848,8.6417,8.5396,8.4469,8.3629,8.3351,8.2897,8.2442,8.2047,8.1906,8.1463,8.1373,8.1168,8.1374,8.1431,8.1595,8.1851,8.2249,8.2271,8.2172,8.2374,8.2672,8.3024,8.3421,8.433,8.5158,8.5427,8.609,8.6143,8.6207,8.6339,8.6421,8.6493,8.6556,8.6583,8.6603,8.6603,8.6603,8.6603,8.6603,8.6603,8.6603,8.6603,8.6603,8.6603,8.6603,8.6603,8.6603,8.6603,8.6603,8.6603,8.6603,8.6603,8.6603,8.6603,8.6603,8.6603,8.6603,8.6678,8.6752,8.6838,8.6853,8.8804,8.8022,8.8007,8.7898,8.769,8.7692,8.7949,8.8372,8.8702,8.8886,8.8886,8.8886,8.8886,8.8757,8.8445,8.8372,8.8372,8.8334,8.8372,8.8304,8.8511,8.8446,8.8287,8.8322,8.839,8.8517,8.8486,8.8678,8.8692,8.8616,8.8578,8.8776,8.8818,8.8697,8.8914,8.8818,8.8776,8.8725,8.8711,8.8476,8.8029,8.7829,8.7578,8.6958,8.6876,8.686,8.6814,8.664,8.6668,8.6996,8.7045,8.7173,8.7555,8.7787,8.7799,8.753,8.6687,8.5632,8.4492,8.3958,8.3464,8.3195,8.3073,8.3048,8.2909,8.2861,8.2798,8.2959,8.2965,8.3008,8.3017,8.3008,8.3132,8.3342,8.3686,8.4007,8.4528,8.5368,8.6058,8.6215,8.6321,8.6508,8.6599,8.6577,8.6585,8.6436,8.6507,8.6562,8.659,8.6603,8.6603,8.6603,8.6603,8.6603,8.6603,8.6603,8.6603,8.6603,8.6603,8.6603,8.6603,8.6603,8.6603,8.6603,8.6603,8.6603,8.6603,8.6603,8.6603,8.6603,8.6603,8.6654,8.6727,8.6782,8.6851,8.978,8.909,8.8935,8.8725,8.8481,8.85,8.8812,8.9381,8.983,8.9851,8.9745,8.9851,8.9812,8.9506,8.9501,8.9526,8.9605,8.9644,8.9762,8.9769,8.9872,8.9824,8.9795,8.9644,8.9738,8.9625,8.9902,8.9992,8.9994,8.9881,8.9602,8.9259,8.9427,8.9363,8.9299,8.9363,8.9402,8.9402,8.9389,8.9235,8.9012,8.8934,8.8825,8.8729,8.879,8.879,8.872,8.833,8.802,8.839,8.8369,8.8518,8.8856,8.9209,8.9173,8.8906,8.8366,8.7557,8.6187,8.5212,8.4469,8.4187,8.396,8.3824,8.4166,8.4569,8.4713,8.4302,8.4304,8.4365,8.4562,8.4637,8.4848,8.5042,8.5158,8.538,8.5724,8.647,8.6948,8.7016,8.7192,8.7329,8.7328,8.7053,8.6816,8.6485,8.645,8.6528,8.6569,8.6603,8.6603,8.6603,8.6603,8.6603,8.6603,8.6603,8.6603,8.6603,8.6603,8.6603,8.6603,8.6603,8.6603,8.6603,8.6603,8.6603,8.6603,8.6603,8.6603,8.6603,8.6603,8.6603,8.6668,8.6749,8.6864,9.0986,8.9897,8.9375,8.9231,8.9307,8.929,8.9381,8.971,9.0883,9.1023,9.075,9.1088,9.0735,9.0077,9.0374,9.0562,9.0413,9.0339,9.0774,9.1296,9.1623,9.1477,9.1377,9.1463,9.1761,9.1761,9.161,9.1549,9.1658,9.1423,9.1026,9.059,9.0281,9.04,9.034,9.0167,9.019,9.0201,9.0201,9.0003,8.9763,8.9578,8.9414,8.9009,8.8859,8.8804,8.8818,8.8776,8.9014,8.9564,8.9538,8.9844,9.0196,9.0506,9.0316,8.9906,8.9725,8.91,8.8146,8.6682,8.5658,8.5046,8.4617,8.4381,8.4737,8.4729,8.4882,8.5378,8.5561,8.6038,8.6569,8.7085,8.6812,8.7,8.7018,8.7176,8.7397,8.7535,8.794,8.7916,8.803,8.8218,8.8064,8.779,8.7263,8.694,8.6479,8.6556,8.6576,8.6603,8.6603,8.6603,8.6603,8.6603,8.6603,8.6603,8.6603,8.6603,8.6603,8.6603,8.6603,8.6603,8.6603,8.6603,8.6603,8.6603,8.6603,8.6603,8.6603,8.6603,8.6603,8.6603,8.6642,8.6727,8.6831,9.1921,9.2029,9.143,9.0764,9.0169,9.0568,9.0795,9.0921,9.1501,9.189,9.2007,9.2519,9.2589,9.2188,9.2213,9.2428,9.2428,9.2428,9.2563,9.2688,9.286,9.2794,9.272,9.268,9.2734,9.2787,9.2772,9.2741,9.2575,9.2618,9.2504,9.1996,9.1194,9.0687,9.0621,9.0621,9.0621,9.0621,9.0621,9.0454,9.0373,9.0235,9.0156,8.9968,8.992,8.992,8.9859,8.9516,8.9835,9.0102,9.0109,9.0482,9.0905,9.1091,9.1,9.0663,9.0586,9.0402,8.9879,8.8345,8.7079,8.679,8.6179,8.567,8.579,8.6191,8.6375,8.6705,8.7021,8.7541,8.7919,8.8179,8.8239,8.8709,8.8936,8.8942,8.9057,8.9089,8.9051,8.9111,8.908,8.9107,8.8863,8.8564,8.794,8.7357,8.6904,8.6615,8.6828,8.6758,8.6796,8.6719,8.6719,8.6603,8.6603,8.6603,8.6603,8.6603,8.6603,8.6603,8.6603,8.6603,8.6603,8.6603,8.6603,8.6603,8.6603,8.6603,8.6603,8.6603,8.6603,8.6603,8.6674,8.671,8.6821,9.2913,9.3378,9.3409,9.2563,9.138,9.1552,9.183,9.2085,9.2294,9.2732,9.3385,9.381,9.3868,9.3796,9.3902,9.3921,9.3846,9.3897,9.4098,9.4143,9.4149,9.4071,9.4026,9.3987,9.4004,9.3841,9.3803,9.3841,9.3497,9.3448,9.318,9.2695,9.2034,9.1472,9.0975,9.0697,9.0621,9.0621,9.0621,9.0621,9.061,9.0561,9.0561,9.0519,9.0497,9.0487,9.0383,9.0167,9.0163,9.0389,9.0436,9.052,9.08,9.1037,9.1127,9.1192,9.1201,9.1201,9.0689,8.9583,8.8216,8.7635,8.735,8.7178,8.7481,8.7679,8.7671,8.7744,8.8308,8.8795,8.894,8.9094,8.944,8.9816,9.0047,9.0148,9.0349,9.047,9.0355,9.0273,9.021,9.0094,8.9868,8.9538,8.8867,8.8359,8.8091,8.7782,8.7763,8.7615,8.7183,8.7028,8.6835,8.6719,8.6603,8.6642,8.668,8.6603,8.6603,8.6603,8.6603,8.6603,8.6603,8.6603,8.6603,8.6603,8.6603,8.6603,8.6603,8.6603,8.6603,8.6603,8.6629,8.6666,8.6749,9.3941,9.3593,9.4879,9.4343,9.274,9.2069,9.2227,9.2835,9.3348,9.3911,9.4443,9.4615,9.4365,9.4081,9.4472,9.4654,9.4667,9.4679,9.4882,9.5172,9.5154,9.5367,9.5352,9.5243,9.5025,9.5446,9.5216,9.4758,9.4376,9.4327,9.3906,9.3497,9.3077,9.2504,9.1778,9.0965,9.0659,9.0621,9.0659,9.0621,9.0621,9.0621,9.0621,9.0621,9.0621,9.0621,9.0551,9.0519,9.0491,9.0576,9.0638,9.0701,9.0905,9.1009,9.1082,9.1201,9.1201,9.1201,9.1059,8.9851,8.9082,8.846,8.8308,8.8107,8.8079,8.8325,8.8671,8.8671,8.8949,8.9286,8.9594,8.9932,9.0393,9.0663,9.0855,9.097,9.1124,9.1201,9.0932,9.0816,9.1009,9.1065,9.0847,9.0521,8.984,8.9362,8.9163,8.8987,8.8737,8.8428,8.7925,8.777,8.7538,8.7228,8.7144,8.6835,8.6719,8.6642,8.6603,8.6603,8.6603,8.6603,8.6603,8.6603,8.6603,8.6603,8.6603,8.6603,8.6603,8.6603,8.6603,8.661,8.6616,8.661,8.6696,9.4593,9.4852,9.4991,9.4641,9.4062,9.381,9.362,9.353,9.4076,9.451,9.4731,9.5055,9.5224,9.5091,9.5079,9.5248,9.526,9.5283,9.5504,9.5565,9.5609,9.5598,9.5609,9.5609,9.5609,9.5609,9.556,9.5522,9.5216,9.5102,9.5064,9.472,9.407,9.3486,9.2656,9.1892,9.1434,9.1281,9.0975,9.0621,9.0621,9.0659,9.0697,9.0697,9.0735,9.0735,9.0697,9.0697,9.069,9.0656,9.0658,9.0769,9.0915,9.0963,9.1064,9.1183,9.1201,9.1201,9.1154,9.0644,9.0462,8.9936,8.9486,8.9208,8.9281,8.9344,8.95,8.9633,8.9902,9.0325,9.071,9.074,9.097,9.1009,9.1086,9.1124,9.1201,9.1201,9.1086,9.1086,9.1163,9.1201,9.1052,9.1047,9.0519,9.0173,8.9929,8.9522,8.924,8.9085,8.8776,8.8737,8.8544,8.8079,8.7731,8.7538,8.7228,8.7074,8.6835,8.6603,8.6603,8.668,8.6603,8.6603,8.6603,8.6603,8.6603,8.6603,8.6603,8.6603,8.6603,8.6603,8.661,8.661,8.6642,9.514,9.5527,9.5177,9.4994,9.4932,9.4562,9.4164,9.415,9.4718,9.4994,9.5129,9.5437,9.5576,9.5587,9.5609,9.5609,9.5609,9.5598,9.5598,9.5609,9.5609,9.5609,9.5609,9.5609,9.5609,9.5609,9.5609,9.5571,9.5533,9.5609,9.5522,9.5331,9.5064,9.4605,9.3803,9.3077,9.2274,9.2121,9.1854,9.1652,9.1614,9.1576,9.1548,9.1576,9.1499,9.1423,9.1156,9.0965,9.0888,9.0756,9.0694,9.0748,9.0847,9.0954,9.1018,9.1091,9.1192,9.1192,9.1163,9.1154,9.0965,9.0935,9.0586,9.0393,9.0355,9.0346,9.0355,9.0556,9.0941,9.1056,9.1171,9.1201,9.1201,9.1201,9.1201,9.1201,9.1201,9.1201,9.1201,9.1201,9.1201,9.1201,9.1189,9.1278,9.116,9.0883,9.0687,9.0235,8.9859,8.9743,8.9627,8.9595,8.9363,8.8853,8.8544,8.8428,8.8041,8.7577,8.7306,8.7067,8.6874,8.699,8.6796,8.6603,8.6603,8.6603,8.6603,8.6603,8.6603,8.6603,8.6603,8.6603,8.6603,8.6603,8.6603,9.5609,9.5609,9.5598,9.5576,9.5402,9.4445,9.4243,9.4743,9.5345,9.5565,9.5587,9.5576,9.5609,9.5609,9.5609,9.5609,9.5609,9.5609,9.5609,9.5609,9.5609,9.5609,9.5609,9.5609,9.5609,9.5609,9.5609,9.5609,9.5609,9.5609,9.5609,9.5609,9.5484,9.5255,9.4758,9.4146,9.3344,9.3115,9.2771,9.2618,9.2542,9.2771,9.2656,9.2618,9.2618,9.2351,9.2083,9.1854,9.151,9.1166,9.0871,9.0819,9.0824,9.0895,9.0954,9.1028,9.1166,9.1192,9.1201,9.1201,9.1201,9.1201,9.1124,9.1133,9.1095,9.0932,9.0893,9.0932,9.1124,9.1163,9.1201,9.1201,9.1201,9.1201,9.1201,9.1201,9.1201,9.1201,9.1201,9.1201,9.1201,9.121,9.1189,9.13,9.1376,9.1323,9.1121,9.1202,9.0819,9.0594,9.0478,9.04,9.0052,8.9518,8.9285,8.9201,8.8853,8.8389,8.8157,8.7918,8.7647,8.7454,8.7345,8.719,8.6758,8.6603,8.6603,8.6603,8.6603,8.6603,8.6603,8.6603,8.6603,8.6603,8.6616,9.5609,9.5609,9.5609,9.5609,9.5565,9.5213,9.5189,9.5379,9.5565,9.5609,9.5609,9.5609,9.5609,9.5609,9.5609,9.5609,9.5609,9.5609,9.5609,9.5609,9.5609,9.5609,9.5609,9.5609,9.5609,9.5609,9.5609,9.5609,9.5609,9.5609,9.5609,9.5609,9.5609,9.5609,9.5446,9.5102,9.4567,9.4032,9.3573,9.3421,9.3306,9.3344,9.3306,9.3344,9.3344,9.3038,9.2847,9.2733,9.2465,9.2351,9.2312,9.2251,9.1638,9.17,9.1702,9.1186,9.1192,9.1201,9.1201,9.1201,9.1201,9.1201,9.1201,9.1201,9.1201,9.1201,9.1201,9.1201,9.1201,9.1201,9.1201,9.1201,9.1201,9.1201,9.1201,9.1201,9.1201,9.1201,9.1201,9.1201,9.1201,9.121,9.1189,9.1266,9.1374,9.1446,9.1516,9.1598,9.1617,9.1322,9.1135,9.1019,9.0903,9.04,9.0168,9.0052,8.9627,8.924,8.9008,8.8814,8.8698,8.8466,8.8118,8.777,8.7422,8.699,8.6603,8.668,8.6874,8.6642,8.6603,8.6603,8.6603,8.6603,8.6603,9.5609,9.5609,9.5609,9.5609,9.5609,9.5609,9.5609,9.5609,9.5609,9.5609,9.5609,9.5609,9.5609,9.5609,9.5609,9.5609,9.5609,9.5609,9.5609,9.5609,9.5609,9.5609,9.5609,9.5609,9.5609,9.5609,9.5609,9.5609,9.5609,9.5609,9.5609,9.5609,9.5609,9.5609,9.556,9.5446,9.5293,9.4872,9.4452,9.4146,9.4032,9.4032,9.407,9.3994,9.3994,9.3879,9.365,9.3612,9.3497,9.3191,9.3115,9.2945,9.2373,9.2245,9.2114,9.1657,9.1317,9.124,9.1201,9.1201,9.1201,9.1201,9.1201,9.1201,9.1201,9.1201,9.1201,9.1201,9.1201,9.1201,9.1201,9.1201,9.1201,9.1201,9.1201,9.1201,9.1201,9.1201,9.1201,9.1201,9.1201,9.1201,9.1206,9.1266,9.1325,9.139,9.147,9.16,9.1659,9.1578,9.1477,9.1445,9.1445,9.1329,9.1058,9.0787,9.0594,9.0246,8.9898,8.9743,8.9665,8.9285,8.8776,8.8428,8.8118,8.7693,8.7306,8.7183,8.7222,8.699,8.6796,8.6719,8.668,8.6603,8.6603,9.5609,9.5609,9.5609,9.5609,9.5609,9.5609,9.5609,9.5609,9.5609,9.5609,9.5609,9.5609,9.5609,9.5609,9.5609,9.5609,9.5609,9.5609,9.5609,9.5609,9.5609,9.5609,9.5609,9.5609,9.5609,9.5609,9.5609,9.5609,9.5609,9.5609,9.5609,9.5609,9.5609,9.5609,9.5609,9.5609,9.5484,9.5369,9.5293,9.5178,9.5331,9.5484,9.5609,9.5484,9.5369,9.5178,9.4681,9.4338,9.4108,9.3612,9.3382,9.3431,9.3096,9.2684,9.2507,9.2398,9.203,9.171,9.1595,9.1518,9.1325,9.1287,9.1201,9.1201,9.1201,9.1201,9.1201,9.1201,9.1201,9.1201,9.1201,9.1201,9.1201,9.1201,9.1201,9.1201,9.1201,9.1201,9.1201,9.1201,9.1201,9.1201,9.1219,9.1279,9.1283,9.1333,9.1422,9.1562,9.1629,9.1673,9.1702,9.1716,9.1677,9.1638,9.1561,9.1367,9.1484,9.1251,9.0787,9.0633,9.0516,8.9975,8.9324,8.9085,8.8853,8.8544,8.8234,8.8079,8.7847,8.7577,8.7345,8.6958,8.6835,8.6874,8.668,9.5609,9.5609,9.5609,9.5609,9.5609,9.5609,9.5609,9.5609,9.5609,9.5609,9.5609,9.5609,9.5609,9.5609,9.5609,9.5609,9.5609,9.5609,9.5609,9.5609,9.5609,9.5609,9.5609,9.5609,9.5609,9.5609,9.5609,9.5609,9.5609,9.5609,9.5609,9.5609,9.5609,9.5609,9.5609,9.5609,9.5609,9.5609,9.5609,9.5609,9.5609,9.5609,9.5609,9.5609,9.5522,9.5522,9.5216,9.5216,9.5178,9.5025,9.5025,9.4725,9.4199,9.3481,9.3227,9.3265,9.305,9.2624,9.2326,9.2133,9.1979,9.1518,9.1317,9.124,9.1201,9.1201,9.1201,9.1201,9.1201,9.1201,9.1201,9.1201,9.1201,9.1201,9.1201,9.1201,9.1201,9.1201,9.1201,9.1201,9.1201,9.121,9.121,9.1236,9.1241,9.1308,9.1352,9.1485,9.1561,9.1659,9.1702,9.1716,9.1716,9.1716,9.1716,9.1716,9.1716,9.1716,9.1329,9.129,9.1329,9.0749,9.0091,8.9859,8.9627,8.9356,8.9124,8.8969,8.8698,8.8273,8.8118,8.7886,8.7693,8.7686,8.7183,9.5609,9.5609,9.5609,9.5609,9.5609,9.5609,9.5609,9.5609,9.5609,9.5609,9.5609,9.5609,9.5609,9.5609,9.5609,9.5609,9.5609,9.5609,9.5609,9.5609,9.5609,9.5609,9.5609,9.5609,9.5609,9.5609,9.5609,9.5609,9.5609,9.5609,9.5609,9.5609,9.5609,9.5609,9.5609,9.5609,9.5609,9.5609,9.5609,9.5609,9.5609,9.5609,9.5609,9.5609,9.5609,9.5609,9.5609,9.5609,9.5598,9.556,9.5484,9.5435,9.4947,9.4372,9.4099,9.3976,9.38,9.3518,9.3172,9.2941,9.2787,9.2364,9.2249,9.2479,9.1902,9.1864,9.1518,9.1479,9.124,9.1201,9.1201,9.1201,9.1201,9.1201,9.1201,9.1201,9.1201,9.1201,9.1201,9.1201,9.1201,9.1201,9.121,9.121,9.1215,9.1241,9.1333,9.1392,9.1516,9.1637,9.168,9.1716,9.1716,9.1716,9.1716,9.1716,9.1716,9.1716,9.1716,9.1638,9.1484,9.1251,9.0903,9.0671,9.0478,9.0284,9.0052,8.982,8.9363,8.8899,8.8899,8.8899,8.8698,8.8466,8.8157,9.5609,9.5609,9.5609,9.5609,9.5609,9.5609,9.5609,9.5609,9.5609,9.5609,9.5609,9.5609,9.5609,9.5609,9.5609,9.5609,9.5609,9.5609,9.5609,9.5609,9.5609,9.5609,9.5609,9.5609,9.5609,9.5609,9.5609,9.5609,9.5609,9.5609,9.5609,9.5609,9.5609,9.5609,9.5609,9.5609,9.5609,9.5609,9.5609,9.5609,9.5609,9.5609,9.5609,9.5609,9.5609,9.5609,9.5609,9.5609,9.5609,9.5621,9.5632,9.5659,9.5564,9.5131,9.504,9.4869,9.4655,9.4278,9.3941,9.3864,9.371,9.3633,9.371,9.3441,9.2826,9.2479,9.2133,9.1864,9.1595,9.124,9.124,9.1201,9.1201,9.1201,9.1201,9.1201,9.1201,9.1201,9.1201,9.1201,9.1201,9.1201,9.1201,9.1201,9.1219,9.1253,9.1275,9.1366,9.1462,9.1554,9.1666,9.1694,9.1716,9.1716,9.1716,9.1716,9.1716,9.1716,9.1716,9.1716,9.1677,9.1484,9.1406,9.1522,9.1329,9.0981,9.0826,9.0633,9.013,8.9711,8.9936,9.0014,8.9511,8.9279,8.9208,9.5609,9.5609,9.5609,9.5609,9.5609,9.5609,9.5609,9.5609,9.5609,9.5609,9.5609,9.5609,9.5609,9.5609,9.5609,9.5609,9.5609,9.5609,9.5609,9.5609,9.5609,9.5609,9.5609,9.5609,9.5609,9.5609,9.5609,9.5609,9.5609,9.5609,9.5609,9.5609,9.5609,9.5609,9.5609,9.5609,9.5609,9.5609,9.5609,9.5609,9.5609,9.5609,9.5609,9.5609,9.5609,9.5609,9.5609,9.5609,9.5609,9.5632,9.5675,9.5768,9.5748,9.5708,9.5703,9.5646,9.5424,9.5202,9.4941,9.4788,9.4634,9.4134,9.4095,9.3941,9.3557,9.348,9.3172,9.2864,9.2441,9.1595,9.1402,9.124,9.1201,9.1201,9.1201,9.1201,9.1201,9.1201,9.1201,9.1201,9.1201,9.1201,9.1201,9.1201,9.1201,9.1245,9.1258,9.135,9.1414,9.1516,9.1644,9.1673,9.1702,9.1716,9.1716,9.1716,9.1716,9.1716,9.1716,9.1716,9.1716,9.1716,9.1716,9.1716,9.1716,9.1484,9.1367,9.1174,9.1174,9.0903,9.1174,9.1174,9.0555,9.013,9.0059]}]]